Wetterdaten: Dienstag, 10.11.2015
Datum Zeit Temp. A. Feuchte A. Luftdruck Regen Wind Richtung Richtung Sonnenschein ET UV Solar Taupunkt Windchill Windben Empfang
10.11.2015 00:00 15,2 C 75 % 1025,0 hPa 0,0 l/m 10,9 km/h (2 Bft) W 263 0 min 0,000 mm 0,0 UV-I 0 W/m 10,8 C 12,9 C 24,1 km/h (4 Bft) 100,00 %
10.11.2015 00:01 15,2 C 74 % 1025,0 hPa 0,0 l/m 11,9 km/h (2 Bft) W 275 0 min 0,000 mm 0,0 UV-I 0 W/m 10,6 C 12,5 C 22,5 km/h (4 Bft) 100,00 %
10.11.2015 00:02 15,2 C 75 % 1025,0 hPa 0,0 l/m 10,4 km/h (2 Bft) W 261 0 min 0,000 mm 0,0 UV-I 0 W/m 10,8 C 13,2 C 14,5 km/h (3 Bft) 100,00 %
10.11.2015 00:03 15,2 C 74 % 1024,9 hPa 0,0 l/m 13,5 km/h (3 Bft) SW 219 0 min 0,000 mm 0,0 UV-I 0 W/m 10,6 C 11,9 C 22,5 km/h (4 Bft) 100,00 %
10.11.2015 00:04 15,3 C 74 % 1025,0 hPa 0,0 l/m 12,9 km/h (3 Bft) W 261 0 min 0,000 mm 0,0 UV-I 0 W/m 10,7 C 12,3 C 20,9 km/h (4 Bft) 100,00 %
10.11.2015 00:05 15,2 C 74 % 1024,9 hPa 0,0 l/m 10,8 km/h (2 Bft) W 270 0 min 0,000 mm 0,0 UV-I 0 W/m 10,6 C 13,0 C 14,5 km/h (3 Bft) 100,00 %
10.11.2015 00:06 15,2 C 75 % 1024,9 hPa 0,0 l/m 9,2 km/h (2 Bft) W 260 0 min 0,000 mm 0,0 UV-I 0 W/m 10,8 C 13,7 C 12,9 km/h (3 Bft) 100,00 %
10.11.2015 00:07 15,2 C 74 % 1024,8 hPa 0,0 l/m 13,0 km/h (3 Bft) W-SW 257 0 min 0,000 mm 0,0 UV-I 0 W/m 10,6 C 12,1 C 22,5 km/h (4 Bft) 100,00 %
10.11.2015 00:08 15,2 C 75 % 1024,8 hPa 0,0 l/m 13,4 km/h (3 Bft) W-SW 258 0 min 0,000 mm 0,0 UV-I 0 W/m 10,8 C 12,0 C 19,3 km/h (3 Bft) 100,00 %
10.11.2015 00:09 15,2 C 74 % 1024,8 hPa 0,0 l/m 12,0 km/h (2 Bft) W-NW 296 0 min 0,000 mm 0,0 UV-I 0 W/m 10,6 C 12,5 C 16,1 km/h (3 Bft) 100,00 %
10.11.2015 00:10 15,2 C 74 % 1024,8 hPa 0,0 l/m 12,0 km/h (2 Bft) W 264 0 min 0,000 mm 0,0 UV-I 0 W/m 10,6 C 12,5 C 17,7 km/h (3 Bft) 100,00 %
10.11.2015 00:11 15,2 C 75 % 1024,9 hPa 0,0 l/m 10,7 km/h (2 Bft) W 267 0 min 0,000 mm 0,0 UV-I 0 W/m 10,8 C 13,0 C 14,5 km/h (3 Bft) 100,00 %
10.11.2015 00:12 15,2 C 75 % 1025,0 hPa 0,0 l/m 12,0 km/h (2 Bft) W 268 0 min 0,000 mm 0,0 UV-I 0 W/m 10,8 C 12,5 C 19,3 km/h (3 Bft) 100,00 %
10.11.2015 00:13 15,2 C 75 % 1025,0 hPa 0,0 l/m 10,3 km/h (2 Bft) W 277 0 min 0,000 mm 0,0 UV-I 0 W/m 10,8 C 13,2 C 20,9 km/h (4 Bft) 100,00 %
10.11.2015 00:14 15,2 C 75 % 1024,9 hPa 0,0 l/m 15,2 km/h (3 Bft) W-NW 289 0 min 0,000 mm 0,0 UV-I 0 W/m 10,8 C 11,4 C 22,5 km/h (4 Bft) 100,00 %
10.11.2015 00:15 15,2 C 75 % 1025,0 hPa 0,0 l/m 8,6 km/h (2 Bft) W 265 0 min 0,000 mm 0,0 UV-I 0 W/m 10,8 C 14,0 C 16,1 km/h (3 Bft) 100,00 %
10.11.2015 00:16 15,2 C 75 % 1024,9 hPa 0,0 l/m 10,3 km/h (2 Bft) W-NW 288 0 min 0,000 mm 0,0 UV-I 0 W/m 10,8 C 13,2 C 17,7 km/h (3 Bft) 100,00 %
10.11.2015 00:17 15,2 C 75 % 1024,9 hPa 0,0 l/m 8,7 km/h (2 Bft) W 275 0 min 0,000 mm 0,0 UV-I 0 W/m 10,8 C 14,0 C 16,1 km/h (3 Bft) 100,00 %
10.11.2015 00:18 15,1 C 75 % 1024,9 hPa 0,0 l/m 6,9 km/h (2 Bft) W 271 0 min 0,000 mm 0,0 UV-I 0 W/m 10,7 C 14,8 C 11,3 km/h (2 Bft) 100,00 %
10.11.2015 00:19 15,1 C 75 % 1024,9 hPa 0,0 l/m 12,2 km/h (2 Bft) W-NW 289 0 min 0,000 mm 0,0 UV-I 0 W/m 10,7 C 12,3 C 19,3 km/h (3 Bft) 100,00 %
10.11.2015 00:20 15,1 C 75 % 1024,9 hPa 0,0 l/m 9,3 km/h (2 Bft) W 278 0 min 0,000 mm 0,0 UV-I 0 W/m 10,7 C 13,6 C 12,9 km/h (3 Bft) 95,65 %
10.11.2015 00:21 15,1 C 75 % 1024,9 hPa 0,0 l/m 7,9 km/h (2 Bft) W-SW 239 0 min 0,000 mm 0,0 UV-I 0 W/m 10,7 C 14,3 C 11,3 km/h (2 Bft) 100,00 %
10.11.2015 00:22 15,1 C 76 % 1024,9 hPa 0,0 l/m 3,8 km/h (1 Bft) W 259 0 min 0,000 mm 0,0 UV-I 0 W/m 10,9 C 15,1 C 6,4 km/h (2 Bft) 100,00 %
10.11.2015 00:23 15,0 C 76 % 1024,9 hPa 0,0 l/m 9,2 km/h (2 Bft) W 273 0 min 0,000 mm 0,0 UV-I 0 W/m 10,8 C 13,5 C 14,5 km/h (3 Bft) 100,00 %
10.11.2015 00:24 14,9 C 76 % 1024,9 hPa 0,0 l/m 7,5 km/h (2 Bft) W-NW 283 0 min 0,000 mm 0,0 UV-I 0 W/m 10,7 C 14,3 C 12,9 km/h (3 Bft) 100,00 %
10.11.2015 00:25 14,9 C 76 % 1024,9 hPa 0,0 l/m 7,6 km/h (2 Bft) W 281 0 min 0,000 mm 0,0 UV-I 0 W/m 10,7 C 14,2 C 11,3 km/h (2 Bft) 95,65 %
10.11.2015 00:26 14,9 C 76 % 1024,9 hPa 0,0 l/m 5,3 km/h (1 Bft) W-SW 250 0 min 0,000 mm 0,0 UV-I 0 W/m 10,7 C 14,9 C 6,4 km/h (2 Bft) 100,00 %
10.11.2015 00:27 14,9 C 76 % 1024,9 hPa 0,0 l/m 5,4 km/h (1 Bft) S-SW 204 0 min 0,000 mm 0,0 UV-I 0 W/m 10,7 C 14,9 C 9,7 km/h (2 Bft) 100,00 %
10.11.2015 00:28 14,8 C 76 % 1024,9 hPa 0,0 l/m 7,1 km/h (2 Bft) W 267 0 min 0,000 mm 0,0 UV-I 0 W/m 10,6 C 14,4 C 11,3 km/h (2 Bft) 100,00 %
10.11.2015 00:29 14,8 C 77 % 1024,9 hPa 0,0 l/m 7,7 km/h (2 Bft) W-SW 244 0 min 0,000 mm 0,0 UV-I 0 W/m 10,8 C 14,1 C 12,9 km/h (3 Bft) 100,00 %
10.11.2015 00:30 14,8 C 77 % 1024,9 hPa 0,0 l/m 7,1 km/h (2 Bft) W 275 0 min 0,000 mm 0,0 UV-I 0 W/m 10,8 C 14,4 C 9,7 km/h (2 Bft) 100,00 %
10.11.2015 00:31 14,8 C 77 % 1025,0 hPa 0,0 l/m 5,6 km/h (1 Bft) W-SW 258 0 min 0,000 mm 0,0 UV-I 0 W/m 10,8 C 14,8 C 9,7 km/h (2 Bft) 100,00 %
10.11.2015 00:32 14,8 C 77 % 1025,0 hPa 0,0 l/m 6,2 km/h (2 Bft) SW 236 0 min 0,000 mm 0,0 UV-I 0 W/m 10,8 C 14,8 C 11,3 km/h (2 Bft) 100,00 %
10.11.2015 00:33 14,7 C 77 % 1025,0 hPa 0,0 l/m 4,4 km/h (1 Bft) W-SW 252 0 min 0,000 mm 0,0 UV-I 0 W/m 10,7 C 14,7 C 6,4 km/h (2 Bft) 100,00 %
10.11.2015 00:34 14,7 C 77 % 1025,0 hPa 0,0 l/m 6,9 km/h (2 Bft) W-NW 287 0 min 0,000 mm 0,0 UV-I 0 W/m 10,7 C 14,4 C 9,7 km/h (2 Bft) 95,83 %
10.11.2015 00:35 14,7 C 78 % 1025,0 hPa 0,0 l/m 6,6 km/h (2 Bft) W-NW 290 0 min 0,000 mm 0,0 UV-I 0 W/m 10,9 C 14,6 C 9,7 km/h (2 Bft) 100,00 %
10.11.2015 00:36 14,7 C 78 % 1025,0 hPa 0,0 l/m 6,0 km/h (2 Bft) W 266 0 min 0,000 mm 0,0 UV-I 0 W/m 10,9 C 14,7 C 9,7 km/h (2 Bft) 100,00 %
10.11.2015 00:37 14,7 C 78 % 1025,0 hPa 0,0 l/m 7,9 km/h (2 Bft) W-NW 286 0 min 0,000 mm 0,0 UV-I 0 W/m 10,9 C 13,8 C 12,9 km/h (3 Bft) 100,00 %
10.11.2015 00:38 14,7 C 78 % 1025,1 hPa 0,0 l/m 8,1 km/h (2 Bft) W 263 0 min 0,000 mm 0,0 UV-I 0 W/m 10,9 C 13,7 C 12,9 km/h (3 Bft) 100,00 %
10.11.2015 00:39 14,7 C 78 % 1025,1 hPa 0,0 l/m 7,4 km/h (2 Bft) W 278 0 min 0,000 mm 0,0 UV-I 0 W/m 10,9 C 14,1 C 12,9 km/h (3 Bft) 100,00 %
10.11.2015 00:40 14,7 C 78 % 1025,1 hPa 0,0 l/m 11,1 km/h (2 Bft) W 272 0 min 0,000 mm 0,0 UV-I 0 W/m 10,9 C 12,3 C 14,5 km/h (3 Bft) 95,83 %
10.11.2015 00:41 14,7 C 78 % 1025,1 hPa 0,0 l/m 7,1 km/h (2 Bft) W 273 0 min 0,000 mm 0,0 UV-I 0 W/m 10,9 C 14,3 C 11,3 km/h (2 Bft) 100,00 %
10.11.2015 00:42 14,7 C 78 % 1025,1 hPa 0,0 l/m 5,4 km/h (1 Bft) W 277 0 min 0,000 mm 0,0 UV-I 0 W/m 10,9 C 14,7 C 8,0 km/h (2 Bft) 100,00 %
10.11.2015 00:43 14,7 C 77 % 1025,1 hPa 0,0 l/m 9,7 km/h (2 Bft) W-SW 240 0 min 0,000 mm 0,0 UV-I 0 W/m 10,7 C 12,9 C 19,3 km/h (3 Bft) 100,00 %
10.11.2015 00:44 14,7 C 77 % 1025,0 hPa 0,0 l/m 11,5 km/h (2 Bft) W-NW 290 0 min 0,000 mm 0,0 UV-I 0 W/m 10,7 C 12,1 C 17,7 km/h (3 Bft) 100,00 %
10.11.2015 00:45 14,7 C 77 % 1025,0 hPa 0,0 l/m 8,1 km/h (2 Bft) NW 304 0 min 0,000 mm 0,0 UV-I 0 W/m 10,7 C 13,7 C 11,3 km/h (2 Bft) 100,00 %
10.11.2015 00:46 14,7 C 77 % 1025,1 hPa 0,0 l/m 7,8 km/h (2 Bft) W-SW 250 0 min 0,000 mm 0,0 UV-I 0 W/m 10,7 C 13,9 C 14,5 km/h (3 Bft) 100,00 %
10.11.2015 00:47 14,8 C 77 % 1025,1 hPa 0,0 l/m 8,0 km/h (2 Bft) W-NW 292 0 min 0,000 mm 0,0 UV-I 0 W/m 10,8 C 13,9 C 16,1 km/h (3 Bft) 100,00 %
10.11.2015 00:48 14,8 C 77 % 1025,1 hPa 0,0 l/m 10,4 km/h (2 Bft) W-SW 242 0 min 0,000 mm 0,0 UV-I 0 W/m 10,8 C 12,7 C 16,1 km/h (3 Bft) 100,00 %
10.11.2015 00:49 14,8 C 76 % 1025,0 hPa 0,0 l/m 13,9 km/h (3 Bft) W-SW 256 0 min 0,000 mm 0,0 UV-I 0 W/m 10,6 C 11,3 C 20,9 km/h (4 Bft) 95,83 %
10.11.2015 00:50 14,8 C 76 % 1025,1 hPa 0,0 l/m 8,0 km/h (2 Bft) W 261 0 min 0,000 mm 0,0 UV-I 0 W/m 10,6 C 13,9 C 11,3 km/h (2 Bft) 95,65 %
10.11.2015 00:51 14,8 C 77 % 1025,0 hPa 0,0 l/m 9,3 km/h (2 Bft) W-NW 287 0 min 0,000 mm 0,0 UV-I 0 W/m 10,8 C 13,2 C 14,5 km/h (3 Bft) 100,00 %
10.11.2015 00:52 14,8 C 76 % 1025,2 hPa 0,0 l/m 9,3 km/h (2 Bft) W 281 0 min 0,000 mm 0,0 UV-I 0 W/m 10,6 C 13,2 C 12,9 km/h (3 Bft) 100,00 %
10.11.2015 00:53 14,9 C 77 % 1025,2 hPa 0,0 l/m 10,5 km/h (2 Bft) W 262 0 min 0,000 mm 0,0 UV-I 0 W/m 10,9 C 12,8 C 14,5 km/h (3 Bft) 100,00 %
10.11.2015 00:54 14,9 C 76 % 1025,2 hPa 0,0 l/m 6,6 km/h (2 Bft) NW 311 0 min 0,000 mm 0,0 UV-I 0 W/m 10,7 C 14,8 C 11,3 km/h (2 Bft) 100,00 %
10.11.2015 00:55 14,9 C 76 % 1025,2 hPa 0,0 l/m 7,6 km/h (2 Bft) W 265 0 min 0,000 mm 0,0 UV-I 0 W/m 10,7 C 14,2 C 9,7 km/h (2 Bft) 100,00 %
10.11.2015 00:56 14,9 C 76 % 1025,2 hPa 0,0 l/m 9,6 km/h (2 Bft) W 260 0 min 0,000 mm 0,0 UV-I 0 W/m 10,7 C 13,2 C 16,1 km/h (3 Bft) 100,00 %
10.11.2015 00:57 14,9 C 76 % 1025,1 hPa 0,0 l/m 9,0 km/h (2 Bft) W 260 0 min 0,000 mm 0,0 UV-I 0 W/m 10,7 C 13,5 C 12,9 km/h (3 Bft) 100,00 %
10.11.2015 00:58 15,0 C 76 % 1025,1 hPa 0,0 l/m 5,6 km/h (1 Bft) W 279 0 min 0,000 mm 0,0 UV-I 0 W/m 10,8 C 15,0 C 9,7 km/h (2 Bft) 100,00 %
10.11.2015 00:59 15,0 C 76 % 1025,1 hPa 0,0 l/m 14,2 km/h (3 Bft) NW 312 0 min 0,000 mm 0,0 UV-I 0 W/m 10,8 C 11,5 C 19,3 km/h (3 Bft) 100,00 %
10.11.2015 01:00 15,0 C 76 % 1025,2 hPa 0,0 l/m 7,0 km/h (2 Bft) W-NW 284 0 min 0,025 mm 0,0 UV-I 0 W/m 10,8 C 14,7 C 11,3 km/h (2 Bft) 100,00 %
10.11.2015 01:01 15,0 C 76 % 1025,2 hPa 0,0 l/m 6,8 km/h (2 Bft) W 267 0 min 0,000 mm 0,0 UV-I 0 W/m 10,8 C 14,8 C 9,7 km/h (2 Bft) 100,00 %
10.11.2015 01:02 15,0 C 76 % 1025,2 hPa 0,0 l/m 10,8 km/h (2 Bft) N-NW 342 0 min 0,000 mm 0,0 UV-I 0 W/m 10,8 C 12,8 C 14,5 km/h (3 Bft) 100,00 %
10.11.2015 01:03 15,0 C 76 % 1025,2 hPa 0,0 l/m 8,3 km/h (2 Bft) W-NW 288 0 min 0,000 mm 0,0 UV-I 0 W/m 10,8 C 13,9 C 16,1 km/h (3 Bft) 100,00 %
10.11.2015 01:04 15,0 C 76 % 1025,2 hPa 0,0 l/m 8,5 km/h (2 Bft) W 261 0 min 0,000 mm 0,0 UV-I 0 W/m 10,8 C 13,8 C 14,5 km/h (3 Bft) 100,00 %
10.11.2015 01:05 15,1 C 76 % 1025,2 hPa 0,0 l/m 8,7 km/h (2 Bft) W 264 0 min 0,000 mm 0,0 UV-I 0 W/m 10,9 C 13,8 C 12,9 km/h (3 Bft) 100,00 %
10.11.2015 01:06 15,0 C 75 % 1025,2 hPa 0,0 l/m 13,7 km/h (3 Bft) W-NW 292 0 min 0,000 mm 0,0 UV-I 0 W/m 10,6 C 11,6 C 20,9 km/h (4 Bft) 100,00 %
10.11.2015 01:07 15,1 C 75 % 1025,2 hPa 0,0 l/m 6,2 km/h (2 Bft) SW 226 0 min 0,000 mm 0,0 UV-I 0 W/m 10,7 C 15,1 C 9,7 km/h (2 Bft) 100,00 %
10.11.2015 01:08 15,1 C 75 % 1025,2 hPa 0,0 l/m 10,8 km/h (2 Bft) S-SW 200 0 min 0,000 mm 0,0 UV-I 0 W/m 10,7 C 12,9 C 16,1 km/h (3 Bft) 100,00 %
10.11.2015 01:09 15,1 C 76 % 1025,2 hPa 0,0 l/m 9,1 km/h (2 Bft) W 267 0 min 0,000 mm 0,0 UV-I 0 W/m 10,9 C 13,6 C 16,1 km/h (3 Bft) 100,00 %
10.11.2015 01:10 15,1 C 75 % 1025,2 hPa 0,0 l/m 8,6 km/h (2 Bft) W-SW 253 0 min 0,000 mm 0,0 UV-I 0 W/m 10,7 C 13,9 C 19,3 km/h (3 Bft) 100,00 %
10.11.2015 01:11 15,1 C 76 % 1025,2 hPa 0,0 l/m 9,5 km/h (2 Bft) SW 227 0 min 0,000 mm 0,0 UV-I 0 W/m 10,9 C 13,5 C 20,9 km/h (4 Bft) 100,00 %
10.11.2015 01:12 15,1 C 75 % 1025,2 hPa 0,0 l/m 8,4 km/h (2 Bft) SW 232 0 min 0,000 mm 0,0 UV-I 0 W/m 10,7 C 14,0 C 12,9 km/h (3 Bft) 100,00 %
10.11.2015 01:13 15,1 C 76 % 1025,2 hPa 0,0 l/m 5,3 km/h (1 Bft) S-SW 198 0 min 0,000 mm 0,0 UV-I 0 W/m 10,9 C 15,1 C 9,7 km/h (2 Bft) 100,00 %
10.11.2015 01:14 15,1 C 76 % 1025,2 hPa 0,0 l/m 6,1 km/h (2 Bft) SW 229 0 min 0,000 mm 0,0 UV-I 0 W/m 10,9 C 15,1 C 8,0 km/h (2 Bft) 100,00 %
10.11.2015 01:15 15,1 C 76 % 1025,2 hPa 0,0 l/m 11,7 km/h (2 Bft) W-NW 290 0 min 0,000 mm 0,0 UV-I 0 W/m 10,9 C 12,5 C 16,1 km/h (3 Bft) 91,67 %
10.11.2015 01:16 15,1 C 76 % 1025,2 hPa 0,0 l/m 7,1 km/h (2 Bft) W 270 0 min 0,000 mm 0,0 UV-I 0 W/m 10,9 C 14,7 C 16,1 km/h (3 Bft) 100,00 %
10.11.2015 01:17 15,1 C 76 % 1025,2 hPa 0,0 l/m 6,6 km/h (2 Bft) SW 222 0 min 0,000 mm 0,0 UV-I 0 W/m 10,9 C 15,0 C 9,7 km/h (2 Bft) 100,00 %
10.11.2015 01:18 15,1 C 76 % 1025,2 hPa 0,0 l/m 7,0 km/h (2 Bft) SW 223 0 min 0,000 mm 0,0 UV-I 0 W/m 10,9 C 14,8 C 11,3 km/h (2 Bft) 100,00 %
10.11.2015 01:19 15,1 C 76 % 1025,2 hPa 0,0 l/m 6,6 km/h (2 Bft) W-SW 255 0 min 0,000 mm 0,0 UV-I 0 W/m 10,9 C 15,0 C 12,9 km/h (3 Bft) 95,83 %
10.11.2015 01:20 15,1 C 76 % 1025,2 hPa 0,0 l/m 11,7 km/h (2 Bft) W 267 0 min 0,000 mm 0,0 UV-I 0 W/m 10,9 C 12,5 C 16,1 km/h (3 Bft) 100,00 %
10.11.2015 01:21 15,1 C 75 % 1025,2 hPa 0,0 l/m 7,9 km/h (2 Bft) W 278 0 min 0,000 mm 0,0 UV-I 0 W/m 10,7 C 14,3 C 12,9 km/h (3 Bft) 95,83 %
10.11.2015 01:22 15,1 C 75 % 1025,2 hPa 0,0 l/m 10,6 km/h (2 Bft) W-SW 258 0 min 0,000 mm 0,0 UV-I 0 W/m 10,7 C 13,0 C 17,7 km/h (3 Bft) 96,15 %
10.11.2015 01:23 15,1 C 76 % 1025,2 hPa 0,0 l/m 7,4 km/h (2 Bft) W-SW 248 0 min 0,000 mm 0,0 UV-I 0 W/m 10,9 C 14,5 C 12,9 km/h (3 Bft) 100,00 %
10.11.2015 01:24 15,1 C 75 % 1025,2 hPa 0,0 l/m 7,7 km/h (2 Bft) W 265 0 min 0,000 mm 0,0 UV-I 0 W/m 10,7 C 14,4 C 12,9 km/h (3 Bft) 100,00 %
10.11.2015 01:25 15,1 C 76 % 1025,1 hPa 0,0 l/m 6,2 km/h (2 Bft) W 270 0 min 0,000 mm 0,0 UV-I 0 W/m 10,9 C 15,1 C 9,7 km/h (2 Bft) 100,00 %
10.11.2015 01:26 15,0 C 76 % 1025,2 hPa 0,0 l/m 6,6 km/h (2 Bft) S-SW 194 0 min 0,000 mm 0,0 UV-I 0 W/m 10,8 C 14,9 C 9,7 km/h (2 Bft) 100,00 %
10.11.2015 01:27 15,0 C 75 % 1025,2 hPa 0,0 l/m 12,1 km/h (2 Bft) W-NW 286 0 min 0,000 mm 0,0 UV-I 0 W/m 10,6 C 12,2 C 19,3 km/h (3 Bft) 100,00 %
10.11.2015 01:28 15,1 C 75 % 1025,2 hPa 0,0 l/m 10,7 km/h (2 Bft) W-NW 291 0 min 0,000 mm 0,0 UV-I 0 W/m 10,7 C 12,9 C 20,9 km/h (4 Bft) 92,86 %
10.11.2015 01:29 15,1 C 75 % 1025,2 hPa 0,0 l/m 11,9 km/h (2 Bft) SW 225 0 min 0,000 mm 0,0 UV-I 0 W/m 10,7 C 12,4 C 16,1 km/h (3 Bft) 100,00 %
10.11.2015 01:30 15,1 C 75 % 1025,1 hPa 0,0 l/m 11,8 km/h (2 Bft) W 261 0 min 0,000 mm 0,0 UV-I 0 W/m 10,7 C 12,5 C 14,5 km/h (3 Bft) 100,00 %
10.11.2015 01:31 15,1 C 75 % 1025,1 hPa 0,0 l/m 10,4 km/h (2 Bft) SW 223 0 min 0,000 mm 0,0 UV-I 0 W/m 10,7 C 13,1 C 20,9 km/h (4 Bft) 95,83 %
10.11.2015 01:32 15,1 C 75 % 1025,1 hPa 0,0 l/m 9,7 km/h (2 Bft) W-NW 298 0 min 0,000 mm 0,0 UV-I 0 W/m 10,7 C 13,4 C 16,1 km/h (3 Bft) 100,00 %
10.11.2015 01:33 15,1 C 75 % 1025,1 hPa 0,0 l/m 13,1 km/h (3 Bft) W-NW 288 0 min 0,000 mm 0,0 UV-I 0 W/m 10,7 C 12,0 C 19,3 km/h (3 Bft) 95,83 %
10.11.2015 01:34 15,1 C 75 % 1025,1 hPa 0,0 l/m 11,5 km/h (2 Bft) W-SW 252 0 min 0,000 mm 0,0 UV-I 0 W/m 10,7 C 12,6 C 20,9 km/h (4 Bft) 100,00 %
10.11.2015 01:35 15,1 C 75 % 1025,2 hPa 0,0 l/m 7,1 km/h (2 Bft) S-SW 203 0 min 0,000 mm 0,0 UV-I 0 W/m 10,7 C 14,7 C 11,3 km/h (2 Bft) 100,00 %
10.11.2015 01:36 15,1 C 75 % 1025,2 hPa 0,0 l/m 11,3 km/h (2 Bft) SW 231 0 min 0,000 mm 0,0 UV-I 0 W/m 10,7 C 12,7 C 17,7 km/h (3 Bft) 100,00 %
10.11.2015 01:37 15,1 C 75 % 1025,3 hPa 0,0 l/m 10,4 km/h (2 Bft) W 267 0 min 0,000 mm 0,0 UV-I 0 W/m 10,7 C 13,1 C 12,9 km/h (3 Bft) 100,00 %
10.11.2015 01:38 15,2 C 75 % 1025,2 hPa 0,0 l/m 10,9 km/h (2 Bft) W 277 0 min 0,000 mm 0,0 UV-I 0 W/m 10,8 C 12,9 C 16,1 km/h (3 Bft) 100,00 %
10.11.2015 01:39 15,1 C 75 % 1025,2 hPa 0,0 l/m 9,3 km/h (2 Bft) W 263 0 min 0,000 mm 0,0 UV-I 0 W/m 10,7 C 13,6 C 12,9 km/h (3 Bft) 100,00 %
10.11.2015 01:40 15,1 C 75 % 1025,2 hPa 0,0 l/m 11,6 km/h (2 Bft) W 267 0 min 0,000 mm 0,0 UV-I 0 W/m 10,7 C 12,5 C 17,7 km/h (3 Bft) 100,00 %
10.11.2015 01:41 15,1 C 75 % 1025,2 hPa 0,0 l/m 10,8 km/h (2 Bft) W 269 0 min 0,000 mm 0,0 UV-I 0 W/m 10,7 C 12,9 C 16,1 km/h (3 Bft) 95,65 %
10.11.2015 01:42 15,1 C 75 % 1025,2 hPa 0,0 l/m 12,1 km/h (2 Bft) W-NW 292 0 min 0,000 mm 0,0 UV-I 0 W/m 10,7 C 12,3 C 19,3 km/h (3 Bft) 100,00 %
10.11.2015 01:43 15,2 C 75 % 1025,2 hPa 0,0 l/m 14,8 km/h (3 Bft) W 267 0 min 0,000 mm 0,0 UV-I 0 W/m 10,8 C 11,5 C 20,9 km/h (4 Bft) 100,00 %
10.11.2015 01:44 15,2 C 75 % 1025,2 hPa 0,0 l/m 12,2 km/h (2 Bft) W-NW 299 0 min 0,000 mm 0,0 UV-I 0 W/m 10,8 C 12,4 C 20,9 km/h (4 Bft) 100,00 %
10.11.2015 01:45 15,2 C 75 % 1025,2 hPa 0,0 l/m 9,8 km/h (2 Bft) W 281 0 min 0,000 mm 0,0 UV-I 0 W/m 10,8 C 13,4 C 19,3 km/h (3 Bft) 100,00 %
10.11.2015 01:46 15,2 C 75 % 1025,3 hPa 0,0 l/m 10,1 km/h (2 Bft) W-NW 293 0 min 0,000 mm 0,0 UV-I 0 W/m 10,8 C 13,3 C 14,5 km/h (3 Bft) 100,00 %
10.11.2015 01:47 15,2 C 75 % 1025,3 hPa 0,0 l/m 8,3 km/h (2 Bft) SW 224 0 min 0,000 mm 0,0 UV-I 0 W/m 10,8 C 14,2 C 14,5 km/h (3 Bft) 100,00 %
10.11.2015 01:48 15,2 C 75 % 1025,3 hPa 0,0 l/m 8,2 km/h (2 Bft) W 267 0 min 0,000 mm 0,0 UV-I 0 W/m 10,8 C 14,2 C 12,9 km/h (3 Bft) 95,83 %
10.11.2015 01:49 15,2 C 75 % 1025,3 hPa 0,0 l/m 10,5 km/h (2 Bft) W-SW 249 0 min 0,000 mm 0,0 UV-I 0 W/m 10,8 C 13,1 C 16,1 km/h (3 Bft) 100,00 %
10.11.2015 01:50 15,2 C 75 % 1025,3 hPa 0,0 l/m 9,5 km/h (2 Bft) W-SW 254 0 min 0,000 mm 0,0 UV-I 0 W/m 10,8 C 13,6 C 16,1 km/h (3 Bft) 100,00 %
10.11.2015 01:51 15,2 C 75 % 1025,3 hPa 0,0 l/m 11,9 km/h (2 Bft) W 266 0 min 0,000 mm 0,0 UV-I 0 W/m 10,8 C 12,5 C 17,7 km/h (3 Bft) 100,00 %
10.11.2015 01:52 15,2 C 75 % 1025,3 hPa 0,0 l/m 8,5 km/h (2 Bft) W-NW 290 0 min 0,000 mm 0,0 UV-I 0 W/m 10,8 C 14,1 C 17,7 km/h (3 Bft) 100,00 %
10.11.2015 01:53 15,2 C 75 % 1025,4 hPa 0,0 l/m 9,1 km/h (2 Bft) SW 218 0 min 0,000 mm 0,0 UV-I 0 W/m 10,8 C 13,8 C 16,1 km/h (3 Bft) 100,00 %
10.11.2015 01:54 15,2 C 75 % 1025,4 hPa 0,0 l/m 9,7 km/h (2 Bft) W 277 0 min 0,000 mm 0,0 UV-I 0 W/m 10,8 C 13,5 C 14,5 km/h (3 Bft) 100,00 %
10.11.2015 01:55 15,2 C 74 % 1025,3 hPa 0,0 l/m 8,6 km/h (2 Bft) W 263 0 min 0,000 mm 0,0 UV-I 0 W/m 10,6 C 14,0 C 12,9 km/h (3 Bft) 100,00 %
10.11.2015 01:56 15,1 C 74 % 1025,4 hPa 0,0 l/m 8,5 km/h (2 Bft) W 273 0 min 0,000 mm 0,0 UV-I 0 W/m 10,5 C 13,9 C 12,9 km/h (3 Bft) 100,00 %
10.11.2015 01:57 15,2 C 75 % 1025,4 hPa 0,0 l/m 10,3 km/h (2 Bft) W 264 0 min 0,000 mm 0,0 UV-I 0 W/m 10,8 C 13,2 C 17,7 km/h (3 Bft) 100,00 %
10.11.2015 01:58 15,1 C 74 % 1025,3 hPa 0,0 l/m 11,1 km/h (2 Bft) W-NW 290 0 min 0,000 mm 0,0 UV-I 0 W/m 10,5 C 12,8 C 14,5 km/h (3 Bft) 97,14 %
10.11.2015 01:59 15,1 C 74 % 1025,3 hPa 0,0 l/m 9,9 km/h (2 Bft) NW 311 0 min 0,000 mm 0,0 UV-I 0 W/m 10,5 C 13,3 C 16,1 km/h (3 Bft) 100,00 %
10.11.2015 02:00 15,1 C 74 % 1025,3 hPa 0,0 l/m 8,7 km/h (2 Bft) W 281 0 min 0,000 mm 0,0 UV-I 0 W/m 10,5 C 13,8 C 11,3 km/h (2 Bft) 100,00 %
10.11.2015 02:01 15,1 C 74 % 1025,3 hPa 0,0 l/m 11,3 km/h (2 Bft) W-SW 254 0 min 0,026 mm 0,0 UV-I 0 W/m 10,5 C 12,7 C 17,7 km/h (3 Bft) 100,00 %
10.11.2015 02:02 15,1 C 74 % 1025,4 hPa 0,0 l/m 10,6 km/h (2 Bft) W-SW 241 0 min 0,000 mm 0,0 UV-I 0 W/m 10,5 C 13,0 C 12,9 km/h (3 Bft) 95,65 %
10.11.2015 02:03 15,1 C 74 % 1025,4 hPa 0,0 l/m 12,8 km/h (3 Bft) W 273 0 min 0,000 mm 0,0 UV-I 0 W/m 10,5 C 12,1 C 17,7 km/h (3 Bft) 100,00 %
10.11.2015 02:04 15,1 C 73 % 1025,3 hPa 0,0 l/m 12,5 km/h (3 Bft) W-NW 288 0 min 0,000 mm 0,0 UV-I 0 W/m 10,3 C 12,2 C 19,3 km/h (3 Bft) 100,00 %
10.11.2015 02:05 15,1 C 74 % 1025,3 hPa 0,0 l/m 7,2 km/h (2 Bft) NW 319 0 min 0,000 mm 0,0 UV-I 0 W/m 10,5 C 14,6 C 12,9 km/h (3 Bft) 100,00 %
10.11.2015 02:06 15,1 C 73 % 1025,3 hPa 0,0 l/m 13,8 km/h (3 Bft) N-NW 329 0 min 0,000 mm 0,0 UV-I 0 W/m 10,3 C 11,7 C 20,9 km/h (4 Bft) 100,00 %
10.11.2015 02:07 15,1 C 73 % 1025,3 hPa 0,0 l/m 11,8 km/h (2 Bft) W 273 0 min 0,000 mm 0,0 UV-I 0 W/m 10,3 C 12,5 C 22,5 km/h (4 Bft) 100,00 %
10.11.2015 02:08 15,1 C 73 % 1025,3 hPa 0,0 l/m 10,7 km/h (2 Bft) W 280 0 min 0,000 mm 0,0 UV-I 0 W/m 10,3 C 12,9 C 16,1 km/h (3 Bft) 96,15 %
10.11.2015 02:09 15,1 C 73 % 1025,3 hPa 0,0 l/m 12,3 km/h (3 Bft) W 273 0 min 0,000 mm 0,0 UV-I 0 W/m 10,3 C 12,3 C 17,7 km/h (3 Bft) 100,00 %
10.11.2015 02:10 15,1 C 73 % 1025,3 hPa 0,0 l/m 9,4 km/h (2 Bft) W-NW 287 0 min 0,000 mm 0,0 UV-I 0 W/m 10,3 C 13,5 C 16,1 km/h (3 Bft) 100,00 %
10.11.2015 02:11 15,1 C 73 % 1025,3 hPa 0,0 l/m 9,4 km/h (2 Bft) W 267 0 min 0,000 mm 0,0 UV-I 0 W/m 10,3 C 13,5 C 14,5 km/h (3 Bft) 100,00 %
10.11.2015 02:12 15,1 C 73 % 1025,3 hPa 0,0 l/m 10,3 km/h (2 Bft) W 265 0 min 0,000 mm 0,0 UV-I 0 W/m 10,3 C 13,1 C 14,5 km/h (3 Bft) 100,00 %
10.11.2015 02:13 15,1 C 73 % 1025,3 hPa 0,0 l/m 11,6 km/h (2 Bft) W-NW 293 0 min 0,000 mm 0,0 UV-I 0 W/m 10,3 C 12,5 C 17,7 km/h (3 Bft) 100,00 %
10.11.2015 02:14 15,1 C 73 % 1025,3 hPa 0,0 l/m 10,0 km/h (2 Bft) W 276 0 min 0,000 mm 0,0 UV-I 0 W/m 10,3 C 13,2 C 16,1 km/h (3 Bft) 100,00 %
10.11.2015 02:15 15,1 C 73 % 1025,3 hPa 0,0 l/m 8,2 km/h (2 Bft) W 273 0 min 0,000 mm 0,0 UV-I 0 W/m 10,3 C 14,1 C 12,9 km/h (3 Bft) 100,00 %
10.11.2015 02:16 15,1 C 73 % 1025,3 hPa 0,0 l/m 12,4 km/h (3 Bft) W 265 0 min 0,000 mm 0,0 UV-I 0 W/m 10,3 C 12,2 C 24,1 km/h (4 Bft) 95,65 %
10.11.2015 02:17 15,1 C 73 % 1025,3 hPa 0,0 l/m 9,1 km/h (2 Bft) W-NW 284 0 min 0,000 mm 0,0 UV-I 0 W/m 10,3 C 13,6 C 12,9 km/h (3 Bft) 100,00 %
10.11.2015 02:18 15,0 C 73 % 1025,3 hPa 0,0 l/m 8,6 km/h (2 Bft) W 280 0 min 0,000 mm 0,0 UV-I 0 W/m 10,2 C 13,8 C 12,9 km/h (3 Bft) 100,00 %
10.11.2015 02:19 15,0 C 73 % 1025,3 hPa 0,0 l/m 5,9 km/h (2 Bft) W 263 0 min 0,000 mm 0,0 UV-I 0 W/m 10,2 C 15,0 C 9,7 km/h (2 Bft) 91,67 %
10.11.2015 02:20 15,0 C 73 % 1025,3 hPa 0,0 l/m 8,8 km/h (2 Bft) W 277 0 min 0,000 mm 0,0 UV-I 0 W/m 10,2 C 13,7 C 11,3 km/h (2 Bft) 100,00 %
10.11.2015 02:21 14,9 C 73 % 1025,3 hPa 0,0 l/m 11,6 km/h (2 Bft) W 267 0 min 0,000 mm 0,0 UV-I 0 W/m 10,1 C 12,3 C 14,5 km/h (3 Bft) 100,00 %
10.11.2015 02:22 14,9 C 73 % 1025,2 hPa 0,0 l/m 9,0 km/h (2 Bft) W-SW 254 0 min 0,000 mm 0,0 UV-I 0 W/m 10,1 C 13,5 C 14,5 km/h (3 Bft) 100,00 %
10.11.2015 02:23 14,9 C 74 % 1025,2 hPa 0,0 l/m 4,5 km/h (1 Bft) W 263 0 min 0,000 mm 0,0 UV-I 0 W/m 10,3 C 14,9 C 6,4 km/h (2 Bft) 95,65 %
10.11.2015 02:24 14,9 C 74 % 1025,2 hPa 0,0 l/m 4,4 km/h (1 Bft) W 277 0 min 0,000 mm 0,0 UV-I 0 W/m 10,3 C 14,9 C 6,4 km/h (2 Bft) 100,00 %
10.11.2015 02:25 14,9 C 74 % 1025,2 hPa 0,0 l/m 12,3 km/h (3 Bft) W 273 0 min 0,000 mm 0,0 UV-I 0 W/m 10,3 C 12,0 C 16,1 km/h (3 Bft) 100,00 %
10.11.2015 02:26 14,9 C 74 % 1025,2 hPa 0,0 l/m 8,6 km/h (2 Bft) W-NW 290 0 min 0,000 mm 0,0 UV-I 0 W/m 10,3 C 13,7 C 12,9 km/h (3 Bft) 100,00 %
10.11.2015 02:27 14,8 C 74 % 1025,3 hPa 0,0 l/m 9,9 km/h (2 Bft) W 267 0 min 0,000 mm 0,0 UV-I 0 W/m 10,2 C 12,9 C 17,7 km/h (3 Bft) 96,15 %
10.11.2015 02:28 14,9 C 74 % 1025,3 hPa 0,0 l/m 7,4 km/h (2 Bft) SW 225 0 min 0,000 mm 0,0 UV-I 0 W/m 10,3 C 14,3 C 14,5 km/h (3 Bft) 95,83 %
10.11.2015 02:29 14,8 C 74 % 1025,3 hPa 0,0 l/m 8,3 km/h (2 Bft) W 273 0 min 0,000 mm 0,0 UV-I 0 W/m 10,2 C 13,7 C 14,5 km/h (3 Bft) 100,00 %
10.11.2015 02:30 14,8 C 74 % 1025,3 hPa 0,0 l/m 7,2 km/h (2 Bft) W-NW 302 0 min 0,000 mm 0,0 UV-I 0 W/m 10,2 C 14,3 C 9,7 km/h (2 Bft) 100,00 %
10.11.2015 02:31 14,8 C 73 % 1025,3 hPa 0,0 l/m 10,7 km/h (2 Bft) SW 219 0 min 0,000 mm 0,0 UV-I 0 W/m 10,0 C 12,6 C 16,1 km/h (3 Bft) 100,00 %
10.11.2015 02:32 14,8 C 74 % 1025,4 hPa 0,0 l/m 7,2 km/h (2 Bft) W-SW 252 0 min 0,000 mm 0,0 UV-I 0 W/m 10,2 C 14,3 C 12,9 km/h (3 Bft) 100,00 %
10.11.2015 02:33 14,8 C 74 % 1025,4 hPa 0,0 l/m 9,7 km/h (2 Bft) W-SW 255 0 min 0,000 mm 0,0 UV-I 0 W/m 10,2 C 13,0 C 16,1 km/h (3 Bft) 100,00 %
10.11.2015 02:34 14,8 C 74 % 1025,4 hPa 0,0 l/m 7,8 km/h (2 Bft) W 275 0 min 0,000 mm 0,0 UV-I 0 W/m 10,2 C 14,0 C 12,9 km/h (3 Bft) 100,00 %
10.11.2015 02:35 14,8 C 73 % 1025,4 hPa 0,0 l/m 10,5 km/h (2 Bft) W-NW 285 0 min 0,000 mm 0,0 UV-I 0 W/m 10,0 C 12,7 C 14,5 km/h (3 Bft) 100,00 %
10.11.2015 02:36 14,8 C 73 % 1025,4 hPa 0,0 l/m 7,9 km/h (2 Bft) W-NW 288 0 min 0,000 mm 0,0 UV-I 0 W/m 10,0 C 13,9 C 12,9 km/h (3 Bft) 100,00 %
10.11.2015 02:37 14,8 C 74 % 1025,4 hPa 0,0 l/m 5,9 km/h (2 Bft) W 261 0 min 0,000 mm 0,0 UV-I 0 W/m 10,2 C 14,8 C 11,3 km/h (2 Bft) 100,00 %
10.11.2015 02:38 14,8 C 74 % 1025,4 hPa 0,0 l/m 9,6 km/h (2 Bft) W 272 0 min 0,000 mm 0,0 UV-I 0 W/m 10,2 C 13,1 C 16,1 km/h (3 Bft) 96,15 %
10.11.2015 02:39 14,8 C 73 % 1025,4 hPa 0,0 l/m 8,0 km/h (2 Bft) W-SW 248 0 min 0,000 mm 0,0 UV-I 0 W/m 10,0 C 13,9 C 14,5 km/h (3 Bft) 100,00 %
10.11.2015 02:40 14,8 C 73 % 1025,4 hPa 0,0 l/m 7,5 km/h (2 Bft) W-NW 299 0 min 0,000 mm 0,0 UV-I 0 W/m 10,0 C 14,2 C 12,9 km/h (3 Bft) 100,00 %
10.11.2015 02:41 14,8 C 73 % 1025,4 hPa 0,0 l/m 7,2 km/h (2 Bft) W-SW 242 0 min 0,000 mm 0,0 UV-I 0 W/m 10,0 C 14,3 C 14,5 km/h (3 Bft) 100,00 %
10.11.2015 02:42 14,8 C 73 % 1025,4 hPa 0,0 l/m 10,9 km/h (2 Bft) W 268 0 min 0,000 mm 0,0 UV-I 0 W/m 10,0 C 12,5 C 14,5 km/h (3 Bft) 100,00 %
10.11.2015 02:43 14,8 C 73 % 1025,4 hPa 0,0 l/m 10,1 km/h (2 Bft) W 266 0 min 0,000 mm 0,0 UV-I 0 W/m 10,0 C 12,9 C 14,5 km/h (3 Bft) 100,00 %
10.11.2015 02:44 14,8 C 73 % 1025,3 hPa 0,0 l/m 10,4 km/h (2 Bft) W 277 0 min 0,000 mm 0,0 UV-I 0 W/m 10,0 C 12,7 C 17,7 km/h (3 Bft) 100,00 %
10.11.2015 02:45 14,8 C 72 % 1025,3 hPa 0,0 l/m 8,7 km/h (2 Bft) W-SW 244 0 min 0,000 mm 0,0 UV-I 0 W/m 9,8 C 13,5 C 14,5 km/h (3 Bft) 100,00 %
10.11.2015 02:46 14,8 C 72 % 1025,3 hPa 0,0 l/m 6,2 km/h (2 Bft) W 263 0 min 0,000 mm 0,0 UV-I 0 W/m 9,8 C 14,8 C 12,9 km/h (3 Bft) 95,65 %
10.11.2015 02:47 14,8 C 72 % 1025,2 hPa 0,0 l/m 7,2 km/h (2 Bft) W-SW 248 0 min 0,000 mm 0,0 UV-I 0 W/m 9,8 C 14,3 C 12,9 km/h (3 Bft) 100,00 %
10.11.2015 02:48 14,8 C 72 % 1025,2 hPa 0,0 l/m 7,1 km/h (2 Bft) W 259 0 min 0,000 mm 0,0 UV-I 0 W/m 9,8 C 14,4 C 11,3 km/h (2 Bft) 100,00 %
10.11.2015 02:49 14,8 C 72 % 1025,3 hPa 0,0 l/m 10,7 km/h (2 Bft) W-SW 243 0 min 0,000 mm 0,0 UV-I 0 W/m 9,8 C 12,6 C 16,1 km/h (3 Bft) 100,00 %
10.11.2015 02:50 14,8 C 72 % 1025,2 hPa 0,0 l/m 13,1 km/h (3 Bft) W-NW 286 0 min 0,000 mm 0,0 UV-I 0 W/m 9,8 C 11,6 C 19,3 km/h (3 Bft) 100,00 %
10.11.2015 02:51 14,8 C 71 % 1025,2 hPa 0,0 l/m 12,7 km/h (3 Bft) W 271 0 min 0,000 mm 0,0 UV-I 0 W/m 9,6 C 11,8 C 19,3 km/h (3 Bft) 100,00 %
10.11.2015 02:52 14,8 C 71 % 1025,2 hPa 0,0 l/m 9,4 km/h (2 Bft) W-SW 248 0 min 0,000 mm 0,0 UV-I 0 W/m 9,6 C 13,2 C 14,5 km/h (3 Bft) 100,00 %
10.11.2015 02:53 14,8 C 71 % 1025,1 hPa 0,0 l/m 10,2 km/h (2 Bft) NW 318 0 min 0,000 mm 0,0 UV-I 0 W/m 9,6 C 12,8 C 20,9 km/h (4 Bft) 100,00 %
10.11.2015 02:54 14,9 C 70 % 1025,1 hPa 0,0 l/m 14,3 km/h (3 Bft) W 278 0 min 0,000 mm 0,0 UV-I 0 W/m 9,5 C 11,3 C 20,9 km/h (4 Bft) 100,00 %
10.11.2015 02:55 14,9 C 70 % 1025,1 hPa 0,0 l/m 11,4 km/h (2 Bft) SW 216 0 min 0,000 mm 0,0 UV-I 0 W/m 9,5 C 12,4 C 17,7 km/h (3 Bft) 100,00 %
10.11.2015 02:56 14,9 C 70 % 1025,0 hPa 0,0 l/m 11,1 km/h (2 Bft) W 265 0 min 0,000 mm 0,0 UV-I 0 W/m 9,5 C 12,5 C 19,3 km/h (3 Bft) 100,00 %
10.11.2015 02:57 14,9 C 70 % 1025,0 hPa 0,0 l/m 12,0 km/h (2 Bft) W-NW 296 0 min 0,000 mm 0,0 UV-I 0 W/m 9,5 C 12,2 C 22,5 km/h (4 Bft) 100,00 %
10.11.2015 02:58 14,9 C 69 % 1024,9 hPa 0,0 l/m 10,7 km/h (2 Bft) SW 232 0 min 0,000 mm 0,0 UV-I 0 W/m 9,3 C 12,7 C 17,7 km/h (3 Bft) 100,00 %
10.11.2015 02:59 14,9 C 69 % 1024,8 hPa 0,0 l/m 12,0 km/h (2 Bft) SW 233 0 min 0,000 mm 0,0 UV-I 0 W/m 9,3 C 12,2 C 19,3 km/h (3 Bft) 97,14 %
10.11.2015 03:00 14,9 C 68 % 1024,8 hPa 0,0 l/m 13,6 km/h (3 Bft) S-SW 204 0 min 0,000 mm 0,0 UV-I 0 W/m 9,0 C 11,6 C 22,5 km/h (4 Bft) 100,00 %
10.11.2015 03:01 14,9 C 68 % 1024,8 hPa 0,0 l/m 15,9 km/h (3 Bft) W 276 0 min 0,025 mm 0,0 UV-I 0 W/m 9,0 C 10,8 C 25,7 km/h (4 Bft) 92,31 %
10.11.2015 03:02 14,9 C 68 % 1024,8 hPa 0,0 l/m 11,5 km/h (2 Bft) W 278 0 min 0,000 mm 0,0 UV-I 0 W/m 9,0 C 12,4 C 20,9 km/h (4 Bft) 100,00 %
10.11.2015 03:03 14,9 C 68 % 1024,8 hPa 0,0 l/m 12,3 km/h (3 Bft) SW 232 0 min 0,000 mm 0,0 UV-I 0 W/m 9,0 C 12,0 C 17,7 km/h (3 Bft) 95,65 %
10.11.2015 03:04 14,9 C 68 % 1024,8 hPa 0,0 l/m 11,8 km/h (2 Bft) SW 217 0 min 0,000 mm 0,0 UV-I 0 W/m 9,0 C 12,2 C 17,7 km/h (3 Bft) 100,00 %
10.11.2015 03:05 14,9 C 68 % 1024,8 hPa 0,0 l/m 12,6 km/h (3 Bft) W 266 0 min 0,000 mm 0,0 UV-I 0 W/m 9,0 C 11,9 C 16,1 km/h (3 Bft) 100,00 %
10.11.2015 03:06 14,9 C 68 % 1024,7 hPa 0,0 l/m 12,1 km/h (2 Bft) W 261 0 min 0,000 mm 0,0 UV-I 0 W/m 9,0 C 12,1 C 20,9 km/h (4 Bft) 100,00 %
10.11.2015 03:07 14,9 C 68 % 1024,7 hPa 0,0 l/m 11,3 km/h (2 Bft) SW 231 0 min 0,000 mm 0,0 UV-I 0 W/m 9,0 C 12,4 C 14,5 km/h (3 Bft) 100,00 %
10.11.2015 03:08 14,9 C 67 % 1024,7 hPa 0,0 l/m 15,0 km/h (3 Bft) W-SW 242 0 min 0,000 mm 0,0 UV-I 0 W/m 8,8 C 11,1 C 20,9 km/h (4 Bft) 100,00 %
10.11.2015 03:09 14,9 C 67 % 1024,7 hPa 0,0 l/m 13,9 km/h (3 Bft) SW 225 0 min 0,000 mm 0,0 UV-I 0 W/m 8,8 C 11,4 C 25,7 km/h (4 Bft) 100,00 %
10.11.2015 03:10 14,9 C 67 % 1024,7 hPa 0,0 l/m 12,2 km/h (2 Bft) W 259 0 min 0,000 mm 0,0 UV-I 0 W/m 8,8 C 12,1 C 17,7 km/h (3 Bft) 100,00 %
10.11.2015 03:11 14,9 C 67 % 1024,6 hPa 0,0 l/m 18,1 km/h (3 Bft) W-NW 283 0 min 0,000 mm 0,0 UV-I 0 W/m 8,8 C 10,1 C 25,7 km/h (4 Bft) 95,65 %
10.11.2015 03:12 14,9 C 67 % 1024,7 hPa 0,0 l/m 12,9 km/h (3 Bft) W 271 0 min 0,000 mm 0,0 UV-I 0 W/m 8,8 C 11,8 C 19,3 km/h (3 Bft) 100,00 %
10.11.2015 03:13 14,9 C 66 % 1024,8 hPa 0,0 l/m 13,2 km/h (3 Bft) W-SW 248 0 min 0,000 mm 0,0 UV-I 0 W/m 8,6 C 11,7 C 17,7 km/h (3 Bft) 100,00 %
10.11.2015 03:14 14,9 C 66 % 1024,8 hPa 0,0 l/m 19,1 km/h (3 Bft) W 279 0 min 0,000 mm 0,0 UV-I 0 W/m 8,6 C 9,9 C 27,4 km/h (4 Bft) 100,00 %
10.11.2015 03:15 15,0 C 66 % 1024,9 hPa 0,0 l/m 14,7 km/h (3 Bft) W-SW 255 0 min 0,000 mm 0,0 UV-I 0 W/m 8,7 C 11,3 C 22,5 km/h (4 Bft) 100,00 %
10.11.2015 03:16 15,0 C 66 % 1025,0 hPa 0,0 l/m 8,2 km/h (2 Bft) W-NW 301 0 min 0,000 mm 0,0 UV-I 0 W/m 8,7 C 14,0 C 14,5 km/h (3 Bft) 96,15 %
10.11.2015 03:17 15,0 C 66 % 1025,1 hPa 0,0 l/m 6,6 km/h (2 Bft) W-SW 253 0 min 0,000 mm 0,0 UV-I 0 W/m 8,7 C 14,9 C 12,9 km/h (3 Bft) 100,00 %
10.11.2015 03:18 14,9 C 66 % 1025,1 hPa 0,0 l/m 10,9 km/h (2 Bft) W-NW 285 0 min 0,000 mm 0,0 UV-I 0 W/m 8,6 C 12,6 C 25,7 km/h (4 Bft) 95,65 %
10.11.2015 03:19 14,9 C 65 % 1025,1 hPa 0,0 l/m 16,7 km/h (3 Bft) W 270 0 min 0,000 mm 0,0 UV-I 0 W/m 8,4 C 10,5 C 22,5 km/h (4 Bft) 100,00 %
10.11.2015 03:20 14,9 C 65 % 1025,2 hPa 0,0 l/m 13,0 km/h (3 Bft) W-SW 253 0 min 0,000 mm 0,0 UV-I 0 W/m 8,4 C 11,8 C 16,1 km/h (3 Bft) 100,00 %
10.11.2015 03:21 14,9 C 65 % 1025,1 hPa 0,0 l/m 16,2 km/h (3 Bft) W-NW 284 0 min 0,000 mm 0,0 UV-I 0 W/m 8,4 C 10,7 C 29,0 km/h (5 Bft) 95,83 %
10.11.2015 03:22 15,0 C 65 % 1025,1 hPa 0,0 l/m 12,7 km/h (3 Bft) W 275 0 min 0,000 mm 0,0 UV-I 0 W/m 8,5 C 12,0 C 16,1 km/h (3 Bft) 100,00 %
10.11.2015 03:23 15,0 C 65 % 1025,2 hPa 0,0 l/m 7,8 km/h (2 Bft) W 268 0 min 0,000 mm 0,0 UV-I 0 W/m 8,5 C 14,2 C 11,3 km/h (2 Bft) 100,00 %
10.11.2015 03:24 14,9 C 65 % 1025,2 hPa 0,0 l/m 9,7 km/h (2 Bft) W-SW 252 0 min 0,000 mm 0,0 UV-I 0 W/m 8,4 C 13,1 C 19,3 km/h (3 Bft) 100,00 %
10.11.2015 03:25 14,9 C 65 % 1025,1 hPa 0,0 l/m 11,1 km/h (2 Bft) W 273 0 min 0,000 mm 0,0 UV-I 0 W/m 8,4 C 12,5 C 17,7 km/h (3 Bft) 100,00 %
10.11.2015 03:26 14,9 C 65 % 1025,1 hPa 0,0 l/m 12,4 km/h (3 Bft) NW 304 0 min 0,000 mm 0,0 UV-I 0 W/m 8,4 C 12,0 C 17,7 km/h (3 Bft) 100,00 %
10.11.2015 03:27 14,9 C 65 % 1025,1 hPa 0,0 l/m 13,5 km/h (3 Bft) W 271 0 min 0,000 mm 0,0 UV-I 0 W/m 8,4 C 11,6 C 20,9 km/h (4 Bft) 100,00 %
10.11.2015 03:28 14,9 C 65 % 1025,1 hPa 0,0 l/m 11,4 km/h (2 Bft) W 275 0 min 0,000 mm 0,0 UV-I 0 W/m 8,4 C 12,4 C 19,3 km/h (3 Bft) 100,00 %
10.11.2015 03:29 14,9 C 65 % 1025,0 hPa 0,0 l/m 12,7 km/h (3 Bft) W-NW 286 0 min 0,000 mm 0,0 UV-I 0 W/m 8,4 C 11,9 C 22,5 km/h (4 Bft) 100,00 %
10.11.2015 03:30 14,9 C 65 % 1025,1 hPa 0,0 l/m 18,3 km/h (3 Bft) W 268 0 min 0,000 mm 0,0 UV-I 0 W/m 8,4 C 10,1 C 29,0 km/h (5 Bft) 100,00 %
10.11.2015 03:31 14,9 C 64 % 1024,9 hPa 0,0 l/m 12,9 km/h (3 Bft) W 278 0 min 0,000 mm 0,0 UV-I 0 W/m 8,2 C 11,8 C 17,7 km/h (3 Bft) 95,83 %
10.11.2015 03:32 14,9 C 64 % 1025,0 hPa 0,0 l/m 14,1 km/h (3 Bft) W-SW 250 0 min 0,000 mm 0,0 UV-I 0 W/m 8,2 C 11,4 C 19,3 km/h (3 Bft) 100,00 %
10.11.2015 03:33 14,9 C 64 % 1025,0 hPa 0,0 l/m 12,7 km/h (3 Bft) W 276 0 min 0,000 mm 0,0 UV-I 0 W/m 8,2 C 11,9 C 20,9 km/h (4 Bft) 100,00 %
10.11.2015 03:34 14,9 C 64 % 1025,0 hPa 0,0 l/m 14,4 km/h (3 Bft) W 264 0 min 0,000 mm 0,0 UV-I 0 W/m 8,2 C 11,3 C 20,9 km/h (4 Bft) 100,00 %
10.11.2015 03:35 14,9 C 64 % 1025,1 hPa 0,0 l/m 12,9 km/h (3 Bft) W 259 0 min 0,000 mm 0,0 UV-I 0 W/m 8,2 C 11,8 C 20,9 km/h (4 Bft) 100,00 %
10.11.2015 03:36 14,9 C 64 % 1025,1 hPa 0,0 l/m 12,9 km/h (3 Bft) W 269 0 min 0,000 mm 0,0 UV-I 0 W/m 8,2 C 11,8 C 17,7 km/h (3 Bft) 100,00 %
10.11.2015 03:37 14,9 C 64 % 1025,0 hPa 0,0 l/m 11,1 km/h (2 Bft) W-SW 249 0 min 0,000 mm 0,0 UV-I 0 W/m 8,2 C 12,5 C 17,7 km/h (3 Bft) 95,65 %
10.11.2015 03:38 14,9 C 64 % 1025,0 hPa 0,0 l/m 9,5 km/h (2 Bft) W 278 0 min 0,000 mm 0,0 UV-I 0 W/m 8,2 C 13,2 C 14,5 km/h (3 Bft) 100,00 %
10.11.2015 03:39 14,9 C 64 % 1025,0 hPa 0,0 l/m 10,0 km/h (2 Bft) W-SW 248 0 min 0,000 mm 0,0 UV-I 0 W/m 8,2 C 13,0 C 14,5 km/h (3 Bft) 100,00 %
10.11.2015 03:40 14,8 C 64 % 1025,0 hPa 0,0 l/m 7,8 km/h (2 Bft) W-NW 288 0 min 0,000 mm 0,0 UV-I 0 W/m 8,1 C 14,0 C 14,5 km/h (3 Bft) 100,00 %
10.11.2015 03:41 14,8 C 64 % 1025,1 hPa 0,0 l/m 11,9 km/h (2 Bft) W 259 0 min 0,000 mm 0,0 UV-I 0 W/m 8,1 C 12,1 C 16,1 km/h (3 Bft) 100,00 %
10.11.2015 03:42 14,8 C 63 % 1025,0 hPa 0,0 l/m 13,0 km/h (3 Bft) W 270 0 min 0,000 mm 0,0 UV-I 0 W/m 7,8 C 11,7 C 19,3 km/h (3 Bft) 95,83 %
10.11.2015 03:43 14,8 C 63 % 1025,0 hPa 0,0 l/m 12,8 km/h (3 Bft) W 277 0 min 0,000 mm 0,0 UV-I 0 W/m 7,8 C 11,7 C 19,3 km/h (3 Bft) 95,65 %
10.11.2015 03:44 14,8 C 63 % 1024,9 hPa 0,0 l/m 10,4 km/h (2 Bft) SW 222 0 min 0,000 mm 0,0 UV-I 0 W/m 7,8 C 12,7 C 22,5 km/h (4 Bft) 100,00 %
10.11.2015 03:45 14,8 C 63 % 1024,9 hPa 0,0 l/m 16,0 km/h (3 Bft) NW 315 0 min 0,000 mm 0,0 UV-I 0 W/m 7,8 C 10,6 C 25,7 km/h (4 Bft) 95,65 %
10.11.2015 03:46 14,8 C 62 % 1024,8 hPa 0,0 l/m 15,4 km/h (3 Bft) W 270 0 min 0,000 mm 0,0 UV-I 0 W/m 7,6 C 10,8 C 20,9 km/h (4 Bft) 100,00 %
10.11.2015 03:47 14,8 C 63 % 1024,9 hPa 0,0 l/m 13,0 km/h (3 Bft) W 267 0 min 0,000 mm 0,0 UV-I 0 W/m 7,8 C 11,7 C 19,3 km/h (3 Bft) 100,00 %
10.11.2015 03:48 14,8 C 62 % 1025,0 hPa 0,0 l/m 14,8 km/h (3 Bft) W 279 0 min 0,000 mm 0,0 UV-I 0 W/m 7,6 C 11,0 C 20,9 km/h (4 Bft) 95,83 %
10.11.2015 03:49 14,8 C 62 % 1024,9 hPa 0,0 l/m 15,2 km/h (3 Bft) W-NW 282 0 min 0,000 mm 0,0 UV-I 0 W/m 7,6 C 10,9 C 22,5 km/h (4 Bft) 100,00 %
10.11.2015 03:50 14,8 C 62 % 1024,9 hPa 0,0 l/m 15,1 km/h (3 Bft) W 265 0 min 0,000 mm 0,0 UV-I 0 W/m 7,6 C 10,9 C 20,9 km/h (4 Bft) 100,00 %
10.11.2015 03:51 14,9 C 61 % 1024,8 hPa 0,0 l/m 12,8 km/h (3 Bft) W 263 0 min 0,000 mm 0,0 UV-I 0 W/m 7,4 C 11,8 C 16,1 km/h (3 Bft) 96,30 %
10.11.2015 03:52 14,9 C 62 % 1024,8 hPa 0,0 l/m 10,2 km/h (2 Bft) SW 222 0 min 0,000 mm 0,0 UV-I 0 W/m 7,7 C 12,9 C 14,5 km/h (3 Bft) 100,00 %
10.11.2015 03:53 14,9 C 62 % 1024,8 hPa 0,0 l/m 10,0 km/h (2 Bft) W-NW 292 0 min 0,000 mm 0,0 UV-I 0 W/m 7,7 C 13,0 C 14,5 km/h (3 Bft) 100,00 %
10.11.2015 03:54 14,9 C 62 % 1024,8 hPa 0,0 l/m 10,1 km/h (2 Bft) W-SW 252 0 min 0,000 mm 0,0 UV-I 0 W/m 7,7 C 13,0 C 16,1 km/h (3 Bft) 100,00 %
10.11.2015 03:55 14,9 C 62 % 1024,8 hPa 0,0 l/m 10,0 km/h (2 Bft) W 262 0 min 0,000 mm 0,0 UV-I 0 W/m 7,7 C 13,0 C 14,5 km/h (3 Bft) 100,00 %
10.11.2015 03:56 14,8 C 61 % 1024,8 hPa 0,0 l/m 12,2 km/h (2 Bft) W 271 0 min 0,000 mm 0,0 UV-I 0 W/m 7,4 C 12,0 C 17,7 km/h (3 Bft) 100,00 %
10.11.2015 03:57 14,8 C 61 % 1024,8 hPa 0,0 l/m 8,9 km/h (2 Bft) W-NW 290 0 min 0,000 mm 0,0 UV-I 0 W/m 7,4 C 13,4 C 16,1 km/h (3 Bft) 100,00 %
10.11.2015 03:58 14,8 C 61 % 1024,8 hPa 0,0 l/m 12,9 km/h (3 Bft) W-NW 287 0 min 0,000 mm 0,0 UV-I 0 W/m 7,4 C 11,7 C 20,9 km/h (4 Bft) 100,00 %
10.11.2015 03:59 14,8 C 62 % 1024,8 hPa 0,0 l/m 7,2 km/h (2 Bft) W 278 0 min 0,000 mm 0,0 UV-I 0 W/m 7,6 C 14,3 C 11,3 km/h (2 Bft) 100,00 %
10.11.2015 04:00 14,8 C 61 % 1024,8 hPa 0,0 l/m 6,3 km/h (2 Bft) W 274 0 min 0,051 mm 0,0 UV-I 0 W/m 7,4 C 14,8 C 12,9 km/h (3 Bft) 95,65 %
10.11.2015 04:01 14,8 C 61 % 1024,9 hPa 0,0 l/m 10,9 km/h (2 Bft) W 264 0 min 0,000 mm 0,0 UV-I 0 W/m 7,4 C 12,5 C 12,9 km/h (3 Bft) 100,00 %
10.11.2015 04:02 14,8 C 62 % 1024,9 hPa 0,0 l/m 8,0 km/h (2 Bft) W 267 0 min 0,000 mm 0,0 UV-I 0 W/m 7,6 C 13,9 C 14,5 km/h (3 Bft) 95,65 %
10.11.2015 04:03 14,8 C 62 % 1024,8 hPa 0,0 l/m 8,7 km/h (2 Bft) W 275 0 min 0,000 mm 0,0 UV-I 0 W/m 7,6 C 13,5 C 14,5 km/h (3 Bft) 100,00 %
10.11.2015 04:04 14,8 C 62 % 1024,8 hPa 0,0 l/m 9,9 km/h (2 Bft) W 271 0 min 0,000 mm 0,0 UV-I 0 W/m 7,6 C 12,9 C 16,1 km/h (3 Bft) 100,00 %
10.11.2015 04:05 14,8 C 60 % 1024,8 hPa 0,0 l/m 14,8 km/h (3 Bft) W-NW 300 0 min 0,000 mm 0,0 UV-I 0 W/m 7,1 C 11,0 C 20,9 km/h (4 Bft) 100,00 %
10.11.2015 04:06 14,7 C 60 % 1024,8 hPa 0,0 l/m 9,7 km/h (2 Bft) W-SW 258 0 min 0,000 mm 0,0 UV-I 0 W/m 7,0 C 12,9 C 16,1 km/h (3 Bft) 95,65 %
10.11.2015 04:07 14,8 C 61 % 1024,8 hPa 0,0 l/m 5,4 km/h (1 Bft) W-NW 284 0 min 0,000 mm 0,0 UV-I 0 W/m 7,4 C 14,8 C 9,7 km/h (2 Bft) 100,00 %
10.11.2015 04:08 14,8 C 60 % 1024,9 hPa 0,0 l/m 9,1 km/h (2 Bft) W-NW 289 0 min 0,000 mm 0,0 UV-I 0 W/m 7,1 C 13,3 C 12,9 km/h (3 Bft) 100,00 %
10.11.2015 04:09 14,8 C 60 % 1025,0 hPa 0,0 l/m 8,5 km/h (2 Bft) W-NW 290 0 min 0,000 mm 0,0 UV-I 0 W/m 7,1 C 13,6 C 12,9 km/h (3 Bft) 100,00 %
10.11.2015 04:10 14,8 C 60 % 1024,9 hPa 0,0 l/m 8,5 km/h (2 Bft) W 259 0 min 0,000 mm 0,0 UV-I 0 W/m 7,1 C 13,6 C 12,9 km/h (3 Bft) 100,00 %
10.11.2015 04:11 14,8 C 60 % 1024,9 hPa 0,0 l/m 5,3 km/h (1 Bft) W-NW 282 0 min 0,000 mm 0,0 UV-I 0 W/m 7,1 C 14,8 C 8,0 km/h (2 Bft) 95,83 %
10.11.2015 04:12 14,8 C 61 % 1025,0 hPa 0,0 l/m 6,6 km/h (2 Bft) W-NW 286 0 min 0,000 mm 0,0 UV-I 0 W/m 7,4 C 14,7 C 11,3 km/h (2 Bft) 100,00 %
10.11.2015 04:13 14,7 C 60 % 1025,0 hPa 0,0 l/m 10,4 km/h (2 Bft) W 274 0 min 0,000 mm 0,0 UV-I 0 W/m 7,0 C 12,6 C 14,5 km/h (3 Bft) 96,15 %
10.11.2015 04:14 14,7 C 60 % 1025,0 hPa 0,0 l/m 8,9 km/h (2 Bft) W 279 0 min 0,000 mm 0,0 UV-I 0 W/m 7,0 C 13,3 C 14,5 km/h (3 Bft) 100,00 %
10.11.2015 04:15 14,7 C 60 % 1025,0 hPa 0,0 l/m 7,8 km/h (2 Bft) W 265 0 min 0,000 mm 0,0 UV-I 0 W/m 7,0 C 13,9 C 11,3 km/h (2 Bft) 100,00 %
10.11.2015 04:16 14,7 C 60 % 1025,0 hPa 0,0 l/m 7,1 km/h (2 Bft) W 259 0 min 0,000 mm 0,0 UV-I 0 W/m 7,0 C 14,3 C 11,3 km/h (2 Bft) 100,00 %
10.11.2015 04:17 14,7 C 60 % 1024,9 hPa 0,0 l/m 5,8 km/h (2 Bft) W 279 0 min 0,000 mm 0,0 UV-I 0 W/m 7,0 C 14,7 C 9,7 km/h (2 Bft) 96,15 %
10.11.2015 04:18 14,7 C 60 % 1024,8 hPa 0,0 l/m 5,4 km/h (1 Bft) W-SW 242 0 min 0,000 mm 0,0 UV-I 0 W/m 7,0 C 14,7 C 8,0 km/h (2 Bft) 100,00 %
10.11.2015 04:19 14,7 C 61 % 1024,8 hPa 0,0 l/m 8,9 km/h (2 Bft) W 274 0 min 0,000 mm 0,0 UV-I 0 W/m 7,3 C 13,3 C 16,1 km/h (3 Bft) 100,00 %
10.11.2015 04:20 14,7 C 60 % 1024,8 hPa 0,0 l/m 7,7 km/h (2 Bft) W-SW 239 0 min 0,000 mm 0,0 UV-I 0 W/m 7,0 C 14,0 C 9,7 km/h (2 Bft) 100,00 %
10.11.2015 04:21 14,7 C 60 % 1024,8 hPa 0,0 l/m 7,2 km/h (2 Bft) W-NW 283 0 min 0,000 mm 0,0 UV-I 0 W/m 7,0 C 14,2 C 11,3 km/h (2 Bft) 100,00 %
10.11.2015 04:22 14,7 C 60 % 1024,7 hPa 0,0 l/m 8,6 km/h (2 Bft) W 270 0 min 0,000 mm 0,0 UV-I 0 W/m 7,0 C 13,5 C 16,1 km/h (3 Bft) 100,00 %
10.11.2015 04:23 14,7 C 60 % 1024,7 hPa 0,0 l/m 8,8 km/h (2 Bft) S-SW 211 0 min 0,000 mm 0,0 UV-I 0 W/m 7,0 C 13,4 C 14,5 km/h (3 Bft) 100,00 %
10.11.2015 04:24 14,7 C 60 % 1024,7 hPa 0,0 l/m 7,6 km/h (2 Bft) W-NW 284 0 min 0,000 mm 0,0 UV-I 0 W/m 7,0 C 14,0 C 12,9 km/h (3 Bft) 100,00 %
10.11.2015 04:25 14,6 C 60 % 1024,7 hPa 0,0 l/m 9,5 km/h (2 Bft) SW 235 0 min 0,000 mm 0,0 UV-I 0 W/m 6,9 C 12,9 C 16,1 km/h (3 Bft) 100,00 %
10.11.2015 04:26 14,7 C 59 % 1024,7 hPa 0,0 l/m 9,5 km/h (2 Bft) W-SW 257 0 min 0,000 mm 0,0 UV-I 0 W/m 6,8 C 13,0 C 14,5 km/h (3 Bft) 100,00 %
10.11.2015 04:27 14,6 C 60 % 1024,7 hPa 0,0 l/m 5,8 km/h (2 Bft) W-NW 286 0 min 0,000 mm 0,0 UV-I 0 W/m 6,9 C 14,6 C 9,7 km/h (2 Bft) 91,30 %
10.11.2015 04:28 14,6 C 60 % 1024,8 hPa 0,0 l/m 6,1 km/h (2 Bft) NW 316 0 min 0,000 mm 0,0 UV-I 0 W/m 6,9 C 14,6 C 12,9 km/h (3 Bft) 100,00 %
10.11.2015 04:29 14,6 C 59 % 1024,8 hPa 0,0 l/m 10,3 km/h (2 Bft) NW 306 0 min 0,000 mm 0,0 UV-I 0 W/m 6,7 C 12,5 C 12,9 km/h (3 Bft) 95,65 %
10.11.2015 04:30 14,6 C 60 % 1024,8 hPa 0,0 l/m 6,6 km/h (2 Bft) SW 231 0 min 0,000 mm 0,0 UV-I 0 W/m 6,9 C 14,5 C 9,7 km/h (2 Bft) 100,00 %
10.11.2015 04:31 14,6 C 59 % 1024,8 hPa 0,0 l/m 5,3 km/h (1 Bft) W 281 0 min 0,000 mm 0,0 UV-I 0 W/m 6,7 C 14,6 C 8,0 km/h (2 Bft) 100,00 %
10.11.2015 04:32 14,6 C 59 % 1024,8 hPa 0,0 l/m 6,9 km/h (2 Bft) W 273 0 min 0,000 mm 0,0 UV-I 0 W/m 6,7 C 14,3 C 11,3 km/h (2 Bft) 100,00 %
10.11.2015 04:33 14,6 C 59 % 1024,8 hPa 0,0 l/m 6,9 km/h (2 Bft) W-NW 282 0 min 0,000 mm 0,0 UV-I 0 W/m 6,7 C 14,3 C 9,7 km/h (2 Bft) 100,00 %
10.11.2015 04:34 14,6 C 59 % 1024,8 hPa 0,0 l/m 6,0 km/h (2 Bft) W-NW 301 0 min 0,000 mm 0,0 UV-I 0 W/m 6,7 C 14,6 C 12,9 km/h (3 Bft) 95,83 %
10.11.2015 04:35 14,6 C 59 % 1024,8 hPa 0,0 l/m 9,2 km/h (2 Bft) SW 225 0 min 0,000 mm 0,0 UV-I 0 W/m 6,7 C 13,1 C 14,5 km/h (3 Bft) 100,00 %
10.11.2015 04:36 14,6 C 59 % 1024,9 hPa 0,0 l/m 6,1 km/h (2 Bft) W-NW 296 0 min 0,000 mm 0,0 UV-I 0 W/m 6,7 C 14,6 C 9,7 km/h (2 Bft) 100,00 %
10.11.2015 04:37 14,6 C 59 % 1024,9 hPa 0,0 l/m 6,8 km/h (2 Bft) W 281 0 min 0,000 mm 0,0 UV-I 0 W/m 6,7 C 14,4 C 11,3 km/h (2 Bft) 95,83 %
10.11.2015 04:38 14,6 C 59 % 1024,9 hPa 0,0 l/m 8,3 km/h (2 Bft) W-SW 246 0 min 0,000 mm 0,0 UV-I 0 W/m 6,7 C 13,5 C 14,5 km/h (3 Bft) 100,00 %
10.11.2015 04:39 14,6 C 59 % 1024,9 hPa 0,0 l/m 7,4 km/h (2 Bft) W-SW 238 0 min 0,000 mm 0,0 UV-I 0 W/m 6,7 C 14,0 C 12,9 km/h (3 Bft) 100,00 %
10.11.2015 04:40 14,6 C 59 % 1024,8 hPa 0,0 l/m 6,1 km/h (2 Bft) W-SW 243 0 min 0,000 mm 0,0 UV-I 0 W/m 6,7 C 14,6 C 9,7 km/h (2 Bft) 100,00 %
10.11.2015 04:41 14,6 C 59 % 1025,0 hPa 0,0 l/m 7,9 km/h (2 Bft) W 262 0 min 0,000 mm 0,0 UV-I 0 W/m 6,7 C 13,7 C 11,3 km/h (2 Bft) 100,00 %
10.11.2015 04:42 14,6 C 59 % 1025,0 hPa 0,0 l/m 6,9 km/h (2 Bft) W 262 0 min 0,000 mm 0,0 UV-I 0 W/m 6,7 C 14,3 C 12,9 km/h (3 Bft) 100,00 %
10.11.2015 04:43 14,6 C 58 % 1024,9 hPa 0,0 l/m 10,4 km/h (2 Bft) W 278 0 min 0,000 mm 0,0 UV-I 0 W/m 6,4 C 12,5 C 17,7 km/h (3 Bft) 100,00 %
10.11.2015 04:44 14,6 C 58 % 1024,9 hPa 0,0 l/m 9,8 km/h (2 Bft) S-SW 206 0 min 0,000 mm 0,0 UV-I 0 W/m 6,4 C 12,8 C 16,1 km/h (3 Bft) 100,00 %
10.11.2015 04:45 14,6 C 59 % 1024,9 hPa 0,0 l/m 10,7 km/h (2 Bft) W 274 0 min 0,000 mm 0,0 UV-I 0 W/m 6,7 C 12,4 C 19,3 km/h (3 Bft) 95,83 %
10.11.2015 04:46 14,6 C 58 % 1024,9 hPa 0,0 l/m 10,9 km/h (2 Bft) W 281 0 min 0,000 mm 0,0 UV-I 0 W/m 6,4 C 12,3 C 16,1 km/h (3 Bft) 100,00 %
10.11.2015 04:47 14,6 C 58 % 1024,9 hPa 0,0 l/m 6,4 km/h (2 Bft) W 269 0 min 0,000 mm 0,0 UV-I 0 W/m 6,4 C 14,6 C 9,7 km/h (2 Bft) 100,00 %
10.11.2015 04:48 14,6 C 58 % 1024,9 hPa 0,0 l/m 10,0 km/h (2 Bft) W-SW 255 0 min 0,000 mm 0,0 UV-I 0 W/m 6,4 C 12,7 C 14,5 km/h (3 Bft) 100,00 %
10.11.2015 04:49 14,6 C 57 % 1024,9 hPa 0,0 l/m 12,3 km/h (3 Bft) W 271 0 min 0,000 mm 0,0 UV-I 0 W/m 6,2 C 11,7 C 16,1 km/h (3 Bft) 100,00 %
10.11.2015 04:50 14,6 C 58 % 1024,9 hPa 0,0 l/m 10,2 km/h (2 Bft) W-NW 283 0 min 0,000 mm 0,0 UV-I 0 W/m 6,4 C 12,6 C 16,1 km/h (3 Bft) 100,00 %
10.11.2015 04:51 14,6 C 57 % 1024,9 hPa 0,0 l/m 10,1 km/h (2 Bft) SW 220 0 min 0,000 mm 0,0 UV-I 0 W/m 6,2 C 12,6 C 14,5 km/h (3 Bft) 100,00 %
10.11.2015 04:52 14,7 C 58 % 1024,9 hPa 0,0 l/m 7,8 km/h (2 Bft) W 271 0 min 0,000 mm 0,0 UV-I 0 W/m 6,5 C 13,9 C 12,9 km/h (3 Bft) 100,00 %
10.11.2015 04:53 14,7 C 57 % 1024,9 hPa 0,0 l/m 6,8 km/h (2 Bft) W 277 0 min 0,000 mm 0,0 UV-I 0 W/m 6,3 C 14,5 C 11,3 km/h (2 Bft) 100,00 %
10.11.2015 04:54 14,6 C 57 % 1024,9 hPa 0,0 l/m 7,0 km/h (2 Bft) NW 305 0 min 0,000 mm 0,0 UV-I 0 W/m 6,2 C 14,3 C 11,3 km/h (2 Bft) 100,00 %
10.11.2015 04:55 14,6 C 57 % 1024,8 hPa 0,0 l/m 7,1 km/h (2 Bft) NW 307 0 min 0,000 mm 0,0 UV-I 0 W/m 6,2 C 14,2 C 11,3 km/h (2 Bft) 100,00 %
10.11.2015 04:56 14,6 C 56 % 1024,9 hPa 0,0 l/m 12,1 km/h (2 Bft) W 270 0 min 0,000 mm 0,0 UV-I 0 W/m 5,9 C 11,8 C 16,1 km/h (3 Bft) 100,00 %
10.11.2015 04:57 14,6 C 56 % 1024,9 hPa 0,0 l/m 7,6 km/h (2 Bft) W 270 0 min 0,000 mm 0,0 UV-I 0 W/m 5,9 C 13,9 C 11,3 km/h (2 Bft) 100,00 %
10.11.2015 04:58 14,6 C 57 % 1024,8 hPa 0,0 l/m 10,2 km/h (2 Bft) SW 221 0 min 0,000 mm 0,0 UV-I 0 W/m 6,2 C 12,6 C 17,7 km/h (3 Bft) 100,00 %
10.11.2015 04:59 14,6 C 56 % 1024,9 hPa 0,0 l/m 10,0 km/h (2 Bft) W 273 0 min 0,000 mm 0,0 UV-I 0 W/m 5,9 C 12,7 C 16,1 km/h (3 Bft) 100,00 %
10.11.2015 05:00 14,6 C 57 % 1024,8 hPa 0,0 l/m 7,7 km/h (2 Bft) W 269 0 min 0,051 mm 0,0 UV-I 0 W/m 6,2 C 13,8 C 12,9 km/h (3 Bft) 100,00 %
10.11.2015 05:01 14,6 C 57 % 1024,8 hPa 0,0 l/m 8,5 km/h (2 Bft) W 261 0 min 0,000 mm 0,0 UV-I 0 W/m 6,2 C 13,4 C 14,5 km/h (3 Bft) 95,65 %
10.11.2015 05:02 14,6 C 57 % 1024,7 hPa 0,0 l/m 10,5 km/h (2 Bft) W 261 0 min 0,000 mm 0,0 UV-I 0 W/m 6,2 C 12,4 C 14,5 km/h (3 Bft) 100,00 %
10.11.2015 05:03 14,6 C 56 % 1024,7 hPa 0,0 l/m 10,2 km/h (2 Bft) W 279 0 min 0,000 mm 0,0 UV-I 0 W/m 5,9 C 12,6 C 20,9 km/h (4 Bft) 100,00 %
10.11.2015 05:04 14,6 C 56 % 1024,7 hPa 0,0 l/m 9,4 km/h (2 Bft) W 271 0 min 0,000 mm 0,0 UV-I 0 W/m 5,9 C 13,0 C 17,7 km/h (3 Bft) 100,00 %
10.11.2015 05:05 14,6 C 56 % 1024,7 hPa 0,0 l/m 10,7 km/h (2 Bft) SW 225 0 min 0,000 mm 0,0 UV-I 0 W/m 5,9 C 12,4 C 17,7 km/h (3 Bft) 95,65 %
10.11.2015 05:06 14,6 C 56 % 1024,7 hPa 0,0 l/m 7,4 km/h (2 Bft) W-SW 238 0 min 0,000 mm 0,0 UV-I 0 W/m 5,9 C 14,0 C 11,3 km/h (2 Bft) 100,00 %
10.11.2015 05:07 14,6 C 55 % 1024,7 hPa 0,0 l/m 10,3 km/h (2 Bft) W-SW 254 0 min 0,000 mm 0,0 UV-I 0 W/m 5,7 C 12,5 C 16,1 km/h (3 Bft) 100,00 %
10.11.2015 05:08 14,6 C 55 % 1024,7 hPa 0,0 l/m 11,8 km/h (2 Bft) W-SW 257 0 min 0,000 mm 0,0 UV-I 0 W/m 5,7 C 11,9 C 14,5 km/h (3 Bft) 100,00 %
10.11.2015 05:09 14,6 C 55 % 1024,7 hPa 0,0 l/m 11,0 km/h (2 Bft) SW 236 0 min 0,000 mm 0,0 UV-I 0 W/m 5,7 C 12,2 C 20,9 km/h (4 Bft) 100,00 %
10.11.2015 05:10 14,6 C 55 % 1024,7 hPa 0,0 l/m 11,5 km/h (2 Bft) W 263 0 min 0,000 mm 0,0 UV-I 0 W/m 5,7 C 12,0 C 16,1 km/h (3 Bft) 100,00 %
10.11.2015 05:11 14,6 C 55 % 1024,7 hPa 0,0 l/m 9,3 km/h (2 Bft) W 265 0 min 0,000 mm 0,0 UV-I 0 W/m 5,7 C 13,0 C 12,9 km/h (3 Bft) 95,65 %
10.11.2015 05:12 14,6 C 55 % 1024,6 hPa 0,0 l/m 6,2 km/h (2 Bft) W-SW 246 0 min 0,000 mm 0,0 UV-I 0 W/m 5,7 C 14,6 C 9,7 km/h (2 Bft) 100,00 %
10.11.2015 05:13 14,6 C 55 % 1024,6 hPa 0,0 l/m 7,3 km/h (2 Bft) W 265 0 min 0,000 mm 0,0 UV-I 0 W/m 5,7 C 14,1 C 11,3 km/h (2 Bft) 100,00 %
10.11.2015 05:14 14,6 C 55 % 1024,6 hPa 0,0 l/m 8,5 km/h (2 Bft) W 267 0 min 0,000 mm 0,0 UV-I 0 W/m 5,7 C 13,4 C 12,9 km/h (3 Bft) 100,00 %
10.11.2015 05:15 14,6 C 55 % 1024,6 hPa 0,0 l/m 8,7 km/h (2 Bft) W-NW 283 0 min 0,000 mm 0,0 UV-I 0 W/m 5,7 C 13,3 C 14,5 km/h (3 Bft) 100,00 %
10.11.2015 05:16 14,6 C 55 % 1024,6 hPa 0,0 l/m 7,7 km/h (2 Bft) W 280 0 min 0,000 mm 0,0 UV-I 0 W/m 5,7 C 13,8 C 11,3 km/h (2 Bft) 100,00 %
10.11.2015 05:17 14,6 C 55 % 1024,5 hPa 0,0 l/m 7,9 km/h (2 Bft) W-NW 294 0 min 0,000 mm 0,0 UV-I 0 W/m 5,7 C 13,7 C 14,5 km/h (3 Bft) 100,00 %
10.11.2015 05:18 14,6 C 55 % 1024,6 hPa 0,0 l/m 7,1 km/h (2 Bft) W 276 0 min 0,000 mm 0,0 UV-I 0 W/m 5,7 C 14,2 C 11,3 km/h (2 Bft) 100,00 %
10.11.2015 05:19 14,5 C 54 % 1024,6 hPa 0,0 l/m 9,9 km/h (2 Bft) W-SW 241 0 min 0,000 mm 0,0 UV-I 0 W/m 5,3 C 12,6 C 16,1 km/h (3 Bft) 100,00 %
10.11.2015 05:20 14,6 C 53 % 1024,5 hPa 0,0 l/m 10,6 km/h (2 Bft) W 269 0 min 0,000 mm 0,0 UV-I 0 W/m 5,1 C 12,4 C 14,5 km/h (3 Bft) 100,00 %
10.11.2015 05:21 14,5 C 53 % 1024,6 hPa 0,0 l/m 11,1 km/h (2 Bft) W-SW 241 0 min 0,000 mm 0,0 UV-I 0 W/m 5,0 C 12,1 C 14,5 km/h (3 Bft) 100,00 %
10.11.2015 05:22 14,6 C 53 % 1024,6 hPa 0,0 l/m 11,7 km/h (2 Bft) W-NW 289 0 min 0,000 mm 0,0 UV-I 0 W/m 5,1 C 11,9 C 19,3 km/h (3 Bft) 95,65 %
10.11.2015 05:23 14,6 C 52 % 1024,6 hPa 0,0 l/m 13,1 km/h (3 Bft) W-SW 250 0 min 0,000 mm 0,0 UV-I 0 W/m 4,9 C 11,4 C 17,7 km/h (3 Bft) 100,00 %
10.11.2015 05:24 14,6 C 52 % 1024,7 hPa 0,0 l/m 9,7 km/h (2 Bft) SW 234 0 min 0,000 mm 0,0 UV-I 0 W/m 4,9 C 12,8 C 16,1 km/h (3 Bft) 100,00 %
10.11.2015 05:25 14,6 C 52 % 1024,7 hPa 0,0 l/m 9,4 km/h (2 Bft) W-NW 284 0 min 0,000 mm 0,0 UV-I 0 W/m 4,9 C 13,0 C 16,1 km/h (3 Bft) 100,00 %
10.11.2015 05:26 14,6 C 52 % 1024,7 hPa 0,0 l/m 13,1 km/h (3 Bft) W-SW 257 0 min 0,000 mm 0,0 UV-I 0 W/m 4,9 C 11,4 C 20,9 km/h (4 Bft) 95,65 %
10.11.2015 05:27 14,6 C 52 % 1024,7 hPa 0,0 l/m 6,5 km/h (2 Bft) W-SW 250 0 min 0,000 mm 0,0 UV-I 0 W/m 4,9 C 14,6 C 11,3 km/h (2 Bft) 100,00 %
10.11.2015 05:28 14,7 C 52 % 1024,7 hPa 0,0 l/m 8,0 km/h (2 Bft) SW 229 0 min 0,000 mm 0,0 UV-I 0 W/m 5,0 C 13,8 C 14,5 km/h (3 Bft) 100,00 %
10.11.2015 05:29 14,7 C 52 % 1024,7 hPa 0,0 l/m 10,3 km/h (2 Bft) W-SW 256 0 min 0,000 mm 0,0 UV-I 0 W/m 5,0 C 12,6 C 14,5 km/h (3 Bft) 100,00 %
10.11.2015 05:30 14,7 C 52 % 1024,7 hPa 0,0 l/m 15,6 km/h (3 Bft) W-SW 251 0 min 0,000 mm 0,0 UV-I 0 W/m 5,0 C 10,6 C 24,1 km/h (4 Bft) 100,00 %
10.11.2015 05:31 14,7 C 52 % 1024,7 hPa 0,0 l/m 14,2 km/h (3 Bft) W 274 0 min 0,000 mm 0,0 UV-I 0 W/m 5,0 C 11,1 C 20,9 km/h (4 Bft) 100,00 %
10.11.2015 05:32 14,7 C 52 % 1024,5 hPa 0,0 l/m 12,7 km/h (3 Bft) W 265 0 min 0,000 mm 0,0 UV-I 0 W/m 5,0 C 11,7 C 17,7 km/h (3 Bft) 95,65 %
10.11.2015 05:33 14,7 C 52 % 1024,5 hPa 0,0 l/m 12,4 km/h (3 Bft) SW 228 0 min 0,000 mm 0,0 UV-I 0 W/m 5,0 C 11,8 C 19,3 km/h (3 Bft) 100,00 %
10.11.2015 05:34 14,7 C 52 % 1024,5 hPa 0,0 l/m 8,5 km/h (2 Bft) NW 306 0 min 0,000 mm 0,0 UV-I 0 W/m 5,0 C 13,5 C 12,9 km/h (3 Bft) 95,83 %
10.11.2015 05:35 14,7 C 52 % 1024,5 hPa 0,0 l/m 10,8 km/h (2 Bft) W-SW 258 0 min 0,000 mm 0,0 UV-I 0 W/m 5,0 C 12,4 C 14,5 km/h (3 Bft) 100,00 %
10.11.2015 05:36 14,7 C 52 % 1024,5 hPa 0,0 l/m 9,4 km/h (2 Bft) W-NW 296 0 min 0,000 mm 0,0 UV-I 0 W/m 5,0 C 13,1 C 11,3 km/h (2 Bft) 100,00 %
10.11.2015 05:37 14,7 C 53 % 1024,5 hPa 0,0 l/m 10,5 km/h (2 Bft) SW 223 0 min 0,000 mm 0,0 UV-I 0 W/m 5,2 C 12,6 C 14,5 km/h (3 Bft) 96,15 %
10.11.2015 05:38 14,7 C 52 % 1024,5 hPa 0,0 l/m 10,0 km/h (2 Bft) W 265 0 min 0,000 mm 0,0 UV-I 0 W/m 5,0 C 12,8 C 17,7 km/h (3 Bft) 100,00 %
10.11.2015 05:39 14,7 C 52 % 1024,6 hPa 0,0 l/m 9,7 km/h (2 Bft) W 280 0 min 0,000 mm 0,0 UV-I 0 W/m 5,0 C 12,9 C 12,9 km/h (3 Bft) 100,00 %
10.11.2015 05:40 14,7 C 53 % 1024,6 hPa 0,0 l/m 7,5 km/h (2 Bft) W-SW 247 0 min 0,000 mm 0,0 UV-I 0 W/m 5,2 C 14,1 C 11,3 km/h (2 Bft) 100,00 %
10.11.2015 05:41 14,6 C 53 % 1024,6 hPa 0,0 l/m 7,3 km/h (2 Bft) W 259 0 min 0,000 mm 0,0 UV-I 0 W/m 5,1 C 14,1 C 12,9 km/h (3 Bft) 100,00 %
10.11.2015 05:42 14,6 C 52 % 1024,6 hPa 0,0 l/m 10,8 km/h (2 Bft) W 279 0 min 0,000 mm 0,0 UV-I 0 W/m 4,9 C 12,3 C 14,5 km/h (3 Bft) 95,83 %
10.11.2015 05:43 14,6 C 52 % 1024,7 hPa 0,0 l/m 10,1 km/h (2 Bft) W-NW 287 0 min 0,000 mm 0,0 UV-I 0 W/m 4,9 C 12,6 C 14,5 km/h (3 Bft) 95,65 %
10.11.2015 05:44 14,6 C 53 % 1024,7 hPa 0,0 l/m 9,5 km/h (2 Bft) W 272 0 min 0,000 mm 0,0 UV-I 0 W/m 5,1 C 12,9 C 16,1 km/h (3 Bft) 95,83 %
10.11.2015 05:45 14,6 C 53 % 1024,7 hPa 0,0 l/m 8,0 km/h (2 Bft) W 270 0 min 0,000 mm 0,0 UV-I 0 W/m 5,1 C 13,7 C 16,1 km/h (3 Bft) 95,65 %
10.11.2015 05:46 14,6 C 52 % 1024,8 hPa 0,0 l/m 9,5 km/h (2 Bft) W-NW 282 0 min 0,000 mm 0,0 UV-I 0 W/m 4,9 C 12,9 C 14,5 km/h (3 Bft) 100,00 %
10.11.2015 05:47 14,6 C 53 % 1024,8 hPa 0,0 l/m 7,0 km/h (2 Bft) W-NW 301 0 min 0,000 mm 0,0 UV-I 0 W/m 5,1 C 14,3 C 12,9 km/h (3 Bft) 95,65 %
10.11.2015 05:48 14,6 C 52 % 1024,8 hPa 0,0 l/m 10,4 km/h (2 Bft) W-NW 293 0 min 0,000 mm 0,0 UV-I 0 W/m 4,9 C 12,5 C 14,5 km/h (3 Bft) 95,83 %
10.11.2015 05:49 14,6 C 52 % 1024,9 hPa 0,0 l/m 10,4 km/h (2 Bft) W-SW 255 0 min 0,000 mm 0,0 UV-I 0 W/m 4,9 C 12,5 C 16,1 km/h (3 Bft) 100,00 %
10.11.2015 05:50 14,6 C 52 % 1024,9 hPa 0,0 l/m 10,9 km/h (2 Bft) W-SW 257 0 min 0,000 mm 0,0 UV-I 0 W/m 4,9 C 12,3 C 16,1 km/h (3 Bft) 100,00 %
10.11.2015 05:51 14,6 C 52 % 1024,9 hPa 0,0 l/m 7,9 km/h (2 Bft) W 270 0 min 0,000 mm 0,0 UV-I 0 W/m 4,9 C 13,7 C 14,5 km/h (3 Bft) 100,00 %
10.11.2015 05:52 14,6 C 52 % 1024,9 hPa 0,0 l/m 7,7 km/h (2 Bft) W 265 0 min 0,000 mm 0,0 UV-I 0 W/m 4,9 C 13,8 C 11,3 km/h (2 Bft) 100,00 %
10.11.2015 05:53 14,6 C 53 % 1024,9 hPa 0,0 l/m 6,5 km/h (2 Bft) SW 234 0 min 0,000 mm 0,0 UV-I 0 W/m 5,1 C 14,6 C 9,7 km/h (2 Bft) 100,00 %
10.11.2015 05:54 14,6 C 53 % 1024,8 hPa 0,0 l/m 8,8 km/h (2 Bft) W 263 0 min 0,000 mm 0,0 UV-I 0 W/m 5,1 C 13,3 C 14,5 km/h (3 Bft) 100,00 %
10.11.2015 05:55 14,5 C 53 % 1024,8 hPa 0,0 l/m 8,6 km/h (2 Bft) W 277 0 min 0,000 mm 0,0 UV-I 0 W/m 5,0 C 13,3 C 12,9 km/h (3 Bft) 100,00 %
10.11.2015 05:56 14,5 C 53 % 1024,7 hPa 0,0 l/m 10,1 km/h (2 Bft) W 263 0 min 0,000 mm 0,0 UV-I 0 W/m 5,0 C 12,5 C 12,9 km/h (3 Bft) 100,00 %
10.11.2015 05:57 14,5 C 53 % 1024,7 hPa 0,0 l/m 10,7 km/h (2 Bft) W 271 0 min 0,000 mm 0,0 UV-I 0 W/m 5,0 C 12,2 C 12,9 km/h (3 Bft) 95,83 %
10.11.2015 05:58 14,5 C 53 % 1024,7 hPa 0,0 l/m 10,3 km/h (2 Bft) W 263 0 min 0,000 mm 0,0 UV-I 0 W/m 5,0 C 12,4 C 14,5 km/h (3 Bft) 100,00 %
10.11.2015 05:59 14,5 C 53 % 1024,7 hPa 0,0 l/m 10,6 km/h (2 Bft) W 280 0 min 0,000 mm 0,0 UV-I 0 W/m 5,0 C 12,3 C 16,1 km/h (3 Bft) 100,00 %
10.11.2015 06:00 14,5 C 53 % 1024,6 hPa 0,0 l/m 10,3 km/h (2 Bft) W 266 0 min 0,000 mm 0,0 UV-I 0 W/m 5,0 C 12,4 C 16,1 km/h (3 Bft) 100,00 %
10.11.2015 06:01 14,5 C 53 % 1024,7 hPa 0,0 l/m 8,1 km/h (2 Bft) W-NW 288 0 min 0,051 mm 0,0 UV-I 0 W/m 5,0 C 13,5 C 12,9 km/h (3 Bft) 100,00 %
10.11.2015 06:02 14,4 C 53 % 1024,6 hPa 0,0 l/m 11,3 km/h (2 Bft) W 259 0 min 0,000 mm 0,0 UV-I 0 W/m 4,9 C 11,9 C 16,1 km/h (3 Bft) 100,00 %
10.11.2015 06:03 14,4 C 53 % 1024,7 hPa 0,0 l/m 11,5 km/h (2 Bft) W 265 0 min 0,000 mm 0,0 UV-I 0 W/m 4,9 C 11,8 C 17,7 km/h (3 Bft) 100,00 %
10.11.2015 06:04 14,4 C 54 % 1024,7 hPa 0,0 l/m 8,2 km/h (2 Bft) W 270 0 min 0,000 mm 0,0 UV-I 0 W/m 5,2 C 13,4 C 11,3 km/h (2 Bft) 100,00 %
10.11.2015 06:05 14,4 C 54 % 1024,7 hPa 0,0 l/m 8,6 km/h (2 Bft) W 265 0 min 0,000 mm 0,0 UV-I 0 W/m 5,2 C 13,1 C 14,5 km/h (3 Bft) 100,00 %
10.11.2015 06:06 14,4 C 55 % 1024,7 hPa 0,0 l/m 7,8 km/h (2 Bft) W 265 0 min 0,000 mm 0,0 UV-I 0 W/m 5,5 C 13,6 C 12,9 km/h (3 Bft) 100,00 %
10.11.2015 06:07 14,3 C 54 % 1024,7 hPa 0,0 l/m 7,2 km/h (2 Bft) W 262 0 min 0,000 mm 0,0 UV-I 0 W/m 5,1 C 13,8 C 9,7 km/h (2 Bft) 100,00 %
10.11.2015 06:08 14,3 C 55 % 1024,6 hPa 0,0 l/m 5,6 km/h (1 Bft) W-NW 297 0 min 0,000 mm 0,0 UV-I 0 W/m 5,4 C 14,3 C 6,4 km/h (2 Bft) 100,00 %
10.11.2015 06:09 14,2 C 55 % 1024,6 hPa 0,0 l/m 4,3 km/h (1 Bft) W 272 0 min 0,000 mm 0,0 UV-I 0 W/m 5,3 C 14,2 C 6,4 km/h (2 Bft) 100,00 %
10.11.2015 06:10 14,2 C 56 % 1024,6 hPa 0,0 l/m 6,2 km/h (2 Bft) W-NW 282 0 min 0,000 mm 0,0 UV-I 0 W/m 5,6 C 14,2 C 9,7 km/h (2 Bft) 100,00 %
10.11.2015 06:11 14,1 C 56 % 1024,6 hPa 0,0 l/m 5,9 km/h (2 Bft) W 270 0 min 0,000 mm 0,0 UV-I 0 W/m 5,5 C 14,1 C 9,7 km/h (2 Bft) 95,83 %
10.11.2015 06:12 14,1 C 55 % 1024,6 hPa 0,0 l/m 7,4 km/h (2 Bft) W-NW 290 0 min 0,000 mm 0,0 UV-I 0 W/m 5,2 C 13,5 C 12,9 km/h (3 Bft) 100,00 %
10.11.2015 06:13 14,1 C 55 % 1024,5 hPa 0,0 l/m 7,6 km/h (2 Bft) W-NW 295 0 min 0,000 mm 0,0 UV-I 0 W/m 5,2 C 13,4 C 11,3 km/h (2 Bft) 100,00 %
10.11.2015 06:14 14,1 C 56 % 1024,5 hPa 0,0 l/m 7,4 km/h (2 Bft) W 261 0 min 0,000 mm 0,0 UV-I 0 W/m 5,5 C 13,5 C 12,9 km/h (3 Bft) 100,00 %
10.11.2015 06:15 14,1 C 55 % 1024,4 hPa 0,0 l/m 6,0 km/h (2 Bft) W 271 0 min 0,000 mm 0,0 UV-I 0 W/m 5,2 C 14,1 C 9,7 km/h (2 Bft) 100,00 %
10.11.2015 06:16 14,0 C 56 % 1024,4 hPa 0,0 l/m 7,8 km/h (2 Bft) W 261 0 min 0,000 mm 0,0 UV-I 0 W/m 5,4 C 13,2 C 12,9 km/h (3 Bft) 100,00 %
10.11.2015 06:17 14,0 C 57 % 1024,4 hPa 0,0 l/m 6,4 km/h (2 Bft) W 274 0 min 0,000 mm 0,0 UV-I 0 W/m 5,6 C 14,0 C 12,9 km/h (3 Bft) 96,00 %
10.11.2015 06:18 13,9 C 56 % 1024,5 hPa 0,0 l/m 6,3 km/h (2 Bft) W 281 0 min 0,000 mm 0,0 UV-I 0 W/m 5,3 C 13,9 C 9,7 km/h (2 Bft) 100,00 %
10.11.2015 06:19 13,9 C 56 % 1024,5 hPa 0,0 l/m 6,9 km/h (2 Bft) W-SW 246 0 min 0,000 mm 0,0 UV-I 0 W/m 5,3 C 13,6 C 12,9 km/h (3 Bft) 95,65 %
10.11.2015 06:20 13,9 C 56 % 1024,5 hPa 0,0 l/m 6,0 km/h (2 Bft) W 273 0 min 0,000 mm 0,0 UV-I 0 W/m 5,3 C 13,9 C 12,9 km/h (3 Bft) 100,00 %
10.11.2015 06:21 13,8 C 57 % 1024,5 hPa 0,0 l/m 5,1 km/h (1 Bft) W-NW 292 0 min 0,000 mm 0,0 UV-I 0 W/m 5,4 C 13,8 C 11,3 km/h (2 Bft) 95,65 %
10.11.2015 06:22 13,8 C 57 % 1024,6 hPa 0,0 l/m 4,8 km/h (1 Bft) W 275 0 min 0,000 mm 0,0 UV-I 0 W/m 5,4 C 13,8 C 6,4 km/h (2 Bft) 100,00 %
10.11.2015 06:23 13,8 C 58 % 1024,5 hPa 0,0 l/m 4,4 km/h (1 Bft) W-NW 290 0 min 0,000 mm 0,0 UV-I 0 W/m 5,7 C 13,8 C 6,4 km/h (2 Bft) 100,00 %
10.11.2015 06:24 13,7 C 57 % 1024,5 hPa 0,0 l/m 3,6 km/h (1 Bft) W-NW 282 0 min 0,000 mm 0,0 UV-I 0 W/m 5,3 C 13,7 C 4,8 km/h (1 Bft) 100,00 %
10.11.2015 06:25 13,7 C 57 % 1024,4 hPa 0,0 l/m 4,8 km/h (1 Bft) W 261 0 min 0,000 mm 0,0 UV-I 0 W/m 5,3 C 13,7 C 6,4 km/h (2 Bft) 100,00 %
10.11.2015 06:26 13,7 C 58 % 1024,4 hPa 0,0 l/m 4,3 km/h (1 Bft) W 276 0 min 0,000 mm 0,0 UV-I 0 W/m 5,6 C 13,7 C 6,4 km/h (2 Bft) 100,00 %
10.11.2015 06:27 13,6 C 57 % 1024,4 hPa 0,0 l/m 5,7 km/h (1 Bft) W 271 0 min 0,000 mm 0,0 UV-I 0 W/m 5,2 C 13,6 C 9,7 km/h (2 Bft) 100,00 %
10.11.2015 06:28 13,7 C 57 % 1024,4 hPa 0,0 l/m 6,6 km/h (2 Bft) W 265 0 min 0,000 mm 0,0 UV-I 0 W/m 5,3 C 13,6 C 11,3 km/h (2 Bft) 100,00 %
10.11.2015 06:29 13,7 C 57 % 1024,4 hPa 0,0 l/m 4,1 km/h (1 Bft) W-NW 289 0 min 0,000 mm 0,0 UV-I 0 W/m 5,3 C 13,7 C 9,7 km/h (2 Bft) 95,65 %
10.11.2015 06:30 13,7 C 58 % 1024,5 hPa 0,0 l/m 3,3 km/h (1 Bft) W-NW 287 0 min 0,000 mm 0,0 UV-I 0 W/m 5,6 C 13,7 C 4,8 km/h (1 Bft) 95,83 %
10.11.2015 06:31 13,6 C 58 % 1024,5 hPa 0,0 l/m 2,9 km/h (1 Bft) W-NW 286 0 min 0,000 mm 0,0 UV-I 0 W/m 5,5 C 13,6 C 3,2 km/h (1 Bft) 100,00 %
10.11.2015 06:32 13,6 C 58 % 1024,5 hPa 0,0 l/m 3,9 km/h (1 Bft) W 266 0 min 0,000 mm 0,0 UV-I 0 W/m 5,5 C 13,6 C 4,8 km/h (1 Bft) 100,00 %
10.11.2015 06:33 13,5 C 58 % 1024,4 hPa 0,0 l/m 3,3 km/h (1 Bft) W 269 0 min 0,000 mm 0,0 UV-I 0 W/m 5,4 C 13,5 C 4,8 km/h (1 Bft) 100,00 %
10.11.2015 06:34 13,5 C 58 % 1024,4 hPa 0,0 l/m 4,3 km/h (1 Bft) W 269 0 min 0,000 mm 0,0 UV-I 0 W/m 5,4 C 13,5 C 6,4 km/h (2 Bft) 95,65 %
10.11.2015 06:35 13,4 C 59 % 1024,5 hPa 0,0 l/m 2,8 km/h (1 Bft) W 271 0 min 0,000 mm 0,0 UV-I 0 W/m 5,6 C 13,4 C 4,8 km/h (1 Bft) 96,15 %
10.11.2015 06:36 13,4 C 59 % 1024,5 hPa 0,0 l/m 2,7 km/h (1 Bft) W 271 0 min 0,000 mm 0,0 UV-I 0 W/m 5,6 C 13,4 C 4,8 km/h (1 Bft) 100,00 %
10.11.2015 06:37 13,3 C 59 % 1024,5 hPa 0,0 l/m 2,4 km/h (1 Bft) W 275 0 min 0,000 mm 0,0 UV-I 0 W/m 5,5 C 13,3 C 3,2 km/h (1 Bft) 100,00 %
10.11.2015 06:38 13,3 C 60 % 1024,5 hPa 0,0 l/m 4,0 km/h (1 Bft) W 273 0 min 0,000 mm 0,0 UV-I 0 W/m 5,7 C 13,3 C 9,7 km/h (2 Bft) 100,00 %
10.11.2015 06:39 13,3 C 59 % 1024,6 hPa 0,0 l/m 5,7 km/h (1 Bft) W 262 0 min 0,000 mm 0,0 UV-I 0 W/m 5,5 C 13,3 C 11,3 km/h (2 Bft) 100,00 %
10.11.2015 06:40 13,3 C 59 % 1024,5 hPa 0,0 l/m 3,8 km/h (1 Bft) W 267 0 min 0,000 mm 0,0 UV-I 0 W/m 5,5 C 13,3 C 4,8 km/h (1 Bft) 100,00 %
10.11.2015 06:41 13,3 C 59 % 1024,5 hPa 0,0 l/m 2,7 km/h (1 Bft) W 266 0 min 0,000 mm 0,0 UV-I 0 W/m 5,5 C 13,3 C 4,8 km/h (1 Bft) 100,00 %
10.11.2015 06:42 13,3 C 59 % 1024,5 hPa 0,0 l/m 4,2 km/h (1 Bft) W 263 0 min 0,000 mm 0,0 UV-I 0 W/m 5,5 C 13,3 C 9,7 km/h (2 Bft) 95,65 %
10.11.2015 06:43 13,3 C 59 % 1024,5 hPa 0,0 l/m 3,9 km/h (1 Bft) W 271 0 min 0,000 mm 0,0 UV-I 0 W/m 5,5 C 13,3 C 4,8 km/h (1 Bft) 100,00 %
10.11.2015 06:44 13,3 C 59 % 1024,5 hPa 0,0 l/m 5,8 km/h (2 Bft) W-NW 286 0 min 0,000 mm 0,0 UV-I 0 W/m 5,5 C 13,3 C 9,7 km/h (2 Bft) 100,00 %
10.11.2015 06:45 13,3 C 58 % 1024,4 hPa 0,0 l/m 5,5 km/h (1 Bft) W 277 0 min 0,000 mm 0,0 UV-I 0 W/m 5,2 C 13,3 C 9,7 km/h (2 Bft) 100,00 %
10.11.2015 06:46 13,3 C 58 % 1024,4 hPa 0,0 l/m 5,9 km/h (2 Bft) W 269 0 min 0,000 mm 0,0 UV-I 0 W/m 5,2 C 13,3 C 9,7 km/h (2 Bft) 100,00 %
10.11.2015 06:47 13,3 C 59 % 1024,4 hPa 0,0 l/m 5,0 km/h (1 Bft) W 266 0 min 0,000 mm 0,0 UV-I 0 W/m 5,5 C 13,3 C 9,7 km/h (2 Bft) 100,00 %
10.11.2015 06:48 13,3 C 60 % 1024,4 hPa 0,0 l/m 3,1 km/h (1 Bft) W 276 0 min 0,000 mm 0,0 UV-I 0 W/m 5,7 C 13,3 C 4,8 km/h (1 Bft) 100,00 %
10.11.2015 06:49 13,3 C 59 % 1024,5 hPa 0,0 l/m 3,8 km/h (1 Bft) W 277 0 min 0,000 mm 0,0 UV-I 0 W/m 5,5 C 13,3 C 6,4 km/h (2 Bft) 100,00 %
10.11.2015 06:50 13,2 C 60 % 1024,5 hPa 0,0 l/m 2,5 km/h (1 Bft) W 267 0 min 0,000 mm 0,0 UV-I 0 W/m 5,6 C 13,2 C 4,8 km/h (1 Bft) 95,83 %
10.11.2015 06:51 13,2 C 60 % 1024,4 hPa 0,0 l/m 2,6 km/h (1 Bft) W 273 0 min 0,000 mm 0,0 UV-I 0 W/m 5,6 C 13,2 C 4,8 km/h (1 Bft) 100,00 %
10.11.2015 06:52 13,1 C 61 % 1024,4 hPa 0,0 l/m 3,4 km/h (1 Bft) W 271 0 min 0,000 mm 0,0 UV-I 0 W/m 5,8 C 13,1 C 4,8 km/h (1 Bft) 100,00 %
10.11.2015 06:53 13,1 C 61 % 1024,5 hPa 0,0 l/m 3,3 km/h (1 Bft) W 281 0 min 0,000 mm 0,0 UV-I 0 W/m 5,8 C 13,1 C 6,4 km/h (2 Bft) 100,00 %
10.11.2015 06:54 13,0 C 61 % 1024,5 hPa 0,0 l/m 2,3 km/h (1 Bft) W 275 0 min 0,000 mm 0,0 UV-I 0 W/m 5,7 C 13,0 C 4,8 km/h (1 Bft) 100,00 %
10.11.2015 06:55 12,9 C 61 % 1024,4 hPa 0,0 l/m 4,4 km/h (1 Bft) W 271 0 min 0,000 mm 0,0 UV-I 0 W/m 5,6 C 12,9 C 6,4 km/h (2 Bft) 100,00 %
10.11.2015 06:56 12,9 C 61 % 1024,4 hPa 0,0 l/m 2,9 km/h (1 Bft) W 267 0 min 0,000 mm 0,0 UV-I 0 W/m 5,6 C 12,9 C 4,8 km/h (1 Bft) 100,00 %
10.11.2015 06:57 12,9 C 61 % 1024,4 hPa 0,0 l/m 6,7 km/h (2 Bft) W-NW 285 0 min 0,000 mm 0,0 UV-I 0 W/m 5,6 C 12,7 C 9,7 km/h (2 Bft) 100,00 %
10.11.2015 06:58 13,0 C 61 % 1024,4 hPa 0,0 l/m 5,1 km/h (1 Bft) W-NW 283 0 min 0,000 mm 0,0 UV-I 3 W/m 5,7 C 13,0 C 6,4 km/h (2 Bft) 100,00 %
10.11.2015 06:59 13,0 C 61 % 1024,4 hPa 0,0 l/m 5,2 km/h (1 Bft) W 277 0 min 0,000 mm 0,0 UV-I 5 W/m 5,7 C 13,0 C 9,7 km/h (2 Bft) 100,00 %
10.11.2015 07:00 13,0 C 61 % 1024,4 hPa 0,0 l/m 4,8 km/h (1 Bft) W 269 0 min 0,025 mm 0,0 UV-I 5 W/m 5,7 C 13,0 C 6,4 km/h (2 Bft) 100,00 %
10.11.2015 07:01 13,0 C 62 % 1024,4 hPa 0,0 l/m 6,0 km/h (2 Bft) W 266 0 min 0,000 mm 0,0 UV-I 0 W/m 5,9 C 13,0 C 9,7 km/h (2 Bft) 100,00 %
10.11.2015 07:02 13,0 C 61 % 1024,4 hPa 0,0 l/m 5,2 km/h (1 Bft) W 267 0 min 0,000 mm 0,0 UV-I 0 W/m 5,7 C 13,0 C 6,4 km/h (2 Bft) 100,00 %
10.11.2015 07:03 13,0 C 62 % 1024,4 hPa 0,0 l/m 5,6 km/h (1 Bft) W 263 0 min 0,000 mm 0,0 UV-I 2 W/m 5,9 C 13,0 C 6,4 km/h (2 Bft) 100,00 %
10.11.2015 07:04 13,1 C 62 % 1024,4 hPa 0,0 l/m 5,0 km/h (1 Bft) W 261 0 min 0,000 mm 0,0 UV-I 5 W/m 6,0 C 13,1 C 6,4 km/h (2 Bft) 100,00 %
10.11.2015 07:05 13,1 C 62 % 1024,4 hPa 0,0 l/m 4,3 km/h (1 Bft) W-NW 288 0 min 0,000 mm 0,0 UV-I 5 W/m 6,0 C 13,1 C 6,4 km/h (2 Bft) 100,00 %
10.11.2015 07:06 13,0 C 62 % 1024,5 hPa 0,0 l/m 5,6 km/h (1 Bft) W 268 0 min 0,000 mm 0,0 UV-I 5 W/m 5,9 C 13,0 C 11,3 km/h (2 Bft) 96,15 %
10.11.2015 07:07 13,0 C 62 % 1024,6 hPa 0,0 l/m 4,6 km/h (1 Bft) W 274 0 min 0,000 mm 0,0 UV-I 5 W/m 5,9 C 13,0 C 9,7 km/h (2 Bft) 100,00 %
10.11.2015 07:08 12,9 C 63 % 1024,5 hPa 0,0 l/m 3,1 km/h (1 Bft) W 272 0 min 0,000 mm 0,0 UV-I 5 W/m 6,0 C 12,9 C 4,8 km/h (1 Bft) 100,00 %
10.11.2015 07:09 12,9 C 63 % 1024,6 hPa 0,0 l/m 3,8 km/h (1 Bft) W 269 0 min 0,000 mm 0,0 UV-I 6 W/m 6,0 C 12,9 C 4,8 km/h (1 Bft) 100,00 %
10.11.2015 07:10 12,9 C 63 % 1024,5 hPa 0,0 l/m 5,1 km/h (1 Bft) W 273 0 min 0,000 mm 0,0 UV-I 7 W/m 6,0 C 12,9 C 6,4 km/h (2 Bft) 100,00 %
10.11.2015 07:11 12,9 C 63 % 1024,6 hPa 0,0 l/m 6,5 km/h (2 Bft) W 264 0 min 0,000 mm 0,0 UV-I 7 W/m 6,0 C 12,9 C 9,7 km/h (2 Bft) 100,00 %
10.11.2015 07:12 12,9 C 63 % 1024,6 hPa 0,0 l/m 5,8 km/h (2 Bft) W 266 0 min 0,000 mm 0,0 UV-I 7 W/m 6,0 C 12,9 C 6,4 km/h (2 Bft) 100,00 %
10.11.2015 07:13 12,9 C 63 % 1024,5 hPa 0,0 l/m 5,4 km/h (1 Bft) W 274 0 min 0,000 mm 0,0 UV-I 10 W/m 6,0 C 12,9 C 6,4 km/h (2 Bft) 100,00 %
10.11.2015 07:14 12,9 C 63 % 1024,6 hPa 0,0 l/m 4,8 km/h (1 Bft) W 273 1 min 0,000 mm 0,0 UV-I 11 W/m 6,0 C 12,9 C 6,4 km/h (2 Bft) 100,00 %
10.11.2015 07:15 12,9 C 63 % 1024,6 hPa 0,0 l/m 6,4 km/h (2 Bft) W 281 1 min 0,000 mm 0,0 UV-I 12 W/m 6,0 C 12,9 C 11,3 km/h (2 Bft) 100,00 %
10.11.2015 07:16 12,9 C 63 % 1024,6 hPa 0,0 l/m 4,6 km/h (1 Bft) W-NW 298 0 min 0,000 mm 0,0 UV-I 12 W/m 6,0 C 12,9 C 6,4 km/h (2 Bft) 100,00 %
10.11.2015 07:17 12,9 C 64 % 1024,5 hPa 0,0 l/m 5,0 km/h (1 Bft) W 280 0 min 0,000 mm 0,0 UV-I 12 W/m 6,3 C 12,9 C 6,4 km/h (2 Bft) 100,00 %
10.11.2015 07:18 12,9 C 64 % 1024,5 hPa 0,0 l/m 4,6 km/h (1 Bft) W 281 0 min 0,000 mm 0,0 UV-I 12 W/m 6,3 C 12,9 C 6,4 km/h (2 Bft) 100,00 %
10.11.2015 07:19 12,9 C 64 % 1024,5 hPa 0,0 l/m 4,0 km/h (1 Bft) W-NW 289 0 min 0,000 mm 0,0 UV-I 14 W/m 6,3 C 12,9 C 6,4 km/h (2 Bft) 100,00 %
10.11.2015 07:20 12,9 C 64 % 1024,5 hPa 0,0 l/m 5,6 km/h (1 Bft) W-NW 286 0 min 0,000 mm 0,0 UV-I 14 W/m 6,3 C 12,9 C 6,4 km/h (2 Bft) 91,30 %
10.11.2015 07:21 13,0 C 64 % 1024,5 hPa 0,0 l/m 3,6 km/h (1 Bft) W-NW 283 0 min 0,000 mm 0,0 UV-I 14 W/m 6,4 C 13,0 C 6,4 km/h (2 Bft) 100,00 %
10.11.2015 07:22 13,1 C 64 % 1024,5 hPa 0,0 l/m 5,2 km/h (1 Bft) W-NW 290 0 min 0,000 mm 0,0 UV-I 14 W/m 6,4 C 13,1 C 8,0 km/h (2 Bft) 100,00 %
10.11.2015 07:23 13,0 C 64 % 1024,6 hPa 0,0 l/m 4,2 km/h (1 Bft) W 261 0 min 0,000 mm 0,0 UV-I 14 W/m 6,4 C 13,0 C 6,4 km/h (2 Bft) 100,00 %
10.11.2015 07:24 13,0 C 64 % 1024,6 hPa 0,0 l/m 2,1 km/h (1 Bft) W 267 0 min 0,000 mm 0,0 UV-I 16 W/m 6,4 C 13,0 C 3,2 km/h (1 Bft) 100,00 %
10.11.2015 07:25 12,9 C 64 % 1024,6 hPa 0,0 l/m 2,0 km/h (1 Bft) W 273 0 min 0,000 mm 0,0 UV-I 16 W/m 6,3 C 12,9 C 3,2 km/h (1 Bft) 100,00 %
10.11.2015 07:26 12,9 C 65 % 1024,6 hPa 0,0 l/m 2,7 km/h (1 Bft) W-NW 284 0 min 0,000 mm 0,0 UV-I 16 W/m 6,5 C 12,9 C 4,8 km/h (1 Bft) 100,00 %
10.11.2015 07:27 12,8 C 65 % 1024,6 hPa 0,0 l/m 3,0 km/h (1 Bft) W-NW 300 0 min 0,000 mm 0,0 UV-I 17 W/m 6,4 C 12,8 C 4,8 km/h (1 Bft) 95,65 %
10.11.2015 07:28 12,8 C 65 % 1024,6 hPa 0,0 l/m 3,2 km/h (1 Bft) W 281 0 min 0,000 mm 0,0 UV-I 18 W/m 6,4 C 12,8 C 4,8 km/h (1 Bft) 100,00 %
10.11.2015 07:29 12,8 C 65 % 1024,7 hPa 0,0 l/m 1,7 km/h (1 Bft) W 281 0 min 0,000 mm 0,0 UV-I 18 W/m 6,4 C 12,8 C 3,2 km/h (1 Bft) 95,65 %
10.11.2015 07:30 12,8 C 65 % 1024,7 hPa 0,0 l/m 2,9 km/h (1 Bft) W-NW 290 0 min 0,000 mm 0,0 UV-I 19 W/m 6,4 C 12,8 C 6,4 km/h (2 Bft) 100,00 %
10.11.2015 07:31 12,8 C 65 % 1024,6 hPa 0,0 l/m 1,0 km/h (0 Bft) W-NW 290 0 min 0,000 mm 0,0 UV-I 19 W/m 6,4 C 12,8 C 3,2 km/h (1 Bft) 100,00 %
10.11.2015 07:32 12,8 C 65 % 1024,7 hPa 0,0 l/m 0,3 km/h (0 Bft) W-NW 290 0 min 0,000 mm 0,0 UV-I 20 W/m 6,4 C 12,8 C 1,6 km/h (1 Bft) 100,00 %
10.11.2015 07:33 12,8 C 65 % 1024,6 hPa 0,0 l/m 0,6 km/h (0 Bft) W-NW 290 0 min 0,000 mm 0,0 UV-I 21 W/m 6,4 C 12,8 C 1,6 km/h (1 Bft) 100,00 %
10.11.2015 07:34 12,8 C 66 % 1024,7 hPa 0,0 l/m 1,1 km/h (1 Bft) W-NW 296 0 min 0,000 mm 0,0 UV-I 23 W/m 6,6 C 12,8 C 3,2 km/h (1 Bft) 100,00 %
10.11.2015 07:35 12,8 C 66 % 1024,7 hPa 0,0 l/m 1,1 km/h (1 Bft) W-NW 296 0 min 0,000 mm 0,0 UV-I 23 W/m 6,6 C 12,8 C 3,2 km/h (1 Bft) 100,00 %
10.11.2015 07:36 12,7 C 66 % 1024,7 hPa 0,0 l/m 1,9 km/h (1 Bft) W-NW 296 0 min 0,000 mm 0,0 UV-I 25 W/m 6,5 C 12,7 C 3,2 km/h (1 Bft) 100,00 %
10.11.2015 07:37 12,8 C 66 % 1024,7 hPa 0,0 l/m 1,1 km/h (1 Bft) W-NW 296 0 min 0,000 mm 0,0 UV-I 25 W/m 6,6 C 12,8 C 3,2 km/h (1 Bft) 95,65 %
10.11.2015 07:38 12,8 C 67 % 1024,8 hPa 0,0 l/m 1,2 km/h (1 Bft) W-NW 296 0 min 0,000 mm 0,0 UV-I 26 W/m 6,8 C 12,8 C 1,6 km/h (1 Bft) 100,00 %
10.11.2015 07:39 12,7 C 67 % 1024,7 hPa 0,0 l/m 2,7 km/h (1 Bft) W-NW 286 0 min 0,000 mm 0,0 UV-I 27 W/m 6,7 C 12,7 C 4,8 km/h (1 Bft) 100,00 %
10.11.2015 07:40 12,7 C 67 % 1024,7 hPa 0,0 l/m 1,5 km/h (1 Bft) W-NW 286 0 min 0,000 mm 0,0 UV-I 30 W/m 6,7 C 12,7 C 3,2 km/h (1 Bft) 100,00 %
10.11.2015 07:41 12,7 C 67 % 1024,8 hPa 0,0 l/m 1,5 km/h (1 Bft) W-NW 286 0 min 0,000 mm 0,0 UV-I 30 W/m 6,7 C 12,7 C 3,2 km/h (1 Bft) 95,65 %
10.11.2015 07:42 12,7 C 67 % 1024,8 hPa 0,0 l/m 1,9 km/h (1 Bft) W-NW 286 0 min 0,000 mm 0,0 UV-I 32 W/m 6,7 C 12,7 C 3,2 km/h (1 Bft) 100,00 %
10.11.2015 07:43 12,7 C 67 % 1024,7 hPa 0,0 l/m 2,9 km/h (1 Bft) W 267 0 min 0,000 mm 0,0 UV-I 32 W/m 6,7 C 12,7 C 4,8 km/h (1 Bft) 100,00 %
10.11.2015 07:44 12,7 C 67 % 1024,8 hPa 0,0 l/m 2,1 km/h (1 Bft) W-SW 252 0 min 0,000 mm 0,0 UV-I 33 W/m 6,7 C 12,7 C 4,8 km/h (1 Bft) 100,00 %
10.11.2015 07:45 12,7 C 68 % 1024,7 hPa 0,0 l/m 4,0 km/h (1 Bft) W-NW 287 0 min 0,000 mm 0,0 UV-I 34 W/m 6,9 C 12,7 C 4,8 km/h (1 Bft) 96,15 %
10.11.2015 07:46 12,7 C 68 % 1024,7 hPa 0,0 l/m 4,5 km/h (1 Bft) W 265 0 min 0,000 mm 0,0 UV-I 35 W/m 6,9 C 12,7 C 6,4 km/h (2 Bft) 100,00 %
10.11.2015 07:47 12,7 C 68 % 1024,8 hPa 0,0 l/m 3,5 km/h (1 Bft) W 267 0 min 0,000 mm 0,0 UV-I 37 W/m 6,9 C 12,7 C 6,4 km/h (2 Bft) 100,00 %
10.11.2015 07:48 12,7 C 68 % 1024,8 hPa 0,0 l/m 3,6 km/h (1 Bft) W 275 0 min 0,000 mm 0,0 UV-I 37 W/m 6,9 C 12,7 C 4,8 km/h (1 Bft) 100,00 %
10.11.2015 07:49 12,8 C 68 % 1024,7 hPa 0,0 l/m 3,3 km/h (1 Bft) W 273 0 min 0,000 mm 0,0 UV-I 39 W/m 7,0 C 12,8 C 4,8 km/h (1 Bft) 100,00 %
10.11.2015 07:50 12,8 C 68 % 1024,7 hPa 0,0 l/m 3,2 km/h (1 Bft) SW 234 0 min 0,000 mm 0,0 UV-I 40 W/m 7,0 C 12,8 C 4,8 km/h (1 Bft) 100,00 %
10.11.2015 07:51 12,8 C 68 % 1024,7 hPa 0,0 l/m 2,2 km/h (1 Bft) W 269 0 min 0,000 mm 0,0 UV-I 41 W/m 7,0 C 12,8 C 3,2 km/h (1 Bft) 100,00 %
10.11.2015 07:52 12,8 C 68 % 1024,7 hPa 0,0 l/m 3,5 km/h (1 Bft) W 276 0 min 0,000 mm 0,0 UV-I 42 W/m 7,0 C 12,8 C 6,4 km/h (2 Bft) 100,00 %
10.11.2015 07:53 12,8 C 68 % 1024,7 hPa 0,0 l/m 4,4 km/h (1 Bft) W 275 0 min 0,000 mm 0,0 UV-I 44 W/m 7,0 C 12,8 C 6,4 km/h (2 Bft) 100,00 %
10.11.2015 07:54 12,8 C 68 % 1024,8 hPa 0,0 l/m 4,0 km/h (1 Bft) W 276 0 min 0,000 mm 0,0 UV-I 46 W/m 7,0 C 12,8 C 4,8 km/h (1 Bft) 95,65 %
10.11.2015 07:55 12,8 C 68 % 1024,7 hPa 0,0 l/m 4,8 km/h (1 Bft) W-NW 284 0 min 0,000 mm 0,0 UV-I 46 W/m 7,0 C 12,8 C 6,4 km/h (2 Bft) 100,00 %
10.11.2015 07:56 12,9 C 69 % 1024,7 hPa 0,0 l/m 4,3 km/h (1 Bft) W 281 0 min 0,000 mm 0,0 UV-I 48 W/m 7,4 C 12,9 C 6,4 km/h (2 Bft) 100,00 %
10.11.2015 07:57 12,9 C 70 % 1024,7 hPa 0,0 l/m 4,1 km/h (1 Bft) W 265 0 min 0,000 mm 0,0 UV-I 49 W/m 7,6 C 12,9 C 6,4 km/h (2 Bft) 100,00 %
10.11.2015 07:58 12,9 C 70 % 1024,7 hPa 0,0 l/m 4,4 km/h (1 Bft) W 278 0 min 0,000 mm 0,0 UV-I 49 W/m 7,6 C 12,9 C 6,4 km/h (2 Bft) 95,65 %
10.11.2015 07:59 12,9 C 70 % 1024,8 hPa 0,0 l/m 4,4 km/h (1 Bft) W 274 0 min 0,000 mm 0,0 UV-I 53 W/m 7,6 C 12,9 C 6,4 km/h (2 Bft) 100,00 %
10.11.2015 08:00 12,9 C 70 % 1024,7 hPa 0,0 l/m 4,4 km/h (1 Bft) W 277 0 min 0,025 mm 0,0 UV-I 54 W/m 7,6 C 12,9 C 6,4 km/h (2 Bft) 100,00 %
10.11.2015 08:01 12,9 C 70 % 1024,7 hPa 0,0 l/m 4,3 km/h (1 Bft) W 273 0 min 0,000 mm 0,0 UV-I 55 W/m 7,6 C 12,9 C 6,4 km/h (2 Bft) 100,00 %
10.11.2015 08:02 12,9 C 71 % 1024,7 hPa 0,0 l/m 3,7 km/h (1 Bft) W 271 0 min 0,000 mm 0,0 UV-I 57 W/m 7,8 C 12,9 C 4,8 km/h (1 Bft) 96,15 %
10.11.2015 08:03 13,0 C 71 % 1024,8 hPa 0,0 l/m 5,5 km/h (1 Bft) W-SW 249 0 min 0,000 mm 0,0 UV-I 58 W/m 7,9 C 13,0 C 11,3 km/h (2 Bft) 100,00 %
10.11.2015 08:04 13,1 C 71 % 1024,6 hPa 0,0 l/m 3,2 km/h (1 Bft) W-SW 241 0 min 0,000 mm 0,0 UV-I 60 W/m 8,0 C 13,1 C 6,4 km/h (2 Bft) 95,65 %
10.11.2015 08:05 13,1 C 71 % 1024,7 hPa 0,0 l/m 4,4 km/h (1 Bft) W 261 0 min 0,000 mm 0,0 UV-I 62 W/m 8,0 C 13,1 C 6,4 km/h (2 Bft) 100,00 %
10.11.2015 08:06 13,1 C 71 % 1024,7 hPa 0,0 l/m 4,8 km/h (1 Bft) W 261 0 min 0,000 mm 0,0 UV-I 62 W/m 8,0 C 13,1 C 6,4 km/h (2 Bft) 100,00 %
10.11.2015 08:07 13,1 C 71 % 1024,7 hPa 0,0 l/m 4,3 km/h (1 Bft) W-NW 286 0 min 0,000 mm 0,0 UV-I 64 W/m 8,0 C 13,1 C 6,4 km/h (2 Bft) 100,00 %
10.11.2015 08:08 13,1 C 72 % 1024,7 hPa 0,0 l/m 3,5 km/h (1 Bft) W 265 0 min 0,000 mm 0,0 UV-I 66 W/m 8,2 C 13,1 C 9,7 km/h (2 Bft) 100,00 %
10.11.2015 08:09 13,1 C 72 % 1024,7 hPa 0,0 l/m 5,4 km/h (1 Bft) W 259 0 min 0,000 mm 0,0 UV-I 68 W/m 8,2 C 13,1 C 8,0 km/h (2 Bft) 100,00 %
10.11.2015 08:10 13,2 C 72 % 1024,7 hPa 0,0 l/m 5,2 km/h (1 Bft) W-NW 291 0 min 0,000 mm 0,0 UV-I 70 W/m 8,3 C 13,2 C 9,7 km/h (2 Bft) 100,00 %
10.11.2015 08:11 13,2 C 72 % 1024,7 hPa 0,0 l/m 6,8 km/h (2 Bft) W-NW 287 0 min 0,000 mm 0,0 UV-I 70 W/m 8,3 C 13,0 C 12,9 km/h (3 Bft) 96,15 %
10.11.2015 08:12 13,3 C 72 % 1024,7 hPa 0,0 l/m 5,8 km/h (2 Bft) W-NW 283 0 min 0,000 mm 0,0 UV-I 73 W/m 8,4 C 13,3 C 9,7 km/h (2 Bft) 100,00 %
10.11.2015 08:13 13,3 C 72 % 1024,8 hPa 0,0 l/m 5,6 km/h (1 Bft) W-SW 246 0 min 0,000 mm 0,0 UV-I 75 W/m 8,4 C 13,3 C 9,7 km/h (2 Bft) 100,00 %
10.11.2015 08:14 13,3 C 72 % 1024,9 hPa 0,0 l/m 4,7 km/h (1 Bft) W-NW 288 0 min 0,000 mm 0,0 UV-I 79 W/m 8,4 C 13,3 C 6,4 km/h (2 Bft) 95,83 %
10.11.2015 08:15 13,4 C 72 % 1024,9 hPa 0,0 l/m 4,9 km/h (1 Bft) W-NW 289 0 min 0,000 mm 0,0 UV-I 83 W/m 8,5 C 13,4 C 6,4 km/h (2 Bft) 95,65 %
10.11.2015 08:16 13,4 C 72 % 1024,8 hPa 0,0 l/m 6,9 km/h (2 Bft) SW 227 0 min 0,000 mm 0,0 UV-I 88 W/m 8,5 C 13,1 C 11,3 km/h (2 Bft) 95,83 %
10.11.2015 08:17 13,5 C 72 % 1024,8 hPa 0,0 l/m 5,5 km/h (1 Bft) W 275 0 min 0,000 mm 0,0 UV-I 90 W/m 8,6 C 13,5 C 12,9 km/h (3 Bft) 100,00 %
10.11.2015 08:18 13,6 C 72 % 1024,8 hPa 0,0 l/m 6,5 km/h (2 Bft) W-NW 288 0 min 0,000 mm 0,0 UV-I 92 W/m 8,6 C 13,6 C 11,3 km/h (2 Bft) 100,00 %
10.11.2015 08:19 13,7 C 72 % 1024,8 hPa 0,0 l/m 4,8 km/h (1 Bft) W-SW 257 0 min 0,000 mm 0,0 UV-I 93 W/m 8,7 C 13,7 C 9,7 km/h (2 Bft) 100,00 %
10.11.2015 08:20 13,7 C 72 % 1024,8 hPa 0,0 l/m 6,6 km/h (2 Bft) W 274 0 min 0,000 mm 0,0 UV-I 92 W/m 8,7 C 13,6 C 9,7 km/h (2 Bft) 100,00 %
10.11.2015 08:21 13,7 C 72 % 1024,7 hPa 0,0 l/m 4,6 km/h (1 Bft) W-NW 282 0 min 0,000 mm 0,0 UV-I 94 W/m 8,7 C 13,7 C 6,4 km/h (2 Bft) 100,00 %
10.11.2015 08:22 13,8 C 72 % 1024,7 hPa 0,0 l/m 6,9 km/h (2 Bft) W-NW 290 0 min 0,000 mm 0,0 UV-I 93 W/m 8,8 C 13,5 C 9,7 km/h (2 Bft) 95,83 %
10.11.2015 08:23 13,8 C 72 % 1024,7 hPa 0,0 l/m 6,2 km/h (2 Bft) W 261 0 min 0,000 mm 0,0 UV-I 90 W/m 8,8 C 13,8 C 11,3 km/h (2 Bft) 95,65 %
10.11.2015 08:24 13,9 C 72 % 1024,8 hPa 0,0 l/m 5,9 km/h (2 Bft) W-SW 255 0 min 0,000 mm 0,0 UV-I 85 W/m 8,9 C 13,9 C 11,3 km/h (2 Bft) 100,00 %
10.11.2015 08:25 13,9 C 72 % 1024,7 hPa 0,0 l/m 5,6 km/h (1 Bft) W 263 0 min 0,000 mm 0,0 UV-I 84 W/m 8,9 C 13,9 C 9,7 km/h (2 Bft) 100,00 %
10.11.2015 08:26 13,9 C 72 % 1024,7 hPa 0,0 l/m 6,1 km/h (2 Bft) W-SW 238 0 min 0,000 mm 0,0 UV-I 84 W/m 8,9 C 13,9 C 11,3 km/h (2 Bft) 100,00 %
10.11.2015 08:27 13,9 C 72 % 1024,7 hPa 0,0 l/m 7,7 km/h (2 Bft) W 268 0 min 0,000 mm 0,0 UV-I 86 W/m 8,9 C 13,1 C 12,9 km/h (3 Bft) 96,15 %
10.11.2015 08:28 13,9 C 72 % 1024,7 hPa 0,0 l/m 6,9 km/h (2 Bft) W-SW 252 0 min 0,000 mm 0,0 UV-I 90 W/m 8,9 C 13,6 C 9,7 km/h (2 Bft) 100,00 %
10.11.2015 08:29 14,0 C 71 % 1024,7 hPa 0,0 l/m 5,1 km/h (1 Bft) W 279 0 min 0,000 mm 0,0 UV-I 88 W/m 8,8 C 14,0 C 11,3 km/h (2 Bft) 100,00 %
10.11.2015 08:30 14,1 C 71 % 1024,6 hPa 0,0 l/m 6,1 km/h (2 Bft) W-SW 256 0 min 0,000 mm 0,0 UV-I 88 W/m 8,9 C 14,1 C 9,7 km/h (2 Bft) 95,65 %
10.11.2015 08:31 14,1 C 71 % 1024,7 hPa 0,0 l/m 8,4 km/h (2 Bft) SW 236 0 min 0,000 mm 0,0 UV-I 89 W/m 8,9 C 12,9 C 11,3 km/h (2 Bft) 100,00 %
10.11.2015 08:32 14,1 C 71 % 1024,6 hPa 0,0 l/m 5,5 km/h (1 Bft) W-NW 283 0 min 0,000 mm 0,0 UV-I 91 W/m 8,9 C 14,1 C 9,7 km/h (2 Bft) 100,00 %
10.11.2015 08:33 14,1 C 71 % 1024,6 hPa 0,0 l/m 6,6 km/h (2 Bft) W 271 0 min 0,000 mm 0,0 UV-I 96 W/m 8,9 C 14,0 C 11,3 km/h (2 Bft) 100,00 %
10.11.2015 08:34 14,1 C 71 % 1024,7 hPa 0,0 l/m 6,1 km/h (2 Bft) W-SW 237 0 min 0,000 mm 0,0 UV-I 100 W/m 8,9 C 14,1 C 9,7 km/h (2 Bft) 100,00 %
10.11.2015 08:35 14,2 C 70 % 1024,6 hPa 0,0 l/m 8,7 km/h (2 Bft) W-SW 254 0 min 0,000 mm 0,0 UV-I 105 W/m 8,8 C 12,9 C 12,9 km/h (3 Bft) 100,00 %
10.11.2015 08:36 14,2 C 70 % 1024,6 hPa 0,0 l/m 10,3 km/h (2 Bft) W-NW 298 0 min 0,000 mm 0,0 UV-I 111 W/m 8,8 C 12,1 C 17,7 km/h (3 Bft) 95,65 %
10.11.2015 08:37 14,3 C 70 % 1024,6 hPa 0,0 l/m 7,2 km/h (2 Bft) W-SW 249 1 min 0,000 mm 0,0 UV-I 131 W/m 8,9 C 13,8 C 11,3 km/h (2 Bft) 100,00 %
10.11.2015 08:38 14,3 C 70 % 1024,6 hPa 0,0 l/m 7,4 km/h (2 Bft) SW 221 1 min 0,000 mm 0,0 UV-I 139 W/m 8,9 C 13,7 C 12,9 km/h (3 Bft) 100,00 %
10.11.2015 08:39 14,3 C 70 % 1024,6 hPa 0,0 l/m 5,3 km/h (1 Bft) W-NW 302 1 min 0,000 mm 0,0 UV-I 144 W/m 8,9 C 14,3 C 9,7 km/h (2 Bft) 95,83 %
10.11.2015 08:40 14,3 C 70 % 1024,6 hPa 0,0 l/m 6,6 km/h (2 Bft) W 261 1 min 0,000 mm 0,0 UV-I 150 W/m 8,9 C 14,2 C 11,3 km/h (2 Bft) 100,00 %
10.11.2015 08:41 14,3 C 70 % 1024,6 hPa 0,0 l/m 5,8 km/h (2 Bft) SW 219 1 min 0,000 mm 0,0 UV-I 153 W/m 8,9 C 14,3 C 11,3 km/h (2 Bft) 100,00 %
10.11.2015 08:42 14,4 C 70 % 1024,5 hPa 0,0 l/m 5,7 km/h (1 Bft) W 267 1 min 0,000 mm 0,0 UV-I 142 W/m 9,0 C 14,4 C 9,7 km/h (2 Bft) 100,00 %
10.11.2015 08:43 14,4 C 69 % 1024,5 hPa 0,0 l/m 9,2 km/h (2 Bft) SW 221 1 min 0,000 mm 0,0 UV-I 143 W/m 8,8 C 12,8 C 14,5 km/h (3 Bft) 95,83 %
10.11.2015 08:44 14,4 C 69 % 1024,6 hPa 0,0 l/m 6,4 km/h (2 Bft) W 267 1 min 0,000 mm 0,0 UV-I 164 W/m 8,8 C 14,4 C 12,9 km/h (3 Bft) 100,00 %
10.11.2015 08:45 14,5 C 69 % 1024,6 hPa 0,0 l/m 4,6 km/h (1 Bft) W-NW 287 1 min 0,000 mm 0,0 UV-I 169 W/m 8,9 C 14,5 C 6,4 km/h (2 Bft) 95,83 %
10.11.2015 08:46 14,6 C 69 % 1024,7 hPa 0,0 l/m 6,0 km/h (2 Bft) W-SW 242 1 min 0,000 mm 0,0 UV-I 169 W/m 9,0 C 14,6 C 11,3 km/h (2 Bft) 95,65 %
10.11.2015 08:47 14,6 C 69 % 1024,7 hPa 0,0 l/m 6,0 km/h (2 Bft) W 275 1 min 0,000 mm 0,0 UV-I 168 W/m 9,0 C 14,6 C 9,7 km/h (2 Bft) 100,00 %
10.11.2015 08:48 14,6 C 68 % 1024,7 hPa 0,0 l/m 6,6 km/h (2 Bft) W-SW 257 1 min 0,000 mm 0,0 UV-I 144 W/m 8,8 C 14,5 C 11,3 km/h (2 Bft) 100,00 %
10.11.2015 08:49 14,7 C 68 % 1024,8 hPa 0,0 l/m 4,2 km/h (1 Bft) W-SW 252 0 min 0,000 mm 0,0 UV-I 105 W/m 8,9 C 14,7 C 6,4 km/h (2 Bft) 100,00 %
10.11.2015 08:50 14,7 C 68 % 1024,8 hPa 0,0 l/m 6,9 km/h (2 Bft) W 278 0 min 0,000 mm 0,0 UV-I 102 W/m 8,9 C 14,4 C 12,9 km/h (3 Bft) 100,00 %
10.11.2015 08:51 14,7 C 67 % 1024,8 hPa 0,0 l/m 9,0 km/h (2 Bft) SW 227 0 min 0,000 mm 0,0 UV-I 126 W/m 8,6 C 13,3 C 12,9 km/h (3 Bft) 100,00 %
10.11.2015 08:52 14,8 C 67 % 1024,7 hPa 0,0 l/m 4,3 km/h (1 Bft) W-NW 294 0 min 0,000 mm 0,0 UV-I 127 W/m 8,7 C 14,8 C 9,7 km/h (2 Bft) 100,00 %
10.11.2015 08:53 14,8 C 67 % 1024,8 hPa 0,0 l/m 6,8 km/h (2 Bft) W 262 0 min 0,000 mm 0,0 UV-I 127 W/m 8,7 C 14,6 C 12,9 km/h (3 Bft) 100,00 %
10.11.2015 08:54 14,8 C 67 % 1024,8 hPa 0,0 l/m 4,7 km/h (1 Bft) W-SW 253 1 min 0,000 mm 0,0 UV-I 160 W/m 8,7 C 14,8 C 9,7 km/h (2 Bft) 100,00 %
10.11.2015 08:55 14,8 C 66 % 1024,7 hPa 0,0 l/m 6,8 km/h (2 Bft) W 271 1 min 0,000 mm 0,2 UV-I 172 W/m 8,5 C 14,6 C 11,3 km/h (2 Bft) 100,00 %
10.11.2015 08:56 14,9 C 66 % 1024,8 hPa 0,0 l/m 7,2 km/h (2 Bft) W 277 1 min 0,000 mm 0,5 UV-I 180 W/m 8,6 C 14,4 C 12,9 km/h (3 Bft) 100,00 %
10.11.2015 08:57 15,0 C 65 % 1024,8 hPa 0,0 l/m 9,8 km/h (2 Bft) W-NW 294 1 min 0,000 mm 0,5 UV-I 194 W/m 8,5 C 13,2 C 14,5 km/h (3 Bft) 100,00 %
10.11.2015 08:58 15,2 C 64 % 1024,8 hPa 0,0 l/m 6,2 km/h (2 Bft) W-SW 241 1 min 0,000 mm 0,5 UV-I 199 W/m 8,4 C 15,2 C 11,3 km/h (2 Bft) 100,00 %
10.11.2015 08:59 15,2 C 64 % 1024,8 hPa 0,0 l/m 7,5 km/h (2 Bft) W 275 1 min 0,000 mm 0,5 UV-I 200 W/m 8,4 C 14,6 C 12,9 km/h (3 Bft) 100,00 %
10.11.2015 09:00 15,3 C 64 % 1024,8 hPa 0,0 l/m 5,0 km/h (1 Bft) W-NW 285 1 min 0,000 mm 0,5 UV-I 200 W/m 8,5 C 15,3 C 9,7 km/h (2 Bft) 100,00 %
10.11.2015 09:01 15,3 C 64 % 1024,8 hPa 0,0 l/m 6,8 km/h (2 Bft) W-NW 290 1 min 0,077 mm 0,5 UV-I 151 W/m 8,5 C 15,1 C 14,5 km/h (3 Bft) 100,00 %
10.11.2015 09:02 15,4 C 64 % 1024,8 hPa 0,0 l/m 7,2 km/h (2 Bft) W 277 1 min 0,000 mm 0,5 UV-I 176 W/m 8,6 C 15,0 C 11,3 km/h (2 Bft) 100,00 %
10.11.2015 09:03 15,4 C 64 % 1024,9 hPa 0,0 l/m 6,3 km/h (2 Bft) W 277 1 min 0,000 mm 0,5 UV-I 151 W/m 8,6 C 15,4 C 9,7 km/h (2 Bft) 100,00 %
10.11.2015 09:04 15,4 C 63 % 1024,9 hPa 0,0 l/m 6,8 km/h (2 Bft) W 273 0 min 0,000 mm 0,5 UV-I 130 W/m 8,4 C 15,2 C 11,3 km/h (2 Bft) 100,00 %
10.11.2015 09:05 15,4 C 63 % 1024,9 hPa 0,0 l/m 5,1 km/h (1 Bft) W-NW 285 0 min 0,000 mm 0,5 UV-I 131 W/m 8,4 C 15,4 C 8,0 km/h (2 Bft) 100,00 %
10.11.2015 09:06 15,4 C 63 % 1024,9 hPa 0,0 l/m 6,4 km/h (2 Bft) W 259 1 min 0,000 mm 0,5 UV-I 150 W/m 8,4 C 15,4 C 14,5 km/h (3 Bft) 100,00 %
10.11.2015 09:07 15,5 C 63 % 1024,9 hPa 0,0 l/m 8,6 km/h (2 Bft) W-SW 250 1 min 0,000 mm 0,5 UV-I 170 W/m 8,5 C 14,3 C 14,5 km/h (3 Bft) 100,00 %
10.11.2015 09:08 15,5 C 63 % 1024,8 hPa 0,0 l/m 6,5 km/h (2 Bft) NW 310 1 min 0,000 mm 0,5 UV-I 163 W/m 8,5 C 15,5 C 9,7 km/h (2 Bft) 100,00 %
10.11.2015 09:09 15,5 C 63 % 1024,8 hPa 0,0 l/m 7,5 km/h (2 Bft) W 262 1 min 0,000 mm 0,5 UV-I 176 W/m 8,5 C 14,9 C 12,9 km/h (3 Bft) 95,65 %
10.11.2015 09:10 15,5 C 61 % 1024,9 hPa 0,0 l/m 9,9 km/h (2 Bft) W-NW 302 0 min 0,000 mm 0,5 UV-I 136 W/m 8,0 C 13,7 C 16,1 km/h (3 Bft) 95,83 %
10.11.2015 09:11 15,6 C 61 % 1024,9 hPa 0,0 l/m 9,3 km/h (2 Bft) SW 224 1 min 0,000 mm 0,5 UV-I 155 W/m 8,1 C 14,1 C 14,5 km/h (3 Bft) 100,00 %
10.11.2015 09:12 15,6 C 61 % 1024,9 hPa 0,0 l/m 7,8 km/h (2 Bft) W 262 0 min 0,000 mm 0,5 UV-I 122 W/m 8,1 C 14,8 C 11,3 km/h (2 Bft) 100,00 %
10.11.2015 09:13 15,6 C 61 % 1024,8 hPa 0,0 l/m 10,1 km/h (2 Bft) W-SW 252 0 min 0,000 mm 0,5 UV-I 129 W/m 8,1 C 13,7 C 16,1 km/h (3 Bft) 100,00 %
10.11.2015 09:14 15,6 C 60 % 1024,8 hPa 0,0 l/m 13,3 km/h (3 Bft) W-SW 242 0 min 0,000 mm 0,6 UV-I 129 W/m 7,9 C 12,5 C 19,3 km/h (3 Bft) 95,65 %
10.11.2015 09:15 15,7 C 60 % 1024,8 hPa 0,0 l/m 9,5 km/h (2 Bft) W 264 1 min 0,000 mm 0,6 UV-I 179 W/m 8,0 C 14,1 C 14,5 km/h (3 Bft) 100,00 %
10.11.2015 09:16 15,7 C 61 % 1024,8 hPa 0,0 l/m 12,1 km/h (2 Bft) NW 318 1 min 0,000 mm 0,6 UV-I 198 W/m 8,2 C 13,0 C 20,9 km/h (4 Bft) 100,00 %
10.11.2015 09:17 15,7 C 60 % 1024,8 hPa 0,0 l/m 13,8 km/h (3 Bft) W-NW 288 1 min 0,000 mm 0,6 UV-I 163 W/m 8,0 C 12,4 C 22,5 km/h (4 Bft) 100,00 %
10.11.2015 09:18 15,7 C 59 % 1024,9 hPa 0,0 l/m 15,2 km/h (3 Bft) W 260 0 min 0,000 mm 0,6 UV-I 140 W/m 7,7 C 12,0 C 27,4 km/h (4 Bft) 100,00 %
10.11.2015 09:19 15,7 C 59 % 1024,8 hPa 0,0 l/m 15,0 km/h (3 Bft) W 259 0 min 0,000 mm 0,6 UV-I 158 W/m 7,7 C 12,0 C 24,1 km/h (4 Bft) 100,00 %
10.11.2015 09:20 15,8 C 59 % 1024,8 hPa 0,0 l/m 13,2 km/h (3 Bft) W-SW 246 1 min 0,000 mm 0,6 UV-I 186 W/m 7,8 C 12,8 C 24,1 km/h (4 Bft) 100,00 %
10.11.2015 09:21 15,8 C 59 % 1024,9 hPa 0,0 l/m 9,9 km/h (2 Bft) NW 314 1 min 0,000 mm 0,6 UV-I 216 W/m 7,8 C 14,0 C 14,5 km/h (3 Bft) 100,00 %
10.11.2015 09:22 15,8 C 59 % 1024,9 hPa 0,0 l/m 13,5 km/h (3 Bft) W 259 1 min 0,000 mm 0,6 UV-I 194 W/m 7,8 C 12,7 C 22,5 km/h (4 Bft) 100,00 %
10.11.2015 09:23 15,8 C 59 % 1024,8 hPa 0,0 l/m 12,6 km/h (3 Bft) W-NW 295 0 min 0,000 mm 0,6 UV-I 139 W/m 7,8 C 13,0 C 17,7 km/h (3 Bft) 100,00 %
10.11.2015 09:24 15,9 C 59 % 1024,9 hPa 0,0 l/m 14,4 km/h (3 Bft) W-NW 286 1 min 0,000 mm 0,6 UV-I 206 W/m 7,9 C 12,5 C 20,9 km/h (4 Bft) 96,15 %
10.11.2015 09:25 15,9 C 59 % 1024,9 hPa 0,0 l/m 10,7 km/h (2 Bft) W-NW 300 1 min 0,000 mm 0,6 UV-I 192 W/m 7,9 C 13,8 C 16,1 km/h (3 Bft) 100,00 %
10.11.2015 09:26 15,9 C 58 % 1024,9 hPa 0,0 l/m 10,3 km/h (2 Bft) W 266 0 min 0,000 mm 0,6 UV-I 143 W/m 7,6 C 14,0 C 16,1 km/h (3 Bft) 95,65 %
10.11.2015 09:27 15,9 C 59 % 1024,9 hPa 0,0 l/m 5,9 km/h (2 Bft) W 265 0 min 0,000 mm 0,6 UV-I 148 W/m 7,9 C 15,9 C 9,7 km/h (2 Bft) 100,00 %
10.11.2015 09:28 15,9 C 59 % 1025,0 hPa 0,0 l/m 13,5 km/h (3 Bft) W 267 0 min 0,000 mm 0,6 UV-I 120 W/m 7,9 C 12,8 C 20,9 km/h (4 Bft) 100,00 %
10.11.2015 09:29 15,9 C 58 % 1024,9 hPa 0,0 l/m 8,5 km/h (2 Bft) W-SW 242 0 min 0,000 mm 0,6 UV-I 107 W/m 7,6 C 14,8 C 12,9 km/h (3 Bft) 100,00 %
10.11.2015 09:30 15,9 C 59 % 1024,9 hPa 0,0 l/m 7,1 km/h (2 Bft) W 276 0 min 0,000 mm 0,6 UV-I 94 W/m 7,9 C 15,5 C 11,3 km/h (2 Bft) 100,00 %
10.11.2015 09:31 15,8 C 58 % 1025,0 hPa 0,0 l/m 10,6 km/h (2 Bft) W-NW 291 0 min 0,000 mm 0,6 UV-I 79 W/m 7,6 C 13,7 C 17,7 km/h (3 Bft) 96,15 %
10.11.2015 09:32 15,8 C 58 % 1025,0 hPa 0,0 l/m 14,0 km/h (3 Bft) W-NW 285 0 min 0,000 mm 0,6 UV-I 73 W/m 7,6 C 12,5 C 22,5 km/h (4 Bft) 100,00 %
10.11.2015 09:33 15,8 C 58 % 1024,9 hPa 0,0 l/m 11,5 km/h (2 Bft) W 280 0 min 0,000 mm 0,6 UV-I 72 W/m 7,6 C 13,4 C 14,5 km/h (3 Bft) 100,00 %
10.11.2015 09:34 15,8 C 59 % 1024,9 hPa 0,0 l/m 13,3 km/h (3 Bft) W-SW 256 0 min 0,000 mm 0,6 UV-I 74 W/m 7,8 C 12,7 C 24,1 km/h (4 Bft) 100,00 %
10.11.2015 09:35 15,8 C 58 % 1024,9 hPa 0,0 l/m 14,0 km/h (3 Bft) W 269 0 min 0,000 mm 0,6 UV-I 84 W/m 7,6 C 12,5 C 19,3 km/h (3 Bft) 100,00 %
10.11.2015 09:36 15,8 C 58 % 1024,9 hPa 0,0 l/m 13,8 km/h (3 Bft) W 277 0 min 0,000 mm 0,6 UV-I 109 W/m 7,6 C 12,6 C 19,3 km/h (3 Bft) 100,00 %
10.11.2015 09:37 15,8 C 58 % 1024,9 hPa 0,0 l/m 14,8 km/h (3 Bft) W-NW 290 0 min 0,000 mm 0,7 UV-I 131 W/m 7,6 C 12,2 C 22,5 km/h (4 Bft) 100,00 %
10.11.2015 09:38 15,8 C 59 % 1024,9 hPa 0,0 l/m 11,9 km/h (2 Bft) W 275 0 min 0,000 mm 0,6 UV-I 135 W/m 7,8 C 13,2 C 14,5 km/h (3 Bft) 100,00 %
10.11.2015 09:39 15,8 C 58 % 1024,8 hPa 0,0 l/m 12,5 km/h (3 Bft) W 269 0 min 0,000 mm 0,6 UV-I 148 W/m 7,6 C 13,0 C 22,5 km/h (4 Bft) 100,00 %
10.11.2015 09:40 15,8 C 59 % 1024,9 hPa 0,0 l/m 11,0 km/h (2 Bft) NW 307 0 min 0,000 mm 0,6 UV-I 150 W/m 7,8 C 13,6 C 22,5 km/h (4 Bft) 100,00 %
10.11.2015 09:41 15,8 C 58 % 1024,9 hPa 0,0 l/m 14,8 km/h (3 Bft) W-NW 289 0 min 0,000 mm 0,6 UV-I 149 W/m 7,6 C 12,2 C 24,1 km/h (4 Bft) 95,65 %
10.11.2015 09:42 15,8 C 58 % 1024,9 hPa 0,0 l/m 13,1 km/h (3 Bft) W-NW 285 0 min 0,000 mm 0,6 UV-I 172 W/m 7,6 C 12,8 C 20,9 km/h (4 Bft) 100,00 %
10.11.2015 09:43 15,9 C 58 % 1024,8 hPa 0,0 l/m 10,7 km/h (2 Bft) W-SW 239 0 min 0,000 mm 0,6 UV-I 158 W/m 7,6 C 13,8 C 14,5 km/h (3 Bft) 95,65 %
10.11.2015 09:44 15,9 C 59 % 1024,8 hPa 0,0 l/m 6,8 km/h (2 Bft) W-NW 299 0 min 0,000 mm 0,6 UV-I 155 W/m 7,9 C 15,7 C 12,9 km/h (3 Bft) 91,67 %
10.11.2015 09:45 15,9 C 59 % 1024,9 hPa 0,0 l/m 7,8 km/h (2 Bft) SW 231 0 min 0,000 mm 0,6 UV-I 158 W/m 7,9 C 15,1 C 11,3 km/h (2 Bft) 100,00 %
10.11.2015 09:46 15,9 C 59 % 1024,9 hPa 0,0 l/m 8,0 km/h (2 Bft) W-NW 284 0 min 0,000 mm 0,6 UV-I 157 W/m 7,9 C 15,0 C 11,3 km/h (2 Bft) 100,00 %
10.11.2015 09:47 15,9 C 59 % 1024,9 hPa 0,0 l/m 13,7 km/h (3 Bft) W 273 0 min 0,000 mm 0,6 UV-I 153 W/m 7,9 C 12,7 C 19,3 km/h (3 Bft) 95,65 %
10.11.2015 09:48 16,0 C 58 % 1025,0 hPa 0,0 l/m 11,1 km/h (2 Bft) W-SW 256 0 min 0,000 mm 0,6 UV-I 151 W/m 7,7 C 13,8 C 19,3 km/h (3 Bft) 100,00 %
10.11.2015 09:49 16,0 C 58 % 1024,9 hPa 0,0 l/m 10,7 km/h (2 Bft) NW 318 0 min 0,000 mm 0,7 UV-I 154 W/m 7,7 C 13,9 C 17,7 km/h (3 Bft) 100,00 %
10.11.2015 09:50 16,0 C 57 % 1024,8 hPa 0,0 l/m 10,9 km/h (2 Bft) SW 225 0 min 0,000 mm 0,7 UV-I 149 W/m 7,5 C 13,8 C 16,1 km/h (3 Bft) 100,00 %
10.11.2015 09:51 16,1 C 57 % 1024,9 hPa 0,0 l/m 13,5 km/h (3 Bft) SW 227 0 min 0,000 mm 0,7 UV-I 137 W/m 7,6 C 13,0 C 19,3 km/h (3 Bft) 100,00 %
10.11.2015 09:52 16,1 C 57 % 1025,0 hPa 0,0 l/m 6,7 km/h (2 Bft) W 264 0 min 0,000 mm 0,7 UV-I 138 W/m 7,6 C 16,0 C 11,3 km/h (2 Bft) 100,00 %
10.11.2015 09:53 16,1 C 57 % 1024,9 hPa 0,0 l/m 14,0 km/h (3 Bft) W 275 0 min 0,000 mm 0,7 UV-I 138 W/m 7,6 C 12,8 C 30,6 km/h (5 Bft) 100,00 %
10.11.2015 09:54 16,1 C 57 % 1024,9 hPa 0,0 l/m 8,3 km/h (2 Bft) W-NW 286 0 min 0,000 mm 0,7 UV-I 128 W/m 7,6 C 15,1 C 11,3 km/h (2 Bft) 95,65 %
10.11.2015 09:55 16,0 C 57 % 1025,0 hPa 0,0 l/m 17,1 km/h (3 Bft) W 269 0 min 0,000 mm 0,7 UV-I 127 W/m 7,5 C 11,8 C 32,2 km/h (5 Bft) 100,00 %
10.11.2015 09:56 16,1 C 56 % 1024,8 hPa 0,0 l/m 18,0 km/h (3 Bft) SW 217 0 min 0,000 mm 0,7 UV-I 135 W/m 7,3 C 11,7 C 37,0 km/h (5 Bft) 100,00 %
10.11.2015 09:57 16,1 C 57 % 1024,8 hPa 0,0 l/m 10,4 km/h (2 Bft) W-SW 258 0 min 0,000 mm 0,7 UV-I 136 W/m 7,6 C 14,2 C 16,1 km/h (3 Bft) 100,00 %
10.11.2015 09:58 16,0 C 57 % 1025,0 hPa 0,0 l/m 10,9 km/h (2 Bft) W 268 0 min 0,000 mm 0,7 UV-I 127 W/m 7,5 C 13,8 C 20,9 km/h (4 Bft) 100,00 %
10.11.2015 09:59 16,0 C 57 % 1024,9 hPa 0,0 l/m 10,9 km/h (2 Bft) NW 321 0 min 0,000 mm 0,7 UV-I 129 W/m 7,5 C 13,8 C 17,7 km/h (3 Bft) 100,00 %
10.11.2015 10:00 16,1 C 57 % 1024,9 hPa 0,0 l/m 6,6 km/h (2 Bft) W-NW 282 0 min 0,127 mm 0,8 UV-I 131 W/m 7,6 C 16,0 C 16,1 km/h (3 Bft) 95,65 %
10.11.2015 10:01 16,0 C 57 % 1024,9 hPa 0,0 l/m 10,5 km/h (2 Bft) W-SW 245 0 min 0,000 mm 0,8 UV-I 134 W/m 7,5 C 14,0 C 14,5 km/h (3 Bft) 95,83 %
10.11.2015 10:02 16,0 C 58 % 1024,9 hPa 0,0 l/m 9,5 km/h (2 Bft) W-SW 252 0 min 0,000 mm 0,8 UV-I 134 W/m 7,7 C 14,4 C 16,1 km/h (3 Bft) 95,65 %
10.11.2015 10:03 16,0 C 57 % 1024,9 hPa 0,0 l/m 10,7 km/h (2 Bft) NW 319 0 min 0,000 mm 0,8 UV-I 137 W/m 7,5 C 13,9 C 19,3 km/h (3 Bft) 100,00 %
10.11.2015 10:04 16,0 C 56 % 1025,0 hPa 0,0 l/m 14,7 km/h (3 Bft) W 266 0 min 0,000 mm 0,8 UV-I 132 W/m 7,2 C 12,5 C 22,5 km/h (4 Bft) 100,00 %
10.11.2015 10:05 16,0 C 56 % 1025,0 hPa 0,0 l/m 10,6 km/h (2 Bft) S-SW 211 0 min 0,000 mm 0,8 UV-I 138 W/m 7,2 C 14,0 C 16,1 km/h (3 Bft) 100,00 %
10.11.2015 10:06 16,0 C 56 % 1025,0 hPa 0,0 l/m 9,7 km/h (2 Bft) W-NW 282 0 min 0,000 mm 0,8 UV-I 133 W/m 7,2 C 14,4 C 16,1 km/h (3 Bft) 95,83 %
10.11.2015 10:07 16,0 C 56 % 1024,9 hPa 0,0 l/m 10,1 km/h (2 Bft) W-SW 238 0 min 0,000 mm 0,8 UV-I 130 W/m 7,2 C 14,2 C 17,7 km/h (3 Bft) 91,30 %
10.11.2015 10:08 16,0 C 56 % 1025,0 hPa 0,0 l/m 8,9 km/h (2 Bft) W-SW 242 0 min 0,000 mm 0,8 UV-I 126 W/m 7,2 C 14,7 C 12,9 km/h (3 Bft) 100,00 %
10.11.2015 10:09 16,0 C 56 % 1025,1 hPa 0,0 l/m 8,7 km/h (2 Bft) W-NW 282 0 min 0,000 mm 0,8 UV-I 134 W/m 7,2 C 14,8 C 12,9 km/h (3 Bft) 100,00 %
10.11.2015 10:10 16,0 C 56 % 1025,0 hPa 0,0 l/m 10,3 km/h (2 Bft) W-NW 289 0 min 0,000 mm 0,8 UV-I 140 W/m 7,2 C 14,1 C 17,7 km/h (3 Bft) 100,00 %
10.11.2015 10:11 16,1 C 56 % 1025,0 hPa 0,0 l/m 8,0 km/h (2 Bft) SW 223 0 min 0,000 mm 0,8 UV-I 147 W/m 7,3 C 15,3 C 12,9 km/h (3 Bft) 100,00 %
10.11.2015 10:12 16,1 C 57 % 1025,0 hPa 0,0 l/m 5,5 km/h (1 Bft) NW 306 0 min 0,000 mm 0,8 UV-I 158 W/m 7,6 C 16,1 C 11,3 km/h (2 Bft) 100,00 %
10.11.2015 10:13 16,0 C 57 % 1024,9 hPa 0,0 l/m 6,7 km/h (2 Bft) W 269 0 min 0,000 mm 0,8 UV-I 167 W/m 7,5 C 15,8 C 12,9 km/h (3 Bft) 100,00 %
10.11.2015 10:14 16,0 C 55 % 1024,9 hPa 0,0 l/m 15,6 km/h (3 Bft) W-NW 288 0 min 0,000 mm 0,8 UV-I 172 W/m 7,0 C 12,2 C 24,1 km/h (4 Bft) 100,00 %
10.11.2015 10:15 16,1 C 55 % 1024,8 hPa 0,0 l/m 12,8 km/h (3 Bft) NW 304 0 min 0,000 mm 0,9 UV-I 177 W/m 7,1 C 13,2 C 22,5 km/h (4 Bft) 95,65 %
10.11.2015 10:16 16,1 C 56 % 1024,9 hPa 0,0 l/m 13,7 km/h (3 Bft) W 260 0 min 0,000 mm 0,9 UV-I 184 W/m 7,3 C 12,9 C 24,1 km/h (4 Bft) 100,00 %
10.11.2015 10:17 16,1 C 56 % 1025,0 hPa 0,0 l/m 11,9 km/h (2 Bft) NW 318 0 min 0,000 mm 0,9 UV-I 193 W/m 7,3 C 13,6 C 16,1 km/h (3 Bft) 100,00 %
10.11.2015 10:18 16,1 C 56 % 1025,0 hPa 0,0 l/m 8,9 km/h (2 Bft) W 263 0 min 0,000 mm 0,9 UV-I 199 W/m 7,3 C 14,8 C 17,7 km/h (3 Bft) 95,83 %
10.11.2015 10:19 16,2 C 55 % 1025,0 hPa 0,0 l/m 12,6 km/h (3 Bft) W-NW 284 0 min 0,000 mm 0,9 UV-I 198 W/m 7,2 C 13,4 C 17,7 km/h (3 Bft) 100,00 %
10.11.2015 10:20 16,2 C 56 % 1025,0 hPa 0,0 l/m 8,1 km/h (2 Bft) W 259 0 min 0,000 mm 0,9 UV-I 200 W/m 7,4 C 15,3 C 11,3 km/h (2 Bft) 100,00 %
10.11.2015 10:21 16,2 C 56 % 1025,0 hPa 0,0 l/m 8,0 km/h (2 Bft) SW 229 0 min 0,000 mm 0,9 UV-I 189 W/m 7,4 C 15,4 C 12,9 km/h (3 Bft) 100,00 %
10.11.2015 10:22 16,2 C 56 % 1025,0 hPa 0,0 l/m 8,5 km/h (2 Bft) NW 309 0 min 0,000 mm 0,9 UV-I 187 W/m 7,4 C 15,1 C 14,5 km/h (3 Bft) 95,83 %
10.11.2015 10:23 16,2 C 56 % 1025,0 hPa 0,0 l/m 7,0 km/h (2 Bft) NW 326 0 min 0,000 mm 0,9 UV-I 189 W/m 7,4 C 15,9 C 16,1 km/h (3 Bft) 100,00 %
10.11.2015 10:24 16,2 C 56 % 1025,0 hPa 0,0 l/m 7,6 km/h (2 Bft) W 279 0 min 0,000 mm 0,9 UV-I 192 W/m 7,4 C 15,6 C 11,3 km/h (2 Bft) 100,00 %
10.11.2015 10:25 16,2 C 57 % 1025,0 hPa 0,0 l/m 10,4 km/h (2 Bft) W 271 0 min 0,000 mm 0,9 UV-I 192 W/m 7,7 C 14,3 C 19,3 km/h (3 Bft) 100,00 %
10.11.2015 10:26 16,3 C 56 % 1025,0 hPa 0,0 l/m 8,4 km/h (2 Bft) W 274 0 min 0,000 mm 0,9 UV-I 190 W/m 7,5 C 15,3 C 17,7 km/h (3 Bft) 100,00 %
10.11.2015 10:27 16,3 C 55 % 1025,0 hPa 0,0 l/m 9,4 km/h (2 Bft) S 186 0 min 0,000 mm 0,8 UV-I 180 W/m 7,2 C 14,8 C 14,5 km/h (3 Bft) 100,00 %
10.11.2015 10:28 16,2 C 56 % 1025,0 hPa 0,0 l/m 12,7 km/h (3 Bft) W-NW 288 0 min 0,000 mm 0,8 UV-I 176 W/m 7,4 C 13,4 C 17,7 km/h (3 Bft) 95,65 %
10.11.2015 10:29 16,3 C 54 % 1025,1 hPa 0,0 l/m 11,3 km/h (2 Bft) W-NW 283 0 min 0,000 mm 0,9 UV-I 174 W/m 7,0 C 14,0 C 16,1 km/h (3 Bft) 96,15 %
10.11.2015 10:30 16,3 C 54 % 1025,1 hPa 0,0 l/m 12,0 km/h (2 Bft) W-NW 298 0 min 0,000 mm 0,9 UV-I 174 W/m 7,0 C 13,8 C 17,7 km/h (3 Bft) 100,00 %
10.11.2015 10:31 16,3 C 54 % 1025,0 hPa 0,0 l/m 12,4 km/h (3 Bft) W 270 0 min 0,000 mm 0,9 UV-I 174 W/m 7,0 C 13,6 C 17,7 km/h (3 Bft) 100,00 %
10.11.2015 10:32 16,2 C 56 % 1025,0 hPa 0,0 l/m 6,4 km/h (2 Bft) W 271 0 min 0,000 mm 0,8 UV-I 169 W/m 7,4 C 16,2 C 8,0 km/h (2 Bft) 100,00 %
10.11.2015 10:33 16,2 C 55 % 1025,0 hPa 0,0 l/m 11,0 km/h (2 Bft) W 280 0 min 0,000 mm 0,8 UV-I 162 W/m 7,2 C 14,0 C 17,7 km/h (3 Bft) 100,00 %
10.11.2015 10:34 16,2 C 55 % 1025,0 hPa 0,0 l/m 11,7 km/h (2 Bft) W-NW 292 0 min 0,000 mm 0,8 UV-I 159 W/m 7,2 C 13,8 C 17,7 km/h (3 Bft) 100,00 %
10.11.2015 10:35 16,2 C 54 % 1025,1 hPa 0,0 l/m 9,9 km/h (2 Bft) W 271 0 min 0,000 mm 0,8 UV-I 158 W/m 6,9 C 14,5 C 14,5 km/h (3 Bft) 100,00 %
10.11.2015 10:36 16,2 C 55 % 1025,1 hPa 0,0 l/m 11,3 km/h (2 Bft) W 274 0 min 0,000 mm 0,8 UV-I 158 W/m 7,2 C 13,9 C 16,1 km/h (3 Bft) 95,65 %
10.11.2015 10:37 16,2 C 54 % 1025,1 hPa 0,0 l/m 15,9 km/h (3 Bft) W-NW 293 0 min 0,000 mm 0,8 UV-I 158 W/m 6,9 C 12,4 C 20,9 km/h (4 Bft) 100,00 %
10.11.2015 10:38 16,2 C 54 % 1025,0 hPa 0,0 l/m 8,4 km/h (2 Bft) W-SW 252 0 min 0,000 mm 0,8 UV-I 158 W/m 6,9 C 15,2 C 17,7 km/h (3 Bft) 100,00 %
10.11.2015 10:39 16,2 C 55 % 1025,0 hPa 0,0 l/m 10,4 km/h (2 Bft) NW 320 0 min 0,000 mm 0,9 UV-I 156 W/m 7,2 C 14,3 C 16,1 km/h (3 Bft) 100,00 %
10.11.2015 10:40 16,2 C 54 % 1025,0 hPa 0,0 l/m 11,0 km/h (2 Bft) W-SW 255 0 min 0,000 mm 0,9 UV-I 156 W/m 6,9 C 14,0 C 14,5 km/h (3 Bft) 100,00 %
10.11.2015 10:41 16,2 C 54 % 1025,0 hPa 0,0 l/m 12,1 km/h (2 Bft) W 277 0 min 0,000 mm 0,9 UV-I 156 W/m 6,9 C 13,6 C 19,3 km/h (3 Bft) 100,00 %
10.11.2015 10:42 16,2 C 53 % 1025,0 hPa 0,0 l/m 12,6 km/h (3 Bft) W 276 0 min 0,000 mm 0,9 UV-I 156 W/m 6,6 C 13,4 C 17,7 km/h (3 Bft) 100,00 %
10.11.2015 10:43 16,2 C 54 % 1025,0 hPa 0,0 l/m 12,1 km/h (2 Bft) W-NW 294 0 min 0,000 mm 0,9 UV-I 156 W/m 6,9 C 13,6 C 24,1 km/h (4 Bft) 100,00 %
10.11.2015 10:44 16,2 C 54 % 1025,0 hPa 0,0 l/m 10,5 km/h (2 Bft) W-NW 292 0 min 0,000 mm 0,9 UV-I 152 W/m 6,9 C 14,2 C 17,7 km/h (3 Bft) 100,00 %
10.11.2015 10:45 16,2 C 53 % 1025,0 hPa 0,0 l/m 7,7 km/h (2 Bft) W 260 0 min 0,000 mm 0,9 UV-I 147 W/m 6,6 C 15,5 C 12,9 km/h (3 Bft) 100,00 %
10.11.2015 10:46 16,2 C 55 % 1025,0 hPa 0,0 l/m 9,5 km/h (2 Bft) W-NW 290 0 min 0,000 mm 0,9 UV-I 147 W/m 7,2 C 14,7 C 14,5 km/h (3 Bft) 100,00 %
10.11.2015 10:47 16,2 C 55 % 1025,0 hPa 0,0 l/m 10,3 km/h (2 Bft) W 271 0 min 0,000 mm 0,9 UV-I 149 W/m 7,2 C 14,3 C 16,1 km/h (3 Bft) 100,00 %
10.11.2015 10:48 16,2 C 54 % 1025,0 hPa 0,0 l/m 8,7 km/h (2 Bft) W-NW 302 0 min 0,000 mm 0,9 UV-I 146 W/m 6,9 C 15,0 C 14,5 km/h (3 Bft) 91,67 %
10.11.2015 10:49 16,2 C 54 % 1025,0 hPa 0,0 l/m 11,5 km/h (2 Bft) SW 215 0 min 0,000 mm 0,9 UV-I 139 W/m 6,9 C 13,8 C 19,3 km/h (3 Bft) 100,00 %
10.11.2015 10:50 16,2 C 53 % 1025,0 hPa 0,0 l/m 10,6 km/h (2 Bft) W 274 0 min 0,000 mm 0,9 UV-I 140 W/m 6,6 C 14,2 C 16,1 km/h (3 Bft) 100,00 %
10.11.2015 10:51 16,2 C 54 % 1025,0 hPa 0,0 l/m 9,0 km/h (2 Bft) W 279 0 min 0,000 mm 0,9 UV-I 150 W/m 6,9 C 14,9 C 14,5 km/h (3 Bft) 100,00 %
10.11.2015 10:52 16,2 C 54 % 1025,0 hPa 0,0 l/m 7,0 km/h (2 Bft) W-NW 283 0 min 0,000 mm 0,9 UV-I 162 W/m 6,9 C 15,9 C 16,1 km/h (3 Bft) 100,00 %
10.11.2015 10:53 16,2 C 54 % 1025,1 hPa 0,0 l/m 7,8 km/h (2 Bft) W 262 0 min 0,000 mm 0,9 UV-I 172 W/m 6,9 C 15,5 C 14,5 km/h (3 Bft) 95,65 %
10.11.2015 10:54 16,2 C 55 % 1025,1 hPa 0,0 l/m 4,3 km/h (1 Bft) NW 314 0 min 0,000 mm 0,9 UV-I 177 W/m 7,2 C 16,2 C 6,4 km/h (2 Bft) 100,00 %
10.11.2015 10:55 16,2 C 52 % 1025,0 hPa 0,0 l/m 9,7 km/h (2 Bft) W 267 0 min 0,000 mm 0,9 UV-I 176 W/m 6,3 C 14,6 C 17,7 km/h (3 Bft) 100,00 %
10.11.2015 10:56 16,2 C 53 % 1025,1 hPa 0,0 l/m 9,2 km/h (2 Bft) W-NW 283 0 min 0,000 mm 0,8 UV-I 173 W/m 6,6 C 14,8 C 14,5 km/h (3 Bft) 100,00 %
10.11.2015 10:57 16,2 C 53 % 1025,0 hPa 0,0 l/m 11,0 km/h (2 Bft) W 280 0 min 0,000 mm 0,8 UV-I 170 W/m 6,6 C 14,0 C 14,5 km/h (3 Bft) 96,15 %
10.11.2015 10:58 16,3 C 53 % 1025,0 hPa 0,0 l/m 12,6 km/h (3 Bft) W-NW 284 0 min 0,000 mm 0,8 UV-I 162 W/m 6,7 C 13,6 C 20,9 km/h (4 Bft) 100,00 %
10.11.2015 10:59 16,3 C 53 % 1025,1 hPa 0,0 l/m 12,3 km/h (3 Bft) NW 304 0 min 0,000 mm 0,7 UV-I 150 W/m 6,7 C 13,7 C 19,3 km/h (3 Bft) 100,00 %
10.11.2015 11:00 16,3 C 53 % 1025,1 hPa 0,0 l/m 6,0 km/h (2 Bft) W 268 0 min 0,000 mm 0,7 UV-I 140 W/m 6,7 C 16,3 C 11,3 km/h (2 Bft) 100,00 %
10.11.2015 11:01 16,3 C 53 % 1025,1 hPa 0,0 l/m 9,3 km/h (2 Bft) W 278 0 min 0,152 mm 0,6 UV-I 131 W/m 6,7 C 14,9 C 17,7 km/h (3 Bft) 100,00 %
10.11.2015 11:02 16,3 C 53 % 1025,1 hPa 0,0 l/m 10,1 km/h (2 Bft) W-SW 252 0 min 0,000 mm 0,6 UV-I 128 W/m 6,7 C 14,5 C 19,3 km/h (3 Bft) 100,00 %
10.11.2015 11:03 16,3 C 54 % 1025,1 hPa 0,0 l/m 8,7 km/h (2 Bft) W-SW 255 0 min 0,000 mm 0,6 UV-I 127 W/m 7,0 C 15,1 C 12,9 km/h (3 Bft) 95,83 %
10.11.2015 11:04 16,3 C 53 % 1025,1 hPa 0,0 l/m 10,5 km/h (2 Bft) W-NW 285 0 min 0,000 mm 0,6 UV-I 124 W/m 6,7 C 14,3 C 14,5 km/h (3 Bft) 100,00 %
10.11.2015 11:05 16,3 C 53 % 1025,1 hPa 0,0 l/m 9,1 km/h (2 Bft) W-SW 253 0 min 0,000 mm 0,6 UV-I 123 W/m 6,7 C 14,9 C 14,5 km/h (3 Bft) 95,83 %
10.11.2015 11:06 16,3 C 53 % 1025,1 hPa 0,0 l/m 11,1 km/h (2 Bft) W 261 0 min 0,000 mm 0,6 UV-I 123 W/m 6,7 C 14,1 C 17,7 km/h (3 Bft) 100,00 %
10.11.2015 11:07 16,3 C 53 % 1025,1 hPa 0,0 l/m 8,8 km/h (2 Bft) W-SW 237 0 min 0,000 mm 0,6 UV-I 123 W/m 6,7 C 15,1 C 14,5 km/h (3 Bft) 100,00 %
10.11.2015 11:08 16,3 C 52 % 1025,1 hPa 0,0 l/m 6,6 km/h (2 Bft) W 271 0 min 0,000 mm 0,6 UV-I 125 W/m 6,4 C 16,2 C 11,3 km/h (2 Bft) 100,00 %
10.11.2015 11:09 16,3 C 53 % 1025,1 hPa 0,0 l/m 5,7 km/h (1 Bft) W 273 0 min 0,000 mm 0,6 UV-I 123 W/m 6,7 C 16,3 C 9,7 km/h (2 Bft) 100,00 %
10.11.2015 11:10 16,3 C 53 % 1025,1 hPa 0,0 l/m 5,2 km/h (1 Bft) W-SW 250 0 min 0,000 mm 0,6 UV-I 120 W/m 6,7 C 16,3 C 11,3 km/h (2 Bft) 100,00 %
10.11.2015 11:11 16,3 C 52 % 1025,1 hPa 0,0 l/m 10,6 km/h (2 Bft) SW 229 0 min 0,000 mm 0,7 UV-I 121 W/m 6,4 C 14,3 C 16,1 km/h (3 Bft) 100,00 %
10.11.2015 11:12 16,4 C 51 % 1025,2 hPa 0,0 l/m 14,6 km/h (3 Bft) W-NW 300 0 min 0,000 mm 0,7 UV-I 131 W/m 6,2 C 13,0 C 19,3 km/h (3 Bft) 100,00 %
10.11.2015 11:13 16,4 C 52 % 1025,1 hPa 0,0 l/m 14,5 km/h (3 Bft) W 267 0 min 0,000 mm 0,7 UV-I 142 W/m 6,5 C 13,0 C 20,9 km/h (4 Bft) 100,00 %
10.11.2015 11:14 16,4 C 52 % 1025,1 hPa 0,0 l/m 8,0 km/h (2 Bft) W-SW 253 0 min 0,000 mm 0,7 UV-I 143 W/m 6,5 C 15,6 C 11,3 km/h (2 Bft) 100,00 %
10.11.2015 11:15 16,4 C 52 % 1025,1 hPa 0,0 l/m 10,2 km/h (2 Bft) NW 315 0 min 0,000 mm 0,7 UV-I 142 W/m 6,5 C 14,6 C 17,7 km/h (3 Bft) 100,00 %
10.11.2015 11:16 16,5 C 52 % 1025,1 hPa 0,0 l/m 8,5 km/h (2 Bft) NW 304 0 min 0,000 mm 0,7 UV-I 141 W/m 6,6 C 15,4 C 16,1 km/h (3 Bft) 100,00 %
10.11.2015 11:17 16,5 C 53 % 1025,1 hPa 0,0 l/m 6,3 km/h (2 Bft) W-NW 286 0 min 0,000 mm 0,7 UV-I 141 W/m 6,9 C 16,5 C 11,3 km/h (2 Bft) 100,00 %
10.11.2015 11:18 16,5 C 53 % 1025,1 hPa 0,0 l/m 7,6 km/h (2 Bft) W-SW 253 0 min 0,000 mm 0,7 UV-I 141 W/m 6,9 C 15,9 C 14,5 km/h (3 Bft) 100,00 %
10.11.2015 11:19 16,5 C 52 % 1025,2 hPa 0,0 l/m 10,2 km/h (2 Bft) W-SW 240 0 min 0,000 mm 0,7 UV-I 143 W/m 6,6 C 14,7 C 17,7 km/h (3 Bft) 100,00 %
10.11.2015 11:20 16,5 C 52 % 1025,1 hPa 0,0 l/m 7,9 km/h (2 Bft) W 267 0 min 0,000 mm 0,8 UV-I 147 W/m 6,6 C 15,7 C 11,3 km/h (2 Bft) 100,00 %
10.11.2015 11:21 16,6 C 51 % 1025,0 hPa 0,0 l/m 12,1 km/h (2 Bft) W-NW 291 0 min 0,000 mm 0,8 UV-I 149 W/m 6,4 C 14,1 C 16,1 km/h (3 Bft) 100,00 %
10.11.2015 11:22 16,6 C 52 % 1025,1 hPa 0,0 l/m 7,7 km/h (2 Bft) W 279 0 min 0,000 mm 0,8 UV-I 149 W/m 6,7 C 15,9 C 12,9 km/h (3 Bft) 95,65 %
10.11.2015 11:23 16,6 C 52 % 1025,1 hPa 0,0 l/m 5,9 km/h (2 Bft) W 274 0 min 0,000 mm 0,8 UV-I 149 W/m 6,7 C 16,6 C 11,3 km/h (2 Bft) 100,00 %
10.11.2015 11:24 16,6 C 53 % 1025,0 hPa 0,0 l/m 5,9 km/h (2 Bft) W-NW 284 0 min 0,000 mm 0,8 UV-I 149 W/m 7,0 C 16,6 C 12,9 km/h (3 Bft) 100,00 %
10.11.2015 11:25 16,6 C 52 % 1025,0 hPa 0,0 l/m 7,4 km/h (2 Bft) W 268 0 min 0,000 mm 0,8 UV-I 147 W/m 6,7 C 16,1 C 14,5 km/h (3 Bft) 100,00 %
10.11.2015 11:26 16,6 C 52 % 1025,1 hPa 0,0 l/m 11,1 km/h (2 Bft) W-SW 252 0 min 0,000 mm 0,8 UV-I 143 W/m 6,7 C 14,4 C 14,5 km/h (3 Bft) 95,65 %
10.11.2015 11:27 16,6 C 52 % 1025,0 hPa 0,0 l/m 6,9 km/h (2 Bft) W 275 0 min 0,000 mm 0,8 UV-I 140 W/m 6,7 C 16,3 C 11,3 km/h (2 Bft) 95,83 %
10.11.2015 11:28 16,6 C 51 % 1025,0 hPa 0,0 l/m 9,5 km/h (2 Bft) W-SW 251 0 min 0,000 mm 0,7 UV-I 136 W/m 6,4 C 15,1 C 17,7 km/h (3 Bft) 100,00 %
10.11.2015 11:29 16,6 C 52 % 1025,0 hPa 0,0 l/m 7,0 km/h (2 Bft) SW 232 0 min 0,000 mm 0,7 UV-I 129 W/m 6,7 C 16,3 C 12,9 km/h (3 Bft) 100,00 %
10.11.2015 11:30 16,6 C 52 % 1025,0 hPa 0,0 l/m 8,7 km/h (2 Bft) SW 219 0 min 0,000 mm 0,7 UV-I 122 W/m 6,7 C 15,5 C 12,9 km/h (3 Bft) 95,83 %
10.11.2015 11:31 16,6 C 52 % 1025,0 hPa 0,0 l/m 8,1 km/h (2 Bft) W-SW 246 0 min 0,000 mm 0,7 UV-I 119 W/m 6,7 C 15,7 C 12,9 km/h (3 Bft) 100,00 %
10.11.2015 11:32 16,6 C 52 % 1025,0 hPa 0,0 l/m 4,2 km/h (1 Bft) W-SW 240 0 min 0,000 mm 0,7 UV-I 114 W/m 6,7 C 16,6 C 6,4 km/h (2 Bft) 100,00 %
10.11.2015 11:33 16,6 C 52 % 1025,0 hPa 0,0 l/m 5,2 km/h (1 Bft) W 275 0 min 0,000 mm 0,6 UV-I 109 W/m 6,7 C 16,6 C 9,7 km/h (2 Bft) 95,65 %
10.11.2015 11:34 16,6 C 52 % 1025,0 hPa 0,0 l/m 5,3 km/h (1 Bft) W-SW 247 0 min 0,000 mm 0,6 UV-I 107 W/m 6,7 C 16,6 C 9,7 km/h (2 Bft) 95,83 %
10.11.2015 11:35 16,5 C 53 % 1025,0 hPa 0,0 l/m 4,2 km/h (1 Bft) W-NW 297 0 min 0,000 mm 0,6 UV-I 105 W/m 6,9 C 16,5 C 12,9 km/h (3 Bft) 100,00 %
10.11.2015 11:36 16,5 C 52 % 1024,9 hPa 0,0 l/m 9,7 km/h (2 Bft) W 269 0 min 0,000 mm 0,6 UV-I 103 W/m 6,6 C 14,9 C 16,1 km/h (3 Bft) 100,00 %
10.11.2015 11:37 16,5 C 53 % 1024,9 hPa 0,0 l/m 5,0 km/h (1 Bft) W 270 0 min 0,000 mm 0,6 UV-I 99 W/m 6,9 C 16,5 C 6,4 km/h (2 Bft) 100,00 %
10.11.2015 11:38 16,5 C 53 % 1024,9 hPa 0,0 l/m 4,9 km/h (1 Bft) W 277 0 min 0,000 mm 0,6 UV-I 97 W/m 6,9 C 16,5 C 9,7 km/h (2 Bft) 100,00 %
10.11.2015 11:39 16,5 C 53 % 1024,9 hPa 0,0 l/m 8,2 km/h (2 Bft) W-SW 242 0 min 0,000 mm 0,6 UV-I 92 W/m 6,9 C 15,6 C 17,7 km/h (3 Bft) 100,00 %
10.11.2015 11:40 16,4 C 54 % 1024,9 hPa 0,0 l/m 4,1 km/h (1 Bft) W-SW 240 0 min 0,000 mm 0,5 UV-I 85 W/m 7,1 C 16,4 C 6,4 km/h (2 Bft) 100,00 %
10.11.2015 11:41 16,4 C 54 % 1024,9 hPa 0,0 l/m 4,8 km/h (1 Bft) W 266 0 min 0,000 mm 0,5 UV-I 79 W/m 7,1 C 16,4 C 11,3 km/h (2 Bft) 100,00 %
10.11.2015 11:42 16,4 C 53 % 1024,8 hPa 0,0 l/m 7,8 km/h (2 Bft) W-SW 248 0 min 0,000 mm 0,5 UV-I 75 W/m 6,8 C 15,7 C 16,1 km/h (3 Bft) 100,00 %
10.11.2015 11:43 16,4 C 53 % 1024,8 hPa 0,0 l/m 5,6 km/h (1 Bft) W 273 0 min 0,000 mm 0,5 UV-I 71 W/m 6,8 C 16,4 C 9,7 km/h (2 Bft) 100,00 %
10.11.2015 11:44 16,4 C 54 % 1024,8 hPa 0,0 l/m 4,4 km/h (1 Bft) SW 219 0 min 0,000 mm 0,4 UV-I 67 W/m 7,1 C 16,4 C 6,4 km/h (2 Bft) 100,00 %
10.11.2015 11:45 16,3 C 54 % 1024,8 hPa 0,0 l/m 4,6 km/h (1 Bft) W-NW 282 0 min 0,000 mm 0,0 UV-I 64 W/m 7,0 C 16,3 C 9,7 km/h (2 Bft) 100,00 %
10.11.2015 11:46 16,3 C 54 % 1024,8 hPa 0,0 l/m 6,0 km/h (2 Bft) W-NW 294 0 min 0,000 mm 0,0 UV-I 63 W/m 7,0 C 16,3 C 9,7 km/h (2 Bft) 100,00 %
10.11.2015 11:47 16,3 C 54 % 1024,8 hPa 0,0 l/m 5,9 km/h (2 Bft) W-SW 250 0 min 0,000 mm 0,0 UV-I 62 W/m 7,0 C 16,3 C 9,7 km/h (2 Bft) 100,00 %
10.11.2015 11:48 16,3 C 55 % 1024,8 hPa 0,0 l/m 5,1 km/h (1 Bft) SW 234 0 min 0,000 mm 0,0 UV-I 58 W/m 7,2 C 16,3 C 9,7 km/h (2 Bft) 100,00 %
10.11.2015 11:49 16,3 C 54 % 1024,8 hPa 0,0 l/m 5,6 km/h (1 Bft) W 267 0 min 0,000 mm 0,0 UV-I 58 W/m 7,0 C 16,3 C 11,3 km/h (2 Bft) 100,00 %
10.11.2015 11:50 16,2 C 55 % 1024,7 hPa 0,0 l/m 3,9 km/h (1 Bft) W-NW 292 0 min 0,000 mm 0,0 UV-I 58 W/m 7,2 C 16,2 C 6,4 km/h (2 Bft) 100,00 %
10.11.2015 11:51 16,2 C 53 % 1024,8 hPa 0,0 l/m 8,7 km/h (2 Bft) S-SW 213 0 min 0,000 mm 0,0 UV-I 58 W/m 6,6 C 15,0 C 12,9 km/h (3 Bft) 100,00 %
10.11.2015 11:52 16,2 C 53 % 1024,7 hPa 0,0 l/m 7,4 km/h (2 Bft) W 263 0 min 0,000 mm 0,0 UV-I 56 W/m 6,6 C 15,7 C 9,7 km/h (2 Bft) 100,00 %
10.11.2015 11:53 16,2 C 53 % 1024,7 hPa 0,0 l/m 9,6 km/h (2 Bft) SW 220 0 min 0,000 mm 0,0 UV-I 54 W/m 6,6 C 14,6 C 20,9 km/h (4 Bft) 100,00 %
10.11.2015 11:54 16,2 C 55 % 1024,7 hPa 0,0 l/m 4,6 km/h (1 Bft) W-SW 247 0 min 0,000 mm 0,0 UV-I 53 W/m 7,2 C 16,2 C 8,0 km/h (2 Bft) 100,00 %
10.11.2015 11:55 16,2 C 53 % 1024,7 hPa 0,0 l/m 6,3 km/h (2 Bft) W-SW 240 0 min 0,000 mm 0,0 UV-I 52 W/m 6,6 C 16,2 C 11,3 km/h (2 Bft) 100,00 %
10.11.2015 11:56 16,2 C 54 % 1024,6 hPa 0,0 l/m 8,6 km/h (2 Bft) W 270 0 min 0,000 mm 0,0 UV-I 51 W/m 6,9 C 15,1 C 12,9 km/h (3 Bft) 100,00 %
10.11.2015 11:57 16,2 C 54 % 1024,6 hPa 0,0 l/m 5,6 km/h (1 Bft) W-NW 285 0 min 0,000 mm 0,0 UV-I 50 W/m 6,9 C 16,2 C 9,7 km/h (2 Bft) 100,00 %
10.11.2015 11:58 16,2 C 54 % 1024,6 hPa 0,0 l/m 6,1 km/h (2 Bft) W-SW 252 0 min 0,000 mm 0,0 UV-I 47 W/m 6,9 C 16,2 C 16,1 km/h (3 Bft) 100,00 %
10.11.2015 11:59 16,2 C 53 % 1024,6 hPa 0,0 l/m 7,8 km/h (2 Bft) W 273 0 min 0,000 mm 0,0 UV-I 47 W/m 6,6 C 15,5 C 12,9 km/h (3 Bft) 95,83 %
10.11.2015 12:00 16,2 C 54 % 1024,6 hPa 0,0 l/m 11,3 km/h (2 Bft) W 277 0 min 0,000 mm 0,0 UV-I 47 W/m 6,9 C 13,9 C 19,3 km/h (3 Bft) 100,00 %
10.11.2015 12:01 16,2 C 53 % 1024,6 hPa 0,0 l/m 8,0 km/h (2 Bft) W-NW 284 0 min 0,102 mm 0,0 UV-I 50 W/m 6,6 C 15,4 C 16,1 km/h (3 Bft) 100,00 %
10.11.2015 12:02 16,2 C 54 % 1024,6 hPa 0,0 l/m 6,4 km/h (2 Bft) W 265 0 min 0,000 mm 0,0 UV-I 52 W/m 6,9 C 16,2 C 11,3 km/h (2 Bft) 95,83 %
10.11.2015 12:03 16,1 C 54 % 1024,5 hPa 0,0 l/m 9,2 km/h (2 Bft) W-NW 286 0 min 0,000 mm 0,0 UV-I 54 W/m 6,8 C 14,7 C 12,9 km/h (3 Bft) 100,00 %
10.11.2015 12:04 16,1 C 54 % 1024,5 hPa 0,0 l/m 9,8 km/h (2 Bft) W 269 0 min 0,000 mm 0,0 UV-I 54 W/m 6,8 C 14,4 C 12,9 km/h (3 Bft) 100,00 %
10.11.2015 12:05 16,1 C 55 % 1024,4 hPa 0,0 l/m 7,8 km/h (2 Bft) W-SW 247 0 min 0,000 mm 0,0 UV-I 54 W/m 7,1 C 15,4 C 12,9 km/h (3 Bft) 100,00 %
10.11.2015 12:06 16,1 C 55 % 1024,4 hPa 0,0 l/m 7,2 km/h (2 Bft) SW 232 0 min 0,000 mm 0,0 UV-I 53 W/m 7,1 C 15,7 C 12,9 km/h (3 Bft) 100,00 %
10.11.2015 12:07 16,1 C 55 % 1024,4 hPa 0,0 l/m 8,9 km/h (2 Bft) W-NW 301 0 min 0,000 mm 0,0 UV-I 56 W/m 7,1 C 14,8 C 17,7 km/h (3 Bft) 100,00 %
10.11.2015 12:08 16,1 C 55 % 1024,4 hPa 0,0 l/m 11,1 km/h (2 Bft) N-NW 338 0 min 0,000 mm 0,0 UV-I 59 W/m 7,1 C 13,9 C 20,9 km/h (4 Bft) 100,00 %
10.11.2015 12:09 16,1 C 55 % 1024,4 hPa 0,0 l/m 7,5 km/h (2 Bft) NW 305 0 min 0,000 mm 0,0 UV-I 61 W/m 7,1 C 15,5 C 11,3 km/h (2 Bft) 100,00 %
10.11.2015 12:10 16,1 C 55 % 1024,3 hPa 0,0 l/m 6,2 km/h (2 Bft) N 5 0 min 0,000 mm 0,0 UV-I 66 W/m 7,1 C 16,1 C 11,3 km/h (2 Bft) 100,00 %
10.11.2015 12:11 16,1 C 55 % 1024,3 hPa 0,0 l/m 9,4 km/h (2 Bft) W 259 0 min 0,000 mm 0,4 UV-I 77 W/m 7,1 C 14,6 C 16,1 km/h (3 Bft) 100,00 %
10.11.2015 12:12 16,1 C 54 % 1024,3 hPa 0,0 l/m 11,8 km/h (2 Bft) W 261 0 min 0,000 mm 0,5 UV-I 85 W/m 6,8 C 13,6 C 22,5 km/h (4 Bft) 100,00 %
10.11.2015 12:13 16,2 C 54 % 1024,3 hPa 0,0 l/m 14,0 km/h (3 Bft) SW 228 0 min 0,000 mm 0,5 UV-I 87 W/m 6,9 C 13,0 C 19,3 km/h (3 Bft) 95,65 %
10.11.2015 12:14 16,2 C 54 % 1024,3 hPa 0,0 l/m 8,6 km/h (2 Bft) S-SW 210 0 min 0,000 mm 0,5 UV-I 86 W/m 6,9 C 15,1 C 14,5 km/h (3 Bft) 100,00 %
10.11.2015 12:15 16,2 C 54 % 1024,2 hPa 0,0 l/m 10,0 km/h (2 Bft) SW 232 0 min 0,000 mm 0,5 UV-I 86 W/m 6,9 C 14,4 C 17,7 km/h (3 Bft) 100,00 %
10.11.2015 12:16 16,2 C 53 % 1024,3 hPa 0,0 l/m 11,5 km/h (2 Bft) W-SW 246 0 min 0,000 mm 0,5 UV-I 86 W/m 6,6 C 13,8 C 19,3 km/h (3 Bft) 100,00 %
10.11.2015 12:17 16,2 C 53 % 1024,2 hPa 0,0 l/m 9,3 km/h (2 Bft) W 270 0 min 0,000 mm 0,5 UV-I 86 W/m 6,6 C 14,7 C 16,1 km/h (3 Bft) 100,00 %
10.11.2015 12:18 16,3 C 53 % 1024,3 hPa 0,0 l/m 12,3 km/h (3 Bft) W 262 0 min 0,000 mm 0,5 UV-I 88 W/m 6,7 C 13,7 C 19,3 km/h (3 Bft) 100,00 %
10.11.2015 12:19 16,3 C 53 % 1024,2 hPa 0,0 l/m 8,0 km/h (2 Bft) SW 224 0 min 0,000 mm 0,5 UV-I 93 W/m 6,7 C 15,5 C 14,5 km/h (3 Bft) 100,00 %
10.11.2015 12:20 16,3 C 54 % 1024,2 hPa 0,0 l/m 8,4 km/h (2 Bft) SW 221 0 min 0,000 mm 0,5 UV-I 97 W/m 7,0 C 15,3 C 16,1 km/h (3 Bft) 100,00 %
10.11.2015 12:21 16,3 C 54 % 1024,2 hPa 0,0 l/m 6,5 km/h (2 Bft) W-SW 239 0 min 0,000 mm 0,5 UV-I 101 W/m 7,0 C 16,3 C 11,3 km/h (2 Bft) 100,00 %
10.11.2015 12:22 16,3 C 54 % 1024,2 hPa 0,0 l/m 7,3 km/h (2 Bft) W-NW 296 0 min 0,000 mm 0,5 UV-I 104 W/m 7,0 C 15,8 C 12,9 km/h (3 Bft) 100,00 %
10.11.2015 12:23 16,3 C 53 % 1024,2 hPa 0,0 l/m 8,5 km/h (2 Bft) SW 229 0 min 0,000 mm 0,5 UV-I 104 W/m 6,7 C 15,2 C 14,5 km/h (3 Bft) 100,00 %
10.11.2015 12:24 16,3 C 55 % 1024,2 hPa 0,0 l/m 7,4 km/h (2 Bft) W 279 0 min 0,000 mm 0,5 UV-I 104 W/m 7,2 C 15,8 C 14,5 km/h (3 Bft) 96,15 %
10.11.2015 12:25 16,3 C 54 % 1024,2 hPa 0,0 l/m 9,7 km/h (2 Bft) W 259 0 min 0,000 mm 0,6 UV-I 104 W/m 7,0 C 14,7 C 14,5 km/h (3 Bft) 100,00 %
10.11.2015 12:26 16,3 C 54 % 1024,1 hPa 0,0 l/m 8,5 km/h (2 Bft) SW 227 0 min 0,000 mm 0,6 UV-I 106 W/m 7,0 C 15,2 C 14,5 km/h (3 Bft) 100,00 %
10.11.2015 12:27 16,3 C 54 % 1024,1 hPa 0,0 l/m 7,1 km/h (2 Bft) W-NW 285 0 min 0,000 mm 0,6 UV-I 108 W/m 7,0 C 15,9 C 12,9 km/h (3 Bft) 100,00 %
10.11.2015 12:28 16,3 C 55 % 1024,1 hPa 0,0 l/m 6,6 km/h (2 Bft) S-SW 209 0 min 0,000 mm 0,6 UV-I 109 W/m 7,2 C 16,2 C 14,5 km/h (3 Bft) 95,65 %
10.11.2015 12:29 16,3 C 55 % 1024,2 hPa 0,0 l/m 7,2 km/h (2 Bft) W 273 0 min 0,000 mm 0,6 UV-I 114 W/m 7,2 C 15,9 C 11,3 km/h (2 Bft) 95,83 %
10.11.2015 12:30 16,3 C 54 % 1024,1 hPa 0,0 l/m 5,6 km/h (1 Bft) W-SW 247 0 min 0,000 mm 0,6 UV-I 115 W/m 7,0 C 16,3 C 9,7 km/h (2 Bft) 100,00 %
10.11.2015 12:31 16,3 C 54 % 1024,1 hPa 0,0 l/m 6,7 km/h (2 Bft) W 261 0 min 0,000 mm 0,6 UV-I 117 W/m 7,0 C 16,2 C 14,5 km/h (3 Bft) 100,00 %
10.11.2015 12:32 16,3 C 54 % 1024,1 hPa 0,0 l/m 7,7 km/h (2 Bft) SW 219 0 min 0,000 mm 0,7 UV-I 118 W/m 7,0 C 15,6 C 16,1 km/h (3 Bft) 100,00 %
10.11.2015 12:33 16,3 C 55 % 1024,1 hPa 0,0 l/m 8,1 km/h (2 Bft) W 263 0 min 0,000 mm 0,7 UV-I 118 W/m 7,2 C 15,4 C 14,5 km/h (3 Bft) 95,83 %
10.11.2015 12:34 16,3 C 54 % 1024,1 hPa 0,0 l/m 8,8 km/h (2 Bft) W-SW 253 0 min 0,000 mm 0,7 UV-I 114 W/m 7,0 C 15,1 C 14,5 km/h (3 Bft) 91,30 %
10.11.2015 12:35 16,3 C 55 % 1024,0 hPa 0,0 l/m 6,0 km/h (2 Bft) W 277 0 min 0,000 mm 0,7 UV-I 109 W/m 7,2 C 16,3 C 9,7 km/h (2 Bft) 100,00 %
10.11.2015 12:36 16,4 C 55 % 1024,1 hPa 0,0 l/m 6,6 km/h (2 Bft) SW 223 0 min 0,000 mm 0,7 UV-I 106 W/m 7,3 C 16,3 C 9,7 km/h (2 Bft) 100,00 %
10.11.2015 12:37 16,3 C 56 % 1024,1 hPa 0,0 l/m 6,4 km/h (2 Bft) W 269 0 min 0,000 mm 0,7 UV-I 105 W/m 7,5 C 16,3 C 11,3 km/h (2 Bft) 100,00 %
10.11.2015 12:38 16,4 C 55 % 1024,1 hPa 0,0 l/m 6,9 km/h (2 Bft) W-SW 238 0 min 0,000 mm 0,7 UV-I 106 W/m 7,3 C 16,1 C 9,7 km/h (2 Bft) 100,00 %
10.11.2015 12:39 16,4 C 55 % 1024,1 hPa 0,0 l/m 8,8 km/h (2 Bft) W-SW 252 0 min 0,000 mm 0,7 UV-I 109 W/m 7,3 C 15,2 C 16,1 km/h (3 Bft) 100,00 %
10.11.2015 12:40 16,4 C 55 % 1024,0 hPa 0,0 l/m 6,6 km/h (2 Bft) W-NW 291 0 min 0,000 mm 0,6 UV-I 107 W/m 7,3 C 16,3 C 11,3 km/h (2 Bft) 100,00 %
10.11.2015 12:41 16,4 C 55 % 1024,1 hPa 0,0 l/m 8,1 km/h (2 Bft) W-NW 287 0 min 0,000 mm 0,6 UV-I 100 W/m 7,3 C 15,5 C 14,5 km/h (3 Bft) 100,00 %
10.11.2015 12:42 16,4 C 55 % 1024,1 hPa 0,0 l/m 6,8 km/h (2 Bft) S-SW 210 0 min 0,000 mm 0,6 UV-I 93 W/m 7,3 C 16,2 C 9,7 km/h (2 Bft) 91,30 %
10.11.2015 12:43 16,4 C 55 % 1024,1 hPa 0,0 l/m 6,6 km/h (2 Bft) W-SW 254 0 min 0,000 mm 0,6 UV-I 91 W/m 7,3 C 16,3 C 11,3 km/h (2 Bft) 100,00 %
10.11.2015 12:44 16,4 C 54 % 1024,1 hPa 0,0 l/m 6,4 km/h (2 Bft) W-NW 287 0 min 0,000 mm 0,6 UV-I 94 W/m 7,1 C 16,4 C 9,7 km/h (2 Bft) 100,00 %
10.11.2015 12:45 16,4 C 54 % 1024,2 hPa 0,0 l/m 7,3 km/h (2 Bft) W 279 0 min 0,000 mm 0,6 UV-I 97 W/m 7,1 C 15,9 C 11,3 km/h (2 Bft) 100,00 %
10.11.2015 12:46 16,4 C 54 % 1024,2 hPa 0,0 l/m 4,9 km/h (1 Bft) S-SW 209 0 min 0,000 mm 0,6 UV-I 97 W/m 7,1 C 16,4 C 6,4 km/h (2 Bft) 100,00 %
10.11.2015 12:47 16,4 C 55 % 1024,2 hPa 0,0 l/m 6,0 km/h (2 Bft) W-NW 300 0 min 0,000 mm 0,6 UV-I 100 W/m 7,3 C 16,4 C 11,3 km/h (2 Bft) 100,00 %
10.11.2015 12:48 16,4 C 54 % 1024,2 hPa 0,0 l/m 6,6 km/h (2 Bft) W-NW 299 0 min 0,000 mm 0,6 UV-I 107 W/m 7,1 C 16,3 C 11,3 km/h (2 Bft) 100,00 %
10.11.2015 12:49 16,4 C 55 % 1024,1 hPa 0,0 l/m 3,6 km/h (1 Bft) NW 305 0 min 0,000 mm 0,6 UV-I 110 W/m 7,3 C 16,4 C 6,4 km/h (2 Bft) 95,65 %
10.11.2015 12:50 16,4 C 54 % 1024,1 hPa 0,0 l/m 9,5 km/h (2 Bft) W 277 0 min 0,000 mm 0,6 UV-I 111 W/m 7,1 C 14,9 C 16,1 km/h (3 Bft) 100,00 %
10.11.2015 12:51 16,5 C 54 % 1024,1 hPa 0,0 l/m 9,4 km/h (2 Bft) W 273 0 min 0,000 mm 0,7 UV-I 111 W/m 7,2 C 15,0 C 14,5 km/h (3 Bft) 95,65 %
10.11.2015 12:52 16,5 C 53 % 1024,0 hPa 0,0 l/m 6,7 km/h (2 Bft) SW 217 0 min 0,000 mm 0,7 UV-I 118 W/m 6,9 C 16,4 C 11,3 km/h (2 Bft) 100,00 %
10.11.2015 12:53 16,5 C 54 % 1024,0 hPa 0,0 l/m 6,6 km/h (2 Bft) SW 223 0 min 0,000 mm 0,7 UV-I 121 W/m 7,2 C 16,4 C 9,7 km/h (2 Bft) 100,00 %
10.11.2015 12:54 16,5 C 55 % 1024,0 hPa 0,0 l/m 9,2 km/h (2 Bft) W 279 0 min 0,000 mm 0,7 UV-I 121 W/m 7,4 C 15,1 C 14,5 km/h (3 Bft) 100,00 %
10.11.2015 12:55 16,5 C 54 % 1024,0 hPa 0,0 l/m 9,9 km/h (2 Bft) W-NW 292 0 min 0,000 mm 0,7 UV-I 120 W/m 7,2 C 14,8 C 17,7 km/h (3 Bft) 95,65 %
10.11.2015 12:56 16,5 C 55 % 1024,0 hPa 0,0 l/m 6,6 km/h (2 Bft) W 262 0 min 0,000 mm 0,6 UV-I 118 W/m 7,4 C 16,4 C 11,3 km/h (2 Bft) 100,00 %
10.11.2015 12:57 16,5 C 54 % 1024,0 hPa 0,0 l/m 9,7 km/h (2 Bft) NW 312 0 min 0,000 mm 0,6 UV-I 114 W/m 7,2 C 14,9 C 16,1 km/h (3 Bft) 100,00 %
10.11.2015 12:58 16,6 C 54 % 1024,0 hPa 0,0 l/m 8,6 km/h (2 Bft) W 266 0 min 0,000 mm 0,6 UV-I 104 W/m 7,3 C 15,5 C 14,5 km/h (3 Bft) 100,00 %
10.11.2015 12:59 16,6 C 54 % 1023,9 hPa 0,0 l/m 11,4 km/h (2 Bft) W 263 0 min 0,000 mm 0,6 UV-I 99 W/m 7,3 C 14,3 C 17,7 km/h (3 Bft) 100,00 %
10.11.2015 13:00 16,5 C 54 % 1023,9 hPa 0,0 l/m 10,5 km/h (2 Bft) W 275 0 min 0,000 mm 0,6 UV-I 97 W/m 7,2 C 14,6 C 16,1 km/h (3 Bft) 100,00 %
10.11.2015 13:01 16,5 C 54 % 1023,9 hPa 0,0 l/m 7,0 km/h (2 Bft) W 275 0 min 0,101 mm 0,6 UV-I 95 W/m 7,2 C 16,2 C 12,9 km/h (3 Bft) 96,00 %
10.11.2015 13:02 16,5 C 54 % 1023,9 hPa 0,0 l/m 5,4 km/h (1 Bft) W 273 0 min 0,000 mm 0,5 UV-I 96 W/m 7,2 C 16,5 C 8,0 km/h (2 Bft) 100,00 %
10.11.2015 13:03 16,5 C 53 % 1023,8 hPa 0,0 l/m 12,1 km/h (2 Bft) W-NW 292 0 min 0,000 mm 0,5 UV-I 98 W/m 6,9 C 14,0 C 19,3 km/h (3 Bft) 100,00 %
10.11.2015 13:04 16,5 C 54 % 1023,8 hPa 0,0 l/m 6,6 km/h (2 Bft) W 281 0 min 0,000 mm 0,5 UV-I 97 W/m 7,2 C 16,4 C 11,3 km/h (2 Bft) 100,00 %
10.11.2015 13:05 16,5 C 54 % 1023,8 hPa 0,0 l/m 6,4 km/h (2 Bft) W-SW 250 0 min 0,000 mm 0,5 UV-I 94 W/m 7,2 C 16,5 C 11,3 km/h (2 Bft) 100,00 %
10.11.2015 13:06 16,5 C 54 % 1023,8 hPa 0,0 l/m 7,6 km/h (2 Bft) W-NW 284 0 min 0,000 mm 0,5 UV-I 92 W/m 7,2 C 15,9 C 11,3 km/h (2 Bft) 95,65 %
10.11.2015 13:07 16,5 C 53 % 1023,8 hPa 0,0 l/m 9,5 km/h (2 Bft) W 279 0 min 0,000 mm 0,5 UV-I 88 W/m 6,9 C 15,0 C 12,9 km/h (3 Bft) 95,83 %
10.11.2015 13:08 16,5 C 53 % 1023,9 hPa 0,0 l/m 7,6 km/h (2 Bft) W-SW 258 0 min 0,000 mm 0,5 UV-I 84 W/m 6,9 C 15,9 C 12,9 km/h (3 Bft) 91,30 %
10.11.2015 13:09 16,5 C 54 % 1023,8 hPa 0,0 l/m 6,0 km/h (2 Bft) SW 227 0 min 0,000 mm 0,5 UV-I 86 W/m 7,2 C 16,5 C 11,3 km/h (2 Bft) 100,00 %
10.11.2015 13:10 16,5 C 54 % 1023,8 hPa 0,0 l/m 5,5 km/h (1 Bft) W 277 0 min 0,000 mm 0,5 UV-I 93 W/m 7,2 C 16,5 C 9,7 km/h (2 Bft) 100,00 %
10.11.2015 13:11 16,5 C 53 % 1023,8 hPa 0,0 l/m 5,7 km/h (1 Bft) SW 230 0 min 0,000 mm 0,5 UV-I 105 W/m 6,9 C 16,5 C 9,7 km/h (2 Bft) 95,83 %
10.11.2015 13:12 16,5 C 54 % 1023,8 hPa 0,0 l/m 7,1 km/h (2 Bft) W-SW 239 0 min 0,000 mm 0,5 UV-I 120 W/m 7,2 C 16,1 C 14,5 km/h (3 Bft) 100,00 %
10.11.2015 13:13 16,5 C 53 % 1023,8 hPa 0,0 l/m 7,4 km/h (2 Bft) W 266 0 min 0,000 mm 0,6 UV-I 136 W/m 6,9 C 16,0 C 12,9 km/h (3 Bft) 100,00 %
10.11.2015 13:14 16,6 C 54 % 1023,8 hPa 0,0 l/m 7,7 km/h (2 Bft) W-NW 293 0 min 0,000 mm 0,6 UV-I 145 W/m 7,3 C 15,9 C 12,9 km/h (3 Bft) 100,00 %
10.11.2015 13:15 16,6 C 53 % 1023,8 hPa 0,0 l/m 11,1 km/h (2 Bft) W-NW 293 0 min 0,000 mm 0,6 UV-I 151 W/m 7,0 C 14,4 C 17,7 km/h (3 Bft) 100,00 %
10.11.2015 13:16 16,6 C 52 % 1023,8 hPa 0,0 l/m 11,0 km/h (2 Bft) W 279 0 min 0,000 mm 0,6 UV-I 155 W/m 6,7 C 14,5 C 14,5 km/h (3 Bft) 95,65 %
10.11.2015 13:17 16,7 C 53 % 1023,8 hPa 0,0 l/m 6,9 km/h (2 Bft) W 265 0 min 0,000 mm 0,6 UV-I 156 W/m 7,1 C 16,4 C 11,3 km/h (2 Bft) 100,00 %
10.11.2015 13:18 16,7 C 53 % 1023,8 hPa 0,0 l/m 6,6 km/h (2 Bft) W 279 0 min 0,000 mm 0,6 UV-I 158 W/m 7,1 C 16,6 C 12,9 km/h (3 Bft) 95,65 %
10.11.2015 13:19 16,7 C 53 % 1023,8 hPa 0,0 l/m 7,6 km/h (2 Bft) S-SO 155 0 min 0,000 mm 0,6 UV-I 156 W/m 7,1 C 16,1 C 12,9 km/h (3 Bft) 100,00 %
10.11.2015 13:20 16,7 C 53 % 1023,8 hPa 0,0 l/m 7,7 km/h (2 Bft) W-NW 295 0 min 0,000 mm 0,6 UV-I 152 W/m 7,1 C 16,0 C 12,9 km/h (3 Bft) 100,00 %
10.11.2015 13:21 16,7 C 52 % 1023,8 hPa 0,0 l/m 7,0 km/h (2 Bft) W 271 0 min 0,000 mm 0,6 UV-I 146 W/m 6,8 C 16,4 C 11,3 km/h (2 Bft) 100,00 %
10.11.2015 13:22 16,8 C 52 % 1023,8 hPa 0,0 l/m 7,2 km/h (2 Bft) SW 217 0 min 0,000 mm 0,6 UV-I 141 W/m 6,9 C 16,4 C 9,7 km/h (2 Bft) 100,00 %
10.11.2015 13:23 16,8 C 52 % 1023,7 hPa 0,0 l/m 9,5 km/h (2 Bft) W 280 0 min 0,000 mm 0,6 UV-I 135 W/m 6,9 C 15,3 C 12,9 km/h (3 Bft) 100,00 %
10.11.2015 13:24 16,8 C 52 % 1023,8 hPa 0,0 l/m 8,2 km/h (2 Bft) W-NW 288 0 min 0,000 mm 0,6 UV-I 130 W/m 6,9 C 15,9 C 12,9 km/h (3 Bft) 100,00 %
10.11.2015 13:25 16,8 C 52 % 1023,7 hPa 0,0 l/m 7,4 km/h (2 Bft) W-NW 301 0 min 0,000 mm 0,6 UV-I 128 W/m 6,9 C 16,3 C 11,3 km/h (2 Bft) 95,65 %
10.11.2015 13:26 16,8 C 52 % 1023,7 hPa 0,0 l/m 10,1 km/h (2 Bft) W-SW 238 0 min 0,000 mm 0,6 UV-I 127 W/m 6,9 C 15,1 C 14,5 km/h (3 Bft) 100,00 %
10.11.2015 13:27 16,8 C 53 % 1023,8 hPa 0,0 l/m 4,7 km/h (1 Bft) W-NW 286 0 min 0,000 mm 0,5 UV-I 125 W/m 7,2 C 16,8 C 12,9 km/h (3 Bft) 100,00 %
10.11.2015 13:28 16,8 C 52 % 1023,8 hPa 0,0 l/m 6,1 km/h (2 Bft) SW 236 0 min 0,000 mm 0,5 UV-I 122 W/m 6,9 C 16,8 C 11,3 km/h (2 Bft) 100,00 %
10.11.2015 13:29 16,7 C 53 % 1023,7 hPa 0,0 l/m 7,3 km/h (2 Bft) W-NW 294 0 min 0,000 mm 0,5 UV-I 121 W/m 7,1 C 16,2 C 11,3 km/h (2 Bft) 100,00 %
10.11.2015 13:30 16,7 C 52 % 1023,7 hPa 0,0 l/m 9,1 km/h (2 Bft) W-NW 290 0 min 0,000 mm 0,5 UV-I 121 W/m 6,8 C 15,4 C 14,5 km/h (3 Bft) 100,00 %
10.11.2015 13:31 16,8 C 52 % 1023,7 hPa 0,0 l/m 9,7 km/h (2 Bft) W 271 0 min 0,000 mm 0,6 UV-I 121 W/m 6,9 C 15,2 C 14,5 km/h (3 Bft) 95,65 %
10.11.2015 13:32 16,7 C 53 % 1023,7 hPa 0,0 l/m 8,0 km/h (2 Bft) W 265 0 min 0,000 mm 0,6 UV-I 120 W/m 7,1 C 15,9 C 12,9 km/h (3 Bft) 100,00 %
10.11.2015 13:33 16,8 C 53 % 1023,7 hPa 0,0 l/m 6,6 km/h (2 Bft) W 273 0 min 0,000 mm 0,5 UV-I 118 W/m 7,2 C 16,7 C 11,3 km/h (2 Bft) 95,65 %
10.11.2015 13:34 16,8 C 53 % 1023,7 hPa 0,0 l/m 7,4 km/h (2 Bft) SW 219 0 min 0,000 mm 0,5 UV-I 115 W/m 7,2 C 16,3 C 11,3 km/h (2 Bft) 100,00 %
10.11.2015 13:35 16,7 C 54 % 1023,7 hPa 0,0 l/m 4,8 km/h (1 Bft) W 279 0 min 0,000 mm 0,5 UV-I 113 W/m 7,3 C 16,7 C 6,4 km/h (2 Bft) 100,00 %
10.11.2015 13:36 16,7 C 53 % 1023,7 hPa 0,0 l/m 10,3 km/h (2 Bft) NW 311 0 min 0,000 mm 0,5 UV-I 109 W/m 7,1 C 14,9 C 16,1 km/h (3 Bft) 100,00 %
10.11.2015 13:37 16,7 C 53 % 1023,7 hPa 0,0 l/m 5,9 km/h (2 Bft) W-SW 256 0 min 0,000 mm 0,5 UV-I 103 W/m 7,1 C 16,7 C 9,7 km/h (2 Bft) 100,00 %
10.11.2015 13:38 16,7 C 54 % 1023,7 hPa 0,0 l/m 6,0 km/h (2 Bft) W-SW 245 0 min 0,000 mm 0,5 UV-I 100 W/m 7,3 C 16,7 C 12,9 km/h (3 Bft) 95,83 %
10.11.2015 13:39 16,7 C 54 % 1023,7 hPa 0,0 l/m 5,9 km/h (2 Bft) SW 225 0 min 0,000 mm 0,5 UV-I 98 W/m 7,3 C 16,7 C 9,7 km/h (2 Bft) 100,00 %
10.11.2015 13:40 16,7 C 53 % 1023,7 hPa 0,0 l/m 8,1 km/h (2 Bft) W-SW 255 0 min 0,000 mm 0,5 UV-I 98 W/m 7,1 C 15,8 C 11,3 km/h (2 Bft) 93,33 %
10.11.2015 13:41 16,8 C 53 % 1023,7 hPa 0,0 l/m 8,2 km/h (2 Bft) W-NW 283 0 min 0,000 mm 0,5 UV-I 96 W/m 7,2 C 15,9 C 16,1 km/h (3 Bft) 100,00 %
10.11.2015 13:42 16,8 C 53 % 1023,7 hPa 0,0 l/m 5,8 km/h (2 Bft) W 260 0 min 0,000 mm 0,5 UV-I 96 W/m 7,2 C 16,8 C 9,7 km/h (2 Bft) 95,65 %
10.11.2015 13:43 16,8 C 53 % 1023,7 hPa 0,0 l/m 8,9 km/h (2 Bft) W 267 0 min 0,000 mm 0,5 UV-I 99 W/m 7,2 C 15,6 C 12,9 km/h (3 Bft) 100,00 %
10.11.2015 13:44 16,8 C 53 % 1023,7 hPa 0,0 l/m 6,6 km/h (2 Bft) W 261 0 min 0,000 mm 0,5 UV-I 104 W/m 7,2 C 16,7 C 12,9 km/h (3 Bft) 100,00 %
10.11.2015 13:45 16,8 C 54 % 1023,7 hPa 0,0 l/m 5,1 km/h (1 Bft) SW 233 0 min 0,000 mm 0,5 UV-I 108 W/m 7,4 C 16,8 C 6,4 km/h (2 Bft) 100,00 %
10.11.2015 13:46 16,7 C 54 % 1023,6 hPa 0,0 l/m 5,0 km/h (1 Bft) W-SW 244 0 min 0,000 mm 0,5 UV-I 111 W/m 7,3 C 16,7 C 11,3 km/h (2 Bft) 100,00 %
10.11.2015 13:47 16,8 C 53 % 1023,6 hPa 0,0 l/m 6,6 km/h (2 Bft) W 277 0 min 0,000 mm 0,5 UV-I 111 W/m 7,2 C 16,7 C 11,3 km/h (2 Bft) 100,00 %
10.11.2015 13:48 16,8 C 53 % 1023,6 hPa 0,0 l/m 6,1 km/h (2 Bft) W-SW 250 0 min 0,000 mm 0,5 UV-I 110 W/m 7,2 C 16,8 C 12,9 km/h (3 Bft) 95,65 %
10.11.2015 13:49 16,8 C 54 % 1023,7 hPa 0,0 l/m 7,8 km/h (2 Bft) W 275 0 min 0,000 mm 0,5 UV-I 107 W/m 7,4 C 16,1 C 12,9 km/h (3 Bft) 100,00 %
10.11.2015 13:50 16,8 C 54 % 1023,7 hPa 0,0 l/m 7,4 km/h (2 Bft) W 274 0 min 0,000 mm 0,5 UV-I 109 W/m 7,4 C 16,3 C 11,3 km/h (2 Bft) 100,00 %
10.11.2015 13:51 16,8 C 54 % 1023,7 hPa 0,0 l/m 5,4 km/h (1 Bft) W 273 0 min 0,000 mm 0,5 UV-I 113 W/m 7,4 C 16,8 C 6,4 km/h (2 Bft) 100,00 %
10.11.2015 13:52 16,8 C 53 % 1023,7 hPa 0,0 l/m 8,8 km/h (2 Bft) W-SW 243 0 min 0,000 mm 0,5 UV-I 115 W/m 7,2 C 15,6 C 12,9 km/h (3 Bft) 100,00 %
10.11.2015 13:53 16,8 C 54 % 1023,6 hPa 0,0 l/m 7,2 km/h (2 Bft) SW 217 0 min 0,000 mm 0,5 UV-I 117 W/m 7,4 C 16,4 C 9,7 km/h (2 Bft) 95,83 %
10.11.2015 13:54 16,8 C 53 % 1023,7 hPa 0,0 l/m 7,7 km/h (2 Bft) W 280 0 min 0,000 mm 0,5 UV-I 121 W/m 7,2 C 16,1 C 11,3 km/h (2 Bft) 95,65 %
10.11.2015 13:55 16,8 C 53 % 1023,7 hPa 0,0 l/m 8,3 km/h (2 Bft) SW 234 0 min 0,000 mm 0,6 UV-I 132 W/m 7,2 C 15,8 C 12,9 km/h (3 Bft) 100,00 %
10.11.2015 13:56 16,8 C 53 % 1023,7 hPa 0,0 l/m 8,5 km/h (2 Bft) W-SW 256 0 min 0,000 mm 0,6 UV-I 142 W/m 7,2 C 15,8 C 11,3 km/h (2 Bft) 100,00 %
10.11.2015 13:57 16,9 C 53 % 1023,6 hPa 0,0 l/m 6,7 km/h (2 Bft) W 266 0 min 0,000 mm 0,6 UV-I 148 W/m 7,3 C 16,8 C 11,3 km/h (2 Bft) 100,00 %
10.11.2015 13:58 16,9 C 53 % 1023,6 hPa 0,0 l/m 5,9 km/h (2 Bft) W 273 0 min 0,000 mm 0,6 UV-I 144 W/m 7,3 C 16,9 C 9,7 km/h (2 Bft) 100,00 %
10.11.2015 13:59 16,9 C 54 % 1023,6 hPa 0,0 l/m 6,2 km/h (2 Bft) W 280 0 min 0,000 mm 0,6 UV-I 142 W/m 7,5 C 16,9 C 11,3 km/h (2 Bft) 100,00 %
10.11.2015 14:00 16,9 C 53 % 1023,6 hPa 0,0 l/m 5,2 km/h (1 Bft) W 265 0 min 0,000 mm 0,6 UV-I 143 W/m 7,3 C 16,9 C 11,3 km/h (2 Bft) 100,00 %
10.11.2015 14:01 16,9 C 52 % 1023,6 hPa 0,0 l/m 5,3 km/h (1 Bft) SW 233 0 min 0,127 mm 0,6 UV-I 150 W/m 7,0 C 16,9 C 11,3 km/h (2 Bft) 95,65 %
10.11.2015 14:02 17,0 C 52 % 1023,6 hPa 0,0 l/m 5,8 km/h (2 Bft) S-SW 205 0 min 0,000 mm 0,6 UV-I 158 W/m 7,1 C 17,0 C 11,3 km/h (2 Bft) 100,00 %
10.11.2015 14:03 17,0 C 51 % 1023,6 hPa 0,0 l/m 8,9 km/h (2 Bft) W-SW 249 0 min 0,000 mm 0,6 UV-I 160 W/m 6,8 C 15,8 C 11,3 km/h (2 Bft) 95,65 %
10.11.2015 14:04 17,1 C 51 % 1023,5 hPa 0,0 l/m 6,7 km/h (2 Bft) NW 319 0 min 0,000 mm 0,6 UV-I 157 W/m 6,9 C 17,0 C 11,3 km/h (2 Bft) 100,00 %
10.11.2015 14:05 17,1 C 51 % 1023,5 hPa 0,0 l/m 7,0 km/h (2 Bft) W 261 0 min 0,000 mm 0,6 UV-I 152 W/m 6,9 C 16,8 C 12,9 km/h (3 Bft) 100,00 %
10.11.2015 14:06 17,1 C 51 % 1023,6 hPa 0,0 l/m 7,3 km/h (2 Bft) W-NW 293 0 min 0,000 mm 0,6 UV-I 147 W/m 6,9 C 16,6 C 16,1 km/h (3 Bft) 100,00 %
10.11.2015 14:07 17,2 C 49 % 1023,5 hPa 0,0 l/m 11,1 km/h (2 Bft) W-SW 244 0 min 0,000 mm 0,6 UV-I 142 W/m 6,4 C 15,1 C 22,5 km/h (4 Bft) 100,00 %
10.11.2015 14:08 17,2 C 50 % 1023,5 hPa 0,0 l/m 4,9 km/h (1 Bft) W 263 0 min 0,000 mm 0,6 UV-I 131 W/m 6,7 C 17,2 C 6,4 km/h (2 Bft) 100,00 %
10.11.2015 14:09 17,2 C 50 % 1023,5 hPa 0,0 l/m 5,6 km/h (1 Bft) W 277 0 min 0,000 mm 0,6 UV-I 121 W/m 6,7 C 17,2 C 9,7 km/h (2 Bft) 100,00 %
10.11.2015 14:10 17,2 C 51 % 1023,5 hPa 0,0 l/m 6,0 km/h (2 Bft) W 270 0 min 0,000 mm 0,6 UV-I 122 W/m 7,0 C 17,2 C 11,3 km/h (2 Bft) 100,00 %
10.11.2015 14:11 17,2 C 49 % 1023,5 hPa 0,0 l/m 8,4 km/h (2 Bft) W 264 0 min 0,000 mm 0,6 UV-I 127 W/m 6,4 C 16,2 C 11,3 km/h (2 Bft) 96,15 %
10.11.2015 14:12 17,2 C 49 % 1023,5 hPa 0,0 l/m 8,0 km/h (2 Bft) W 266 0 min 0,000 mm 0,6 UV-I 131 W/m 6,4 C 16,4 C 12,9 km/h (3 Bft) 100,00 %
10.11.2015 14:13 17,2 C 50 % 1023,5 hPa 0,0 l/m 8,3 km/h (2 Bft) W 273 0 min 0,000 mm 0,6 UV-I 136 W/m 6,7 C 16,3 C 12,9 km/h (3 Bft) 100,00 %
10.11.2015 14:14 17,2 C 49 % 1023,5 hPa 0,0 l/m 6,7 km/h (2 Bft) W 268 0 min 0,000 mm 0,6 UV-I 142 W/m 6,4 C 17,1 C 12,9 km/h (3 Bft) 100,00 %
10.11.2015 14:15 17,2 C 50 % 1023,6 hPa 0,0 l/m 6,9 km/h (2 Bft) W 268 0 min 0,000 mm 0,5 UV-I 147 W/m 6,7 C 17,0 C 14,5 km/h (3 Bft) 95,65 %
10.11.2015 14:16 17,2 C 49 % 1023,6 hPa 0,0 l/m 8,4 km/h (2 Bft) W-SW 245 0 min 0,000 mm 0,5 UV-I 152 W/m 6,4 C 16,2 C 16,1 km/h (3 Bft) 100,00 %
10.11.2015 14:17 17,2 C 49 % 1023,6 hPa 0,0 l/m 4,6 km/h (1 Bft) W-SW 239 1 min 0,000 mm 0,5 UV-I 163 W/m 6,4 C 17,2 C 8,0 km/h (2 Bft) 100,00 %
10.11.2015 14:18 17,2 C 50 % 1023,6 hPa 0,0 l/m 5,2 km/h (1 Bft) W 261 1 min 0,000 mm 0,6 UV-I 167 W/m 6,7 C 17,2 C 9,7 km/h (2 Bft) 95,65 %
10.11.2015 14:19 17,3 C 50 % 1023,6 hPa 0,0 l/m 5,4 km/h (1 Bft) W 277 1 min 0,000 mm 0,6 UV-I 167 W/m 6,8 C 17,3 C 9,7 km/h (2 Bft) 100,00 %
10.11.2015 14:20 17,3 C 49 % 1023,6 hPa 0,0 l/m 5,6 km/h (1 Bft) W 269 1 min 0,000 mm 0,6 UV-I 346 W/m 6,5 C 17,3 C 9,7 km/h (2 Bft) 100,00 %
10.11.2015 14:21 17,4 C 50 % 1023,6 hPa 0,0 l/m 6,0 km/h (2 Bft) W-NW 286 1 min 0,000 mm 0,6 UV-I 377 W/m 6,9 C 17,4 C 9,7 km/h (2 Bft) 100,00 %
10.11.2015 14:22 17,5 C 50 % 1023,6 hPa 0,0 l/m 5,4 km/h (1 Bft) W 260 1 min 0,000 mm 0,6 UV-I 350 W/m 7,0 C 17,5 C 9,7 km/h (2 Bft) 100,00 %
10.11.2015 14:23 17,6 C 50 % 1023,6 hPa 0,0 l/m 5,3 km/h (1 Bft) W-SW 252 1 min 0,000 mm 0,6 UV-I 312 W/m 7,1 C 17,6 C 8,0 km/h (2 Bft) 100,00 %
10.11.2015 14:24 17,7 C 51 % 1023,5 hPa 0,0 l/m 3,8 km/h (1 Bft) W 259 1 min 0,000 mm 0,6 UV-I 294 W/m 7,4 C 17,7 C 6,4 km/h (2 Bft) 95,65 %
10.11.2015 14:25 17,8 C 50 % 1023,5 hPa 0,0 l/m 5,5 km/h (1 Bft) W 279 1 min 0,000 mm 0,6 UV-I 280 W/m 7,2 C 17,8 C 9,7 km/h (2 Bft) 100,00 %
10.11.2015 14:26 17,8 C 49 % 1023,5 hPa 0,0 l/m 8,5 km/h (2 Bft) SW 226 1 min 0,000 mm 0,6 UV-I 271 W/m 6,9 C 16,8 C 12,9 km/h (3 Bft) 100,00 %
10.11.2015 14:27 17,8 C 51 % 1023,5 hPa 0,0 l/m 3,8 km/h (1 Bft) W-SW 248 1 min 0,000 mm 0,6 UV-I 267 W/m 7,5 C 17,8 C 6,4 km/h (2 Bft) 100,00 %
10.11.2015 14:28 17,8 C 50 % 1023,4 hPa 0,0 l/m 5,9 km/h (2 Bft) S-SW 207 1 min 0,000 mm 0,6 UV-I 269 W/m 7,2 C 17,8 C 11,3 km/h (2 Bft) 100,00 %
10.11.2015 14:29 17,8 C 50 % 1023,4 hPa 0,0 l/m 6,9 km/h (2 Bft) S-SW 205 1 min 0,000 mm 0,6 UV-I 267 W/m 7,2 C 17,6 C 11,3 km/h (2 Bft) 100,00 %
10.11.2015 14:30 17,8 C 51 % 1023,5 hPa 0,0 l/m 3,8 km/h (1 Bft) W 269 1 min 0,000 mm 0,6 UV-I 261 W/m 7,5 C 17,8 C 6,4 km/h (2 Bft) 100,00 %
10.11.2015 14:31 17,8 C 53 % 1023,5 hPa 0,0 l/m 2,7 km/h (1 Bft) W 266 1 min 0,000 mm 0,6 UV-I 260 W/m 8,1 C 17,8 C 4,8 km/h (1 Bft) 100,00 %
10.11.2015 14:32 17,9 C 52 % 1023,5 hPa 0,0 l/m 4,1 km/h (1 Bft) W 264 1 min 0,000 mm 0,5 UV-I 262 W/m 7,9 C 17,9 C 6,4 km/h (2 Bft) 100,00 %
10.11.2015 14:33 17,9 C 52 % 1023,5 hPa 0,0 l/m 4,5 km/h (1 Bft) S-SW 208 1 min 0,000 mm 0,5 UV-I 264 W/m 7,9 C 17,9 C 8,0 km/h (2 Bft) 96,55 %
10.11.2015 14:34 17,9 C 53 % 1023,5 hPa 0,0 l/m 5,0 km/h (1 Bft) W-SW 254 1 min 0,000 mm 0,5 UV-I 210 W/m 8,2 C 17,9 C 8,0 km/h (2 Bft) 95,65 %
10.11.2015 14:35 17,8 C 51 % 1023,5 hPa 0,0 l/m 5,7 km/h (1 Bft) W-SW 257 1 min 0,000 mm 0,3 UV-I 155 W/m 7,5 C 17,8 C 9,7 km/h (2 Bft) 100,00 %
10.11.2015 14:36 17,8 C 51 % 1023,4 hPa 0,0 l/m 6,2 km/h (2 Bft) W-NW 284 1 min 0,000 mm 0,3 UV-I 155 W/m 7,5 C 17,8 C 12,9 km/h (3 Bft) 100,00 %
10.11.2015 14:37 17,7 C 51 % 1023,5 hPa 0,0 l/m 3,8 km/h (1 Bft) W-NW 285 1 min 0,000 mm 0,5 UV-I 199 W/m 7,4 C 17,7 C 4,8 km/h (1 Bft) 100,00 %
10.11.2015 14:38 17,7 C 52 % 1023,5 hPa 0,0 l/m 5,2 km/h (1 Bft) W 277 1 min 0,000 mm 0,5 UV-I 212 W/m 7,7 C 17,7 C 8,0 km/h (2 Bft) 100,00 %
10.11.2015 14:39 17,7 C 52 % 1023,4 hPa 0,0 l/m 5,4 km/h (1 Bft) W-SW 254 1 min 0,000 mm 0,4 UV-I 202 W/m 7,7 C 17,7 C 9,7 km/h (2 Bft) 100,00 %
10.11.2015 14:40 17,6 C 51 % 1023,4 hPa 0,0 l/m 4,2 km/h (1 Bft) W-SW 238 0 min 0,000 mm 0,0 UV-I 118 W/m 7,3 C 17,6 C 6,4 km/h (2 Bft) 100,00 %
10.11.2015 14:41 17,6 C 53 % 1023,4 hPa 0,0 l/m 3,2 km/h (1 Bft) W 270 0 min 0,000 mm 0,2 UV-I 61 W/m 7,9 C 17,6 C 9,7 km/h (2 Bft) 100,00 %
10.11.2015 14:42 17,5 C 52 % 1023,5 hPa 0,0 l/m 3,9 km/h (1 Bft) W 259 0 min 0,000 mm 0,5 UV-I 69 W/m 7,5 C 17,5 C 4,8 km/h (1 Bft) 100,00 %
10.11.2015 14:43 17,4 C 52 % 1023,4 hPa 0,0 l/m 3,2 km/h (1 Bft) W 281 0 min 0,000 mm 0,1 UV-I 69 W/m 7,4 C 17,4 C 4,8 km/h (1 Bft) 100,00 %
10.11.2015 14:44 17,4 C 52 % 1023,4 hPa 0,0 l/m 4,7 km/h (1 Bft) W 265 0 min 0,000 mm 0,5 UV-I 102 W/m 7,4 C 17,4 C 6,4 km/h (2 Bft) 100,00 %
10.11.2015 14:45 17,3 C 52 % 1023,4 hPa 0,0 l/m 5,0 km/h (1 Bft) SW 234 1 min 0,000 mm 0,4 UV-I 201 W/m 7,3 C 17,3 C 6,4 km/h (2 Bft) 100,00 %
10.11.2015 14:46 17,4 C 53 % 1023,4 hPa 0,0 l/m 3,6 km/h (1 Bft) W 271 1 min 0,000 mm 0,0 UV-I 202 W/m 7,7 C 17,4 C 4,8 km/h (1 Bft) 95,83 %
10.11.2015 14:47 17,4 C 54 % 1023,4 hPa 0,0 l/m 4,6 km/h (1 Bft) W-SW 245 1 min 0,000 mm 0,0 UV-I 210 W/m 8,0 C 17,4 C 6,4 km/h (2 Bft) 91,30 %
10.11.2015 14:48 17,4 C 54 % 1023,3 hPa 0,0 l/m 4,5 km/h (1 Bft) W 271 1 min 0,000 mm 0,0 UV-I 232 W/m 8,0 C 17,4 C 6,4 km/h (2 Bft) 100,00 %
10.11.2015 14:49 17,5 C 54 % 1023,3 hPa 0,0 l/m 3,6 km/h (1 Bft) W-NW 298 1 min 0,000 mm 0,0 UV-I 231 W/m 8,1 C 17,5 C 4,8 km/h (1 Bft) 95,65 %
10.11.2015 14:50 17,6 C 53 % 1023,3 hPa 0,0 l/m 6,6 km/h (2 Bft) W-NW 290 1 min 0,000 mm 0,0 UV-I 239 W/m 7,9 C 17,5 C 12,9 km/h (3 Bft) 100,00 %
10.11.2015 14:51 17,6 C 53 % 1023,3 hPa 0,0 l/m 5,8 km/h (2 Bft) W-NW 289 1 min 0,000 mm 0,0 UV-I 234 W/m 7,9 C 17,6 C 9,7 km/h (2 Bft) 95,65 %
10.11.2015 14:52 17,7 C 53 % 1023,4 hPa 0,0 l/m 4,7 km/h (1 Bft) W 265 1 min 0,000 mm 0,0 UV-I 241 W/m 8,0 C 17,7 C 6,4 km/h (2 Bft) 100,00 %
10.11.2015 14:53 17,7 C 54 % 1023,3 hPa 0,0 l/m 4,8 km/h (1 Bft) W 280 1 min 0,000 mm 0,0 UV-I 182 W/m 8,3 C 17,7 C 6,4 km/h (2 Bft) 100,00 %
10.11.2015 14:54 17,7 C 52 % 1023,3 hPa 0,0 l/m 8,2 km/h (2 Bft) W 260 1 min 0,000 mm 0,0 UV-I 194 W/m 7,7 C 16,8 C 11,3 km/h (2 Bft) 100,00 %
10.11.2015 14:55 17,7 C 53 % 1023,3 hPa 0,0 l/m 7,0 km/h (2 Bft) W-SW 241 1 min 0,000 mm 0,0 UV-I 216 W/m 8,0 C 17,4 C 9,7 km/h (2 Bft) 95,65 %
10.11.2015 14:56 17,7 C 53 % 1023,3 hPa 0,0 l/m 4,0 km/h (1 Bft) W-SW 240 1 min 0,000 mm 0,0 UV-I 237 W/m 8,0 C 17,7 C 6,4 km/h (2 Bft) 100,00 %
10.11.2015 14:57 17,7 C 54 % 1023,3 hPa 0,0 l/m 4,2 km/h (1 Bft) W-SW 244 1 min 0,000 mm 0,0 UV-I 226 W/m 8,3 C 17,7 C 6,4 km/h (2 Bft) 100,00 %
10.11.2015 14:58 17,8 C 53 % 1023,3 hPa 0,0 l/m 5,4 km/h (1 Bft) NW 304 1 min 0,000 mm 0,0 UV-I 243 W/m 8,1 C 17,8 C 11,3 km/h (2 Bft) 100,00 %
10.11.2015 14:59 17,8 C 53 % 1023,3 hPa 0,0 l/m 9,0 km/h (2 Bft) W-SW 254 1 min 0,000 mm 0,0 UV-I 205 W/m 8,1 C 16,6 C 16,1 km/h (3 Bft) 100,00 %
10.11.2015 15:00 17,8 C 53 % 1023,3 hPa 0,0 l/m 8,7 km/h (2 Bft) W-SW 246 1 min 0,000 mm 0,0 UV-I 137 W/m 8,1 C 16,7 C 14,5 km/h (3 Bft) 96,15 %
10.11.2015 15:01 17,8 C 52 % 1023,3 hPa 0,0 l/m 8,3 km/h (2 Bft) W 274 1 min 0,153 mm 0,0 UV-I 148 W/m 7,8 C 16,9 C 12,9 km/h (3 Bft) 100,00 %
10.11.2015 15:02 17,8 C 53 % 1023,3 hPa 0,0 l/m 6,0 km/h (2 Bft) W-SW 254 1 min 0,000 mm 0,0 UV-I 208 W/m 8,1 C 17,8 C 9,7 km/h (2 Bft) 95,65 %
10.11.2015 15:03 17,8 C 53 % 1023,2 hPa 0,0 l/m 7,4 km/h (2 Bft) W 263 1 min 0,000 mm 0,0 UV-I 185 W/m 8,1 C 17,3 C 11,3 km/h (2 Bft) 100,00 %
10.11.2015 15:04 17,8 C 53 % 1023,2 hPa 0,0 l/m 6,3 km/h (2 Bft) W-NW 290 1 min 0,000 mm 0,0 UV-I 186 W/m 8,1 C 17,8 C 11,3 km/h (2 Bft) 96,15 %
10.11.2015 15:05 17,8 C 53 % 1023,3 hPa 0,0 l/m 9,3 km/h (2 Bft) W-NW 285 1 min 0,000 mm 0,0 UV-I 208 W/m 8,1 C 16,5 C 12,9 km/h (3 Bft) 95,83 %
10.11.2015 15:06 17,8 C 53 % 1023,2 hPa 0,0 l/m 7,2 km/h (2 Bft) W-SW 237 1 min 0,000 mm 0,0 UV-I 148 W/m 8,1 C 17,4 C 12,9 km/h (3 Bft) 100,00 %
10.11.2015 15:07 17,8 C 53 % 1023,2 hPa 0,0 l/m 4,8 km/h (1 Bft) W-SW 255 1 min 0,000 mm 0,0 UV-I 190 W/m 8,1 C 17,8 C 8,0 km/h (2 Bft) 100,00 %
10.11.2015 15:08 17,8 C 54 % 1023,3 hPa 0,0 l/m 8,7 km/h (2 Bft) W 262 1 min 0,000 mm 0,0 UV-I 197 W/m 8,4 C 16,7 C 14,5 km/h (3 Bft) 95,65 %
10.11.2015 15:09 17,8 C 53 % 1023,2 hPa 0,0 l/m 5,8 km/h (2 Bft) SW 236 1 min 0,000 mm 0,0 UV-I 142 W/m 8,1 C 17,8 C 11,3 km/h (2 Bft) 100,00 %
10.11.2015 15:10 17,8 C 53 % 1023,2 hPa 0,0 l/m 5,7 km/h (1 Bft) W-SW 244 1 min 0,000 mm 0,0 UV-I 167 W/m 8,1 C 17,8 C 8,0 km/h (2 Bft) 100,00 %
10.11.2015 15:11 17,8 C 53 % 1023,2 hPa 0,0 l/m 6,8 km/h (2 Bft) W 278 1 min 0,000 mm 0,0 UV-I 128 W/m 8,1 C 17,6 C 11,3 km/h (2 Bft) 95,83 %
10.11.2015 15:12 17,7 C 54 % 1023,2 hPa 0,0 l/m 7,1 km/h (2 Bft) W-SW 254 1 min 0,000 mm 0,0 UV-I 112 W/m 8,3 C 17,4 C 12,9 km/h (3 Bft) 100,00 %
10.11.2015 15:13 17,7 C 54 % 1023,2 hPa 0,0 l/m 7,1 km/h (2 Bft) W-SW 257 1 min 0,000 mm 0,0 UV-I 108 W/m 8,3 C 17,4 C 14,5 km/h (3 Bft) 100,00 %
10.11.2015 15:14 17,7 C 53 % 1023,3 hPa 0,0 l/m 6,7 km/h (2 Bft) SW 223 1 min 0,000 mm 0,0 UV-I 134 W/m 8,0 C 17,6 C 12,9 km/h (3 Bft) 100,00 %
10.11.2015 15:15 17,7 C 54 % 1023,3 hPa 0,0 l/m 5,8 km/h (2 Bft) W-SW 257 1 min 0,000 mm 0,0 UV-I 144 W/m 8,3 C 17,7 C 9,7 km/h (2 Bft) 100,00 %
10.11.2015 15:16 17,7 C 53 % 1023,3 hPa 0,0 l/m 9,4 km/h (2 Bft) SW 227 1 min 0,000 mm 0,0 UV-I 175 W/m 8,0 C 16,3 C 16,1 km/h (3 Bft) 100,00 %
10.11.2015 15:17 17,7 C 53 % 1023,2 hPa 0,0 l/m 7,3 km/h (2 Bft) W-NW 292 1 min 0,000 mm 0,0 UV-I 170 W/m 8,0 C 17,3 C 11,3 km/h (2 Bft) 95,65 %
10.11.2015 15:18 17,7 C 53 % 1023,3 hPa 0,0 l/m 5,8 km/h (2 Bft) W-NW 284 1 min 0,000 mm 0,0 UV-I 154 W/m 8,0 C 17,7 C 9,7 km/h (2 Bft) 95,83 %
10.11.2015 15:19 17,8 C 53 % 1023,3 hPa 0,0 l/m 7,6 km/h (2 Bft) W 272 1 min 0,000 mm 0,0 UV-I 98 W/m 8,1 C 17,2 C 12,9 km/h (3 Bft) 100,00 %
10.11.2015 15:20 17,8 C 53 % 1023,2 hPa 0,0 l/m 5,9 km/h (2 Bft) W 275 1 min 0,000 mm 0,0 UV-I 96 W/m 8,1 C 17,8 C 12,9 km/h (3 Bft) 100,00 %
10.11.2015 15:21 17,8 C 53 % 1023,2 hPa 0,0 l/m 4,3 km/h (1 Bft) SW 225 1 min 0,000 mm 0,0 UV-I 106 W/m 8,1 C 17,8 C 6,4 km/h (2 Bft) 100,00 %
10.11.2015 15:22 17,8 C 54 % 1023,2 hPa 0,0 l/m 5,3 km/h (1 Bft) W-NW 296 1 min 0,000 mm 0,0 UV-I 97 W/m 8,4 C 17,8 C 9,7 km/h (2 Bft) 100,00 %
10.11.2015 15:23 17,7 C 53 % 1023,2 hPa 0,0 l/m 7,6 km/h (2 Bft) S-SW 209 0 min 0,000 mm 0,0 UV-I 69 W/m 8,0 C 17,1 C 12,9 km/h (3 Bft) 100,00 %
10.11.2015 15:24 17,7 C 53 % 1023,2 hPa 0,0 l/m 7,7 km/h (2 Bft) SW 236 0 min 0,000 mm 0,0 UV-I 67 W/m 8,0 C 17,1 C 12,9 km/h (3 Bft) 100,00 %
10.11.2015 15:25 17,7 C 54 % 1023,2 hPa 0,0 l/m 5,5 km/h (1 Bft) W-SW 243 1 min 0,000 mm 0,0 UV-I 88 W/m 8,3 C 17,7 C 9,7 km/h (2 Bft) 100,00 %
10.11.2015 15:26 17,7 C 53 % 1023,2 hPa 0,0 l/m 7,2 km/h (2 Bft) W-NW 291 0 min 0,000 mm 0,0 UV-I 74 W/m 8,0 C 17,3 C 12,9 km/h (3 Bft) 100,00 %
10.11.2015 15:27 17,6 C 54 % 1023,2 hPa 0,0 l/m 7,0 km/h (2 Bft) S-SW 210 0 min 0,000 mm 0,0 UV-I 61 W/m 8,2 C 17,3 C 12,9 km/h (3 Bft) 100,00 %
10.11.2015 15:28 17,6 C 53 % 1023,1 hPa 0,0 l/m 7,7 km/h (2 Bft) SW 234 0 min 0,000 mm 0,0 UV-I 60 W/m 7,9 C 17,0 C 16,1 km/h (3 Bft) 100,00 %
10.11.2015 15:29 17,6 C 53 % 1023,2 hPa 0,0 l/m 8,3 km/h (2 Bft) W 265 0 min 0,000 mm 0,0 UV-I 60 W/m 7,9 C 16,7 C 17,7 km/h (3 Bft) 100,00 %
10.11.2015 15:30 17,5 C 54 % 1023,2 hPa 0,0 l/m 5,8 km/h (2 Bft) W-SW 250 0 min 0,000 mm 0,0 UV-I 56 W/m 8,1 C 17,5 C 11,3 km/h (2 Bft) 100,00 %
10.11.2015 15:31 17,4 C 54 % 1023,2 hPa 0,0 l/m 8,9 km/h (2 Bft) W-NW 284 0 min 0,000 mm 0,0 UV-I 58 W/m 8,0 C 16,2 C 14,5 km/h (3 Bft) 95,65 %
10.11.2015 15:32 17,4 C 53 % 1023,2 hPa 0,0 l/m 10,3 km/h (2 Bft) SW 222 0 min 0,000 mm 0,0 UV-I 55 W/m 7,7 C 15,7 C 16,1 km/h (3 Bft) 100,00 %
10.11.2015 15:33 17,4 C 54 % 1023,2 hPa 0,0 l/m 8,2 km/h (2 Bft) SW 215 0 min 0,000 mm 0,0 UV-I 51 W/m 8,0 C 16,5 C 14,5 km/h (3 Bft) 100,00 %
10.11.2015 15:34 17,3 C 54 % 1023,2 hPa 0,0 l/m 6,4 km/h (2 Bft) W 273 0 min 0,000 mm 0,0 UV-I 55 W/m 7,9 C 17,3 C 12,9 km/h (3 Bft) 100,00 %
10.11.2015 15:35 17,3 C 54 % 1023,2 hPa 0,0 l/m 6,2 km/h (2 Bft) SW 215 0 min 0,000 mm 0,0 UV-I 50 W/m 7,9 C 17,3 C 9,7 km/h (2 Bft) 100,00 %
10.11.2015 15:36 17,3 C 54 % 1023,2 hPa 0,0 l/m 7,9 km/h (2 Bft) S-SW 207 0 min 0,000 mm 0,0 UV-I 51 W/m 7,9 C 16,6 C 14,5 km/h (3 Bft) 100,00 %
10.11.2015 15:37 17,2 C 54 % 1023,2 hPa 0,0 l/m 6,2 km/h (2 Bft) W-SW 253 0 min 0,000 mm 0,0 UV-I 49 W/m 7,8 C 17,2 C 12,9 km/h (3 Bft) 100,00 %
10.11.2015 15:38 17,2 C 54 % 1023,2 hPa 0,0 l/m 5,4 km/h (1 Bft) W 273 0 min 0,000 mm 0,0 UV-I 39 W/m 7,8 C 17,2 C 8,0 km/h (2 Bft) 100,00 %
10.11.2015 15:39 17,2 C 55 % 1023,2 hPa 0,0 l/m 5,6 km/h (1 Bft) W-SW 253 0 min 0,000 mm 0,0 UV-I 33 W/m 8,1 C 17,2 C 9,7 km/h (2 Bft) 100,00 %
10.11.2015 15:40 17,1 C 55 % 1023,2 hPa 0,0 l/m 6,8 km/h (2 Bft) W-SW 242 0 min 0,000 mm 0,0 UV-I 28 W/m 8,0 C 16,9 C 14,5 km/h (3 Bft) 100,00 %
10.11.2015 15:41 17,1 C 55 % 1023,2 hPa 0,0 l/m 7,7 km/h (2 Bft) W 259 0 min 0,000 mm 0,0 UV-I 26 W/m 8,0 C 16,5 C 12,9 km/h (3 Bft) 100,00 %
10.11.2015 15:42 17,1 C 55 % 1023,2 hPa 0,0 l/m 7,4 km/h (2 Bft) W-SW 249 0 min 0,000 mm 0,0 UV-I 32 W/m 8,0 C 16,6 C 11,3 km/h (2 Bft) 100,00 %
10.11.2015 15:43 17,1 C 55 % 1023,2 hPa 0,0 l/m 7,1 km/h (2 Bft) W-NW 294 0 min 0,000 mm 0,0 UV-I 44 W/m 8,0 C 16,7 C 11,3 km/h (2 Bft) 100,00 %
10.11.2015 15:44 17,0 C 55 % 1023,2 hPa 0,0 l/m 5,5 km/h (1 Bft) W 276 0 min 0,000 mm 0,0 UV-I 48 W/m 7,9 C 17,0 C 9,7 km/h (2 Bft) 100,00 %
10.11.2015 15:45 17,0 C 56 % 1023,1 hPa 0,0 l/m 6,3 km/h (2 Bft) W 266 0 min 0,000 mm 0,0 UV-I 34 W/m 8,2 C 17,0 C 11,3 km/h (2 Bft) 100,00 %
10.11.2015 15:46 17,0 C 55 % 1023,1 hPa 0,0 l/m 7,4 km/h (2 Bft) W 268 0 min 0,000 mm 0,0 UV-I 28 W/m 7,9 C 16,5 C 12,9 km/h (3 Bft) 100,00 %
10.11.2015 15:47 17,0 C 55 % 1023,1 hPa 0,0 l/m 9,9 km/h (2 Bft) W-NW 287 0 min 0,000 mm 0,0 UV-I 42 W/m 7,9 C 15,4 C 17,7 km/h (3 Bft) 100,00 %
10.11.2015 15:48 16,9 C 56 % 1023,1 hPa 0,0 l/m 6,2 km/h (2 Bft) W 261 0 min 0,000 mm 0,0 UV-I 39 W/m 8,1 C 16,9 C 9,7 km/h (2 Bft) 100,00 %
10.11.2015 15:49 16,9 C 56 % 1023,1 hPa 0,0 l/m 5,8 km/h (2 Bft) W-SW 256 0 min 0,000 mm 0,0 UV-I 31 W/m 8,1 C 16,9 C 11,3 km/h (2 Bft) 100,00 %
10.11.2015 15:50 16,9 C 55 % 1023,1 hPa 0,0 l/m 8,2 km/h (2 Bft) W-SW 250 0 min 0,000 mm 0,0 UV-I 28 W/m 7,8 C 16,0 C 12,9 km/h (3 Bft) 100,00 %
10.11.2015 15:51 16,9 C 56 % 1023,1 hPa 0,0 l/m 6,0 km/h (2 Bft) S-SW 196 0 min 0,000 mm 0,0 UV-I 36 W/m 8,1 C 16,9 C 9,7 km/h (2 Bft) 95,83 %
10.11.2015 15:52 16,9 C 56 % 1023,1 hPa 0,0 l/m 5,4 km/h (1 Bft) W-SW 241 0 min 0,000 mm 0,0 UV-I 40 W/m 8,1 C 16,9 C 8,0 km/h (2 Bft) 100,00 %
10.11.2015 15:53 16,9 C 56 % 1023,1 hPa 0,0 l/m 7,7 km/h (2 Bft) W 259 0 min 0,000 mm 0,0 UV-I 39 W/m 8,1 C 16,2 C 11,3 km/h (2 Bft) 100,00 %
10.11.2015 15:54 16,9 C 56 % 1023,1 hPa 0,0 l/m 7,2 km/h (2 Bft) W-NW 292 0 min 0,000 mm 0,0 UV-I 37 W/m 8,1 C 16,5 C 9,7 km/h (2 Bft) 100,00 %
10.11.2015 15:55 16,9 C 56 % 1023,1 hPa 0,0 l/m 9,0 km/h (2 Bft) W-NW 282 0 min 0,000 mm 0,0 UV-I 34 W/m 8,1 C 15,6 C 12,9 km/h (3 Bft) 100,00 %
10.11.2015 15:56 16,9 C 56 % 1023,0 hPa 0,0 l/m 7,4 km/h (2 Bft) W 277 0 min 0,000 mm 0,0 UV-I 33 W/m 8,1 C 16,4 C 11,3 km/h (2 Bft) 100,00 %
10.11.2015 15:57 16,9 C 56 % 1023,0 hPa 0,0 l/m 7,4 km/h (2 Bft) W 273 0 min 0,000 mm 0,0 UV-I 32 W/m 8,1 C 16,4 C 12,9 km/h (3 Bft) 100,00 %
10.11.2015 15:58 16,9 C 56 % 1023,0 hPa 0,0 l/m 9,3 km/h (2 Bft) W 270 0 min 0,000 mm 0,0 UV-I 30 W/m 8,1 C 15,5 C 14,5 km/h (3 Bft) 100,00 %
10.11.2015 15:59 16,9 C 56 % 1023,0 hPa 0,0 l/m 6,7 km/h (2 Bft) W-SW 256 0 min 0,000 mm 0,0 UV-I 28 W/m 8,1 C 16,8 C 11,3 km/h (2 Bft) 95,65 %
10.11.2015 16:00 16,9 C 56 % 1023,0 hPa 0,0 l/m 9,9 km/h (2 Bft) W-SW 252 0 min 0,000 mm 0,0 UV-I 28 W/m 8,1 C 15,3 C 16,1 km/h (3 Bft) 100,00 %
10.11.2015 16:01 16,9 C 56 % 1023,0 hPa 0,0 l/m 8,4 km/h (2 Bft) SW 232 0 min 0,101 mm 0,0 UV-I 26 W/m 8,1 C 15,9 C 16,1 km/h (3 Bft) 100,00 %
10.11.2015 16:02 16,9 C 56 % 1023,0 hPa 0,0 l/m 9,5 km/h (2 Bft) W-SW 245 0 min 0,000 mm 0,0 UV-I 25 W/m 8,1 C 15,4 C 16,1 km/h (3 Bft) 100,00 %
10.11.2015 16:03 16,9 C 56 % 1023,0 hPa 0,0 l/m 8,6 km/h (2 Bft) W-SW 254 0 min 0,000 mm 0,0 UV-I 24 W/m 8,1 C 15,8 C 12,9 km/h (3 Bft) 100,00 %
10.11.2015 16:04 16,9 C 56 % 1023,1 hPa 0,0 l/m 8,5 km/h (2 Bft) W-SW 247 0 min 0,000 mm 0,0 UV-I 23 W/m 8,1 C 15,9 C 12,9 km/h (3 Bft) 100,00 %
10.11.2015 16:05 16,9 C 56 % 1023,1 hPa 0,0 l/m 7,2 km/h (2 Bft) W-NW 284 0 min 0,000 mm 0,0 UV-I 21 W/m 8,1 C 16,5 C 11,3 km/h (2 Bft) 100,00 %
10.11.2015 16:06 16,8 C 56 % 1023,0 hPa 0,0 l/m 7,1 km/h (2 Bft) W 260 0 min 0,000 mm 0,0 UV-I 19 W/m 8,0 C 16,4 C 11,3 km/h (2 Bft) 100,00 %
10.11.2015 16:07 16,8 C 56 % 1023,1 hPa 0,0 l/m 7,2 km/h (2 Bft) SW 227 0 min 0,000 mm 0,0 UV-I 19 W/m 8,0 C 16,4 C 11,3 km/h (2 Bft) 100,00 %
10.11.2015 16:08 16,8 C 56 % 1023,0 hPa 0,0 l/m 6,7 km/h (2 Bft) W 264 0 min 0,000 mm 0,0 UV-I 18 W/m 8,0 C 16,7 C 11,3 km/h (2 Bft) 100,00 %
10.11.2015 16:09 16,8 C 56 % 1023,0 hPa 0,0 l/m 9,1 km/h (2 Bft) W 259 0 min 0,000 mm 0,0 UV-I 17 W/m 8,0 C 15,5 C 16,1 km/h (3 Bft) 100,00 %
10.11.2015 16:10 16,8 C 56 % 1023,0 hPa 0,0 l/m 7,4 km/h (2 Bft) W 270 0 min 0,000 mm 0,0 UV-I 16 W/m 8,0 C 16,3 C 14,5 km/h (3 Bft) 100,00 %
10.11.2015 16:11 16,8 C 56 % 1023,0 hPa 0,0 l/m 8,1 km/h (2 Bft) W 271 0 min 0,000 mm 0,0 UV-I 16 W/m 8,0 C 15,9 C 12,9 km/h (3 Bft) 100,00 %
10.11.2015 16:12 16,8 C 56 % 1023,0 hPa 0,0 l/m 6,6 km/h (2 Bft) W-NW 296 0 min 0,000 mm 0,0 UV-I 14 W/m 8,0 C 16,7 C 9,7 km/h (2 Bft) 100,00 %
10.11.2015 16:13 16,7 C 56 % 1023,0 hPa 0,0 l/m 7,2 km/h (2 Bft) W 262 0 min 0,000 mm 0,0 UV-I 14 W/m 7,9 C 16,3 C 11,3 km/h (2 Bft) 100,00 %
10.11.2015 16:14 16,7 C 56 % 1022,9 hPa 0,0 l/m 7,8 km/h (2 Bft) W 281 0 min 0,000 mm 0,0 UV-I 13 W/m 7,9 C 16,0 C 12,9 km/h (3 Bft) 100,00 %
10.11.2015 16:15 16,7 C 57 % 1022,9 hPa 0,0 l/m 5,2 km/h (1 Bft) W-NW 283 0 min 0,000 mm 0,0 UV-I 12 W/m 8,1 C 16,7 C 6,4 km/h (2 Bft) 100,00 %
10.11.2015 16:16 16,6 C 57 % 1022,9 hPa 0,0 l/m 5,2 km/h (1 Bft) W 269 0 min 0,000 mm 0,0 UV-I 12 W/m 8,0 C 16,6 C 6,4 km/h (2 Bft) 100,00 %
10.11.2015 16:17 16,6 C 57 % 1022,9 hPa 0,0 l/m 7,4 km/h (2 Bft) W 268 0 min 0,000 mm 0,0 UV-I 12 W/m 8,0 C 16,1 C 11,3 km/h (2 Bft) 91,67 %
10.11.2015 16:18 16,6 C 57 % 1022,9 hPa 0,0 l/m 5,9 km/h (2 Bft) W-NW 283 0 min 0,000 mm 0,0 UV-I 12 W/m 8,0 C 16,6 C 9,7 km/h (2 Bft) 100,00 %
10.11.2015 16:19 16,6 C 57 % 1022,9 hPa 0,0 l/m 7,4 km/h (2 Bft) W 277 1 min 0,000 mm 0,0 UV-I 12 W/m 8,0 C 16,1 C 12,9 km/h (3 Bft) 100,00 %
10.11.2015 16:20 16,5 C 57 % 1022,9 hPa 0,0 l/m 7,7 km/h (2 Bft) W-NW 288 1 min 0,000 mm 0,0 UV-I 11 W/m 8,0 C 15,8 C 11,3 km/h (2 Bft) 100,00 %
10.11.2015 16:21 16,5 C 57 % 1022,9 hPa 0,0 l/m 9,4 km/h (2 Bft) W-SW 258 1 min 0,000 mm 0,0 UV-I 11 W/m 8,0 C 15,0 C 14,5 km/h (3 Bft) 100,00 %
10.11.2015 16:22 16,5 C 57 % 1022,9 hPa 0,0 l/m 6,4 km/h (2 Bft) W 274 0 min 0,000 mm 0,0 UV-I 11 W/m 8,0 C 16,5 C 11,3 km/h (2 Bft) 96,15 %
10.11.2015 16:23 16,5 C 57 % 1022,9 hPa 0,0 l/m 5,5 km/h (1 Bft) W 277 0 min 0,000 mm 0,0 UV-I 11 W/m 8,0 C 16,5 C 9,7 km/h (2 Bft) 95,83 %
10.11.2015 16:24 16,4 C 57 % 1022,9 hPa 0,0 l/m 10,2 km/h (2 Bft) W 277 0 min 0,000 mm 0,0 UV-I 9 W/m 7,9 C 14,6 C 14,5 km/h (3 Bft) 95,65 %
10.11.2015 16:25 16,4 C 57 % 1022,9 hPa 0,0 l/m 8,6 km/h (2 Bft) W-NW 293 0 min 0,000 mm 0,0 UV-I 9 W/m 7,9 C 15,3 C 14,5 km/h (3 Bft) 95,83 %
10.11.2015 16:26 16,4 C 57 % 1022,9 hPa 0,0 l/m 7,0 km/h (2 Bft) W 278 0 min 0,000 mm 0,0 UV-I 9 W/m 7,9 C 16,1 C 14,5 km/h (3 Bft) 100,00 %
10.11.2015 16:27 16,4 C 57 % 1022,9 hPa 0,0 l/m 7,4 km/h (2 Bft) W 281 0 min 0,000 mm 0,0 UV-I 8 W/m 7,9 C 15,9 C 11,3 km/h (2 Bft) 100,00 %
10.11.2015 16:28 16,4 C 57 % 1022,9 hPa 0,0 l/m 5,3 km/h (1 Bft) W 277 0 min 0,000 mm 0,0 UV-I 7 W/m 7,9 C 16,4 C 9,7 km/h (2 Bft) 100,00 %
10.11.2015 16:29 16,4 C 58 % 1022,9 hPa 0,0 l/m 5,6 km/h (1 Bft) W 265 0 min 0,000 mm 0,0 UV-I 7 W/m 8,1 C 16,4 C 9,7 km/h (2 Bft) 100,00 %
10.11.2015 16:30 16,3 C 57 % 1022,9 hPa 0,0 l/m 5,8 km/h (2 Bft) W 263 0 min 0,000 mm 0,0 UV-I 6 W/m 7,8 C 16,3 C 9,7 km/h (2 Bft) 96,15 %
10.11.2015 16:31 16,3 C 57 % 1022,9 hPa 0,0 l/m 5,7 km/h (1 Bft) W 275 0 min 0,000 mm 0,0 UV-I 5 W/m 7,8 C 16,3 C 8,0 km/h (2 Bft) 100,00 %
10.11.2015 16:32 16,3 C 57 % 1022,9 hPa 0,0 l/m 6,6 km/h (2 Bft) W-SW 254 0 min 0,000 mm 0,0 UV-I 5 W/m 7,8 C 16,2 C 9,7 km/h (2 Bft) 95,65 %
10.11.2015 16:33 16,3 C 58 % 1022,9 hPa 0,0 l/m 6,4 km/h (2 Bft) W 269 0 min 0,000 mm 0,0 UV-I 5 W/m 8,0 C 16,3 C 11,3 km/h (2 Bft) 100,00 %
10.11.2015 16:34 16,3 C 58 % 1023,0 hPa 0,0 l/m 6,6 km/h (2 Bft) W 267 0 min 0,000 mm 0,0 UV-I 5 W/m 8,0 C 16,2 C 12,9 km/h (3 Bft) 100,00 %
10.11.2015 16:35 16,2 C 58 % 1023,0 hPa 0,0 l/m 4,6 km/h (1 Bft) W-NW 288 0 min 0,000 mm 0,0 UV-I 4 W/m 7,9 C 16,2 C 8,0 km/h (2 Bft) 100,00 %
10.11.2015 16:36 16,2 C 58 % 1022,9 hPa 0,0 l/m 5,0 km/h (1 Bft) W 272 0 min 0,000 mm 0,0 UV-I 0 W/m 7,9 C 16,2 C 6,4 km/h (2 Bft) 96,15 %
10.11.2015 16:37 16,2 C 58 % 1023,0 hPa 0,0 l/m 4,8 km/h (1 Bft) W 280 0 min 0,000 mm 0,0 UV-I 0 W/m 7,9 C 16,2 C 6,4 km/h (2 Bft) 91,67 %
10.11.2015 16:38 16,2 C 59 % 1023,0 hPa 0,0 l/m 4,4 km/h (1 Bft) W 266 0 min 0,000 mm 0,0 UV-I 0 W/m 8,2 C 16,2 C 6,4 km/h (2 Bft) 100,00 %
10.11.2015 16:39 16,1 C 58 % 1023,0 hPa 0,0 l/m 5,2 km/h (1 Bft) W 277 0 min 0,000 mm 0,0 UV-I 0 W/m 7,8 C 16,1 C 9,7 km/h (2 Bft) 100,00 %
10.11.2015 16:40 16,1 C 58 % 1023,0 hPa 0,0 l/m 4,2 km/h (1 Bft) W 279 0 min 0,000 mm 0,0 UV-I 0 W/m 7,8 C 16,1 C 6,4 km/h (2 Bft) 100,00 %
10.11.2015 16:41 16,1 C 58 % 1023,0 hPa 0,0 l/m 6,0 km/h (2 Bft) W 273 0 min 0,000 mm 0,0 UV-I 0 W/m 7,8 C 16,1 C 12,9 km/h (3 Bft) 100,00 %
10.11.2015 16:42 16,1 C 58 % 1023,0 hPa 0,0 l/m 2,8 km/h (1 Bft) W-NW 293 0 min 0,000 mm 0,0 UV-I 0 W/m 7,8 C 16,1 C 4,8 km/h (1 Bft) 100,00 %
10.11.2015 16:43 16,1 C 58 % 1022,9 hPa 0,0 l/m 3,1 km/h (1 Bft) W 281 0 min 0,000 mm 0,0 UV-I 0 W/m 7,8 C 16,1 C 4,8 km/h (1 Bft) 92,86 %
10.11.2015 16:44 16,1 C 58 % 1022,9 hPa 0,0 l/m 3,6 km/h (1 Bft) W 271 0 min 0,000 mm 0,0 UV-I 0 W/m 7,8 C 16,1 C 4,8 km/h (1 Bft) 100,00 %
10.11.2015 16:45 16,1 C 58 % 1023,0 hPa 0,0 l/m 2,2 km/h (1 Bft) W 275 0 min 0,000 mm 0,0 UV-I 0 W/m 7,8 C 16,1 C 4,8 km/h (1 Bft) 95,65 %
10.11.2015 16:46 16,1 C 59 % 1022,9 hPa 0,0 l/m 1,9 km/h (1 Bft) W 271 0 min 0,000 mm 0,0 UV-I 0 W/m 8,1 C 16,1 C 3,2 km/h (1 Bft) 100,00 %
10.11.2015 16:47 16,0 C 58 % 1022,9 hPa 0,0 l/m 1,7 km/h (1 Bft) W 271 0 min 0,000 mm 0,0 UV-I 0 W/m 7,7 C 16,0 C 3,2 km/h (1 Bft) 100,00 %
10.11.2015 16:48 16,0 C 58 % 1022,9 hPa 0,0 l/m 2,1 km/h (1 Bft) SW 231 0 min 0,000 mm 0,0 UV-I 0 W/m 7,7 C 16,0 C 4,8 km/h (1 Bft) 100,00 %
10.11.2015 16:49 15,9 C 59 % 1022,9 hPa 0,0 l/m 0,5 km/h (0 Bft) SW 231 0 min 0,000 mm 0,0 UV-I 0 W/m 7,9 C 15,9 C 1,6 km/h (1 Bft) 95,65 %
10.11.2015 16:50 15,9 C 59 % 1023,0 hPa 0,0 l/m 0,1 km/h (0 Bft) SW 231 0 min 0,000 mm 0,0 UV-I 0 W/m 7,9 C 15,9 C 1,6 km/h (1 Bft) 100,00 %
10.11.2015 16:51 15,8 C 59 % 1022,9 hPa 0,0 l/m 0,1 km/h (0 Bft) SW 231 0 min 0,000 mm 0,0 UV-I 0 W/m 7,8 C 15,8 C 1,6 km/h (1 Bft) 100,00 %
10.11.2015 16:52 15,8 C 59 % 1023,0 hPa 0,0 l/m 0,0 km/h (0 Bft) SW 231 0 min 0,000 mm 0,0 UV-I 0 W/m 7,8 C 15,8 C 0,0 km/h (0 Bft) 100,00 %
10.11.2015 16:53 15,7 C 59 % 1023,0 hPa 0,0 l/m 0,0 km/h (0 Bft) SW 231 0 min 0,000 mm 0,0 UV-I 0 W/m 7,7 C 15,7 C 0,0 km/h (0 Bft) 100,00 %
10.11.2015 16:54 15,7 C 59 % 1023,0 hPa 0,0 l/m 0,0 km/h (0 Bft) SW 231 0 min 0,000 mm 0,0 UV-I 0 W/m 7,7 C 15,7 C 0,0 km/h (0 Bft) 95,83 %
10.11.2015 16:55 15,6 C 61 % 1022,9 hPa 0,0 l/m 0,3 km/h (0 Bft) SW 231 0 min 0,000 mm 0,0 UV-I 0 W/m 8,1 C 15,6 C 1,6 km/h (1 Bft) 100,00 %
10.11.2015 16:56 15,4 C 61 % 1023,0 hPa 0,0 l/m 0,0 km/h (0 Bft) SW 231 0 min 0,000 mm 0,0 UV-I 0 W/m 7,9 C 15,4 C 0,0 km/h (0 Bft) 95,65 %
10.11.2015 16:57 15,3 C 62 % 1022,9 hPa 0,0 l/m 0,6 km/h (0 Bft) SW 231 0 min 0,000 mm 0,0 UV-I 0 W/m 8,1 C 15,3 C 1,6 km/h (1 Bft) 100,00 %
10.11.2015 16:58 15,2 C 62 % 1022,9 hPa 0,0 l/m 1,1 km/h (1 Bft) SW 231 0 min 0,000 mm 0,0 UV-I 0 W/m 8,0 C 15,2 C 1,6 km/h (1 Bft) 100,00 %
10.11.2015 16:59 15,1 C 62 % 1022,9 hPa 0,0 l/m 1,5 km/h (1 Bft) SW 223 0 min 0,000 mm 0,0 UV-I 0 W/m 7,9 C 15,1 C 1,6 km/h (1 Bft) 100,00 %
10.11.2015 17:00 15,1 C 62 % 1022,9 hPa 0,0 l/m 1,9 km/h (1 Bft) SW 214 0 min 0,000 mm 0,0 UV-I 0 W/m 7,9 C 15,1 C 3,2 km/h (1 Bft) 95,65 %
10.11.2015 17:01 15,1 C 63 % 1022,9 hPa 0,0 l/m 2,2 km/h (1 Bft) S-SO 168 0 min 0,051 mm 0,0 UV-I 0 W/m 8,1 C 15,1 C 3,2 km/h (1 Bft) 100,00 %
10.11.2015 17:02 15,1 C 63 % 1022,9 hPa 0,0 l/m 1,4 km/h (1 Bft) S-SO 168 0 min 0,000 mm 0,0 UV-I 0 W/m 8,1 C 15,1 C 3,2 km/h (1 Bft) 86,96 %
10.11.2015 17:03 15,0 C 63 % 1023,0 hPa 0,0 l/m 0,7 km/h (0 Bft) S-SO 168 0 min 0,000 mm 0,0 UV-I 0 W/m 8,0 C 15,0 C 1,6 km/h (1 Bft) 95,83 %
10.11.2015 17:04 15,0 C 63 % 1022,9 hPa 0,0 l/m 0,0 km/h (0 Bft) S-SO 168 0 min 0,000 mm 0,0 UV-I 0 W/m 8,0 C 15,0 C 0,0 km/h (0 Bft) 100,00 %
10.11.2015 17:05 14,9 C 64 % 1023,0 hPa 0,0 l/m 0,1 km/h (0 Bft) S-SO 168 0 min 0,000 mm 0,0 UV-I 0 W/m 8,2 C 14,9 C 1,6 km/h (1 Bft) 91,67 %
10.11.2015 17:06 14,9 C 64 % 1022,9 hPa 0,0 l/m 0,6 km/h (0 Bft) S-SO 168 0 min 0,000 mm 0,0 UV-I 0 W/m 8,2 C 14,9 C 1,6 km/h (1 Bft) 95,65 %
10.11.2015 17:07 14,9 C 63 % 1022,9 hPa 0,0 l/m 1,3 km/h (1 Bft) S-SO 168 0 min 0,000 mm 0,0 UV-I 0 W/m 7,9 C 14,9 C 3,2 km/h (1 Bft) 95,83 %
10.11.2015 17:08 14,9 C 63 % 1022,9 hPa 0,0 l/m 1,1 km/h (1 Bft) S-SO 168 0 min 0,000 mm 0,0 UV-I 0 W/m 7,9 C 14,9 C 1,6 km/h (1 Bft) 100,00 %
10.11.2015 17:09 14,8 C 63 % 1022,9 hPa 0,0 l/m 1,4 km/h (1 Bft) S-SO 168 0 min 0,000 mm 0,0 UV-I 0 W/m 7,8 C 14,8 C 3,2 km/h (1 Bft) 100,00 %
10.11.2015 17:10 14,8 C 65 % 1022,9 hPa 0,0 l/m 1,7 km/h (1 Bft) S-SO 168 0 min 0,000 mm 0,0 UV-I 0 W/m 8,3 C 14,8 C 3,2 km/h (1 Bft) 95,65 %
10.11.2015 17:11 14,7 C 64 % 1022,9 hPa 0,0 l/m 1,5 km/h (1 Bft) S-SO 168 0 min 0,000 mm 0,0 UV-I 0 W/m 8,0 C 14,7 C 3,2 km/h (1 Bft) 100,00 %
10.11.2015 17:12 14,7 C 65 % 1022,9 hPa 0,0 l/m 0,9 km/h (0 Bft) S-SO 168 0 min 0,000 mm 0,0 UV-I 0 W/m 8,2 C 14,7 C 1,6 km/h (1 Bft) 95,65 %
10.11.2015 17:13 14,7 C 64 % 1022,8 hPa 0,0 l/m 1,3 km/h (1 Bft) S-SO 168 0 min 0,000 mm 0,0 UV-I 0 W/m 8,0 C 14,7 C 1,6 km/h (1 Bft) 100,00 %
10.11.2015 17:14 14,7 C 64 % 1022,9 hPa 0,0 l/m 0,8 km/h (0 Bft) S-SO 168 0 min 0,000 mm 0,0 UV-I 0 W/m 8,0 C 14,7 C 1,6 km/h (1 Bft) 100,00 %
10.11.2015 17:15 14,7 C 65 % 1022,9 hPa 0,0 l/m 0,5 km/h (0 Bft) S-SO 168 0 min 0,000 mm 0,0 UV-I 0 W/m 8,2 C 14,7 C 1,6 km/h (1 Bft) 100,00 %
10.11.2015 17:16 14,7 C 64 % 1022,9 hPa 0,0 l/m 0,9 km/h (0 Bft) S-SO 168 0 min 0,000 mm 0,0 UV-I 0 W/m 8,0 C 14,7 C 1,6 km/h (1 Bft) 95,65 %
10.11.2015 17:17 14,6 C 64 % 1022,9 hPa 0,0 l/m 0,9 km/h (0 Bft) S-SO 168 0 min 0,000 mm 0,0 UV-I 0 W/m 7,9 C 14,6 C 1,6 km/h (1 Bft) 100,00 %
10.11.2015 17:18 14,6 C 65 % 1022,8 hPa 0,0 l/m 1,0 km/h (0 Bft) S-SO 168 0 min 0,000 mm 0,0 UV-I 0 W/m 8,1 C 14,6 C 1,6 km/h (1 Bft) 95,83 %
10.11.2015 17:19 14,6 C 65 % 1022,9 hPa 0,0 l/m 0,7 km/h (0 Bft) S-SO 168 0 min 0,000 mm 0,0 UV-I 0 W/m 8,1 C 14,6 C 1,6 km/h (1 Bft) 95,65 %
10.11.2015 17:20 14,5 C 65 % 1022,8 hPa 0,0 l/m 0,6 km/h (0 Bft) S-SO 168 0 min 0,000 mm 0,0 UV-I 0 W/m 8,0 C 14,5 C 1,6 km/h (1 Bft) 100,00 %
10.11.2015 17:21 14,4 C 65 % 1022,9 hPa 0,0 l/m 0,7 km/h (0 Bft) S-SO 168 0 min 0,000 mm 0,0 UV-I 0 W/m 7,9 C 14,4 C 1,6 km/h (1 Bft) 100,00 %
10.11.2015 17:22 14,3 C 66 % 1022,9 hPa 0,0 l/m 0,8 km/h (0 Bft) S-SO 168 0 min 0,000 mm 0,0 UV-I 0 W/m 8,0 C 14,3 C 1,6 km/h (1 Bft) 100,00 %
10.11.2015 17:23 14,3 C 66 % 1022,9 hPa 0,0 l/m 0,4 km/h (0 Bft) S-SO 168 0 min 0,000 mm 0,0 UV-I 0 W/m 8,0 C 14,3 C 1,6 km/h (1 Bft) 100,00 %
10.11.2015 17:24 14,2 C 66 % 1022,8 hPa 0,0 l/m 1,6 km/h (1 Bft) S-SO 168 0 min 0,000 mm 0,0 UV-I 0 W/m 7,9 C 14,2 C 3,2 km/h (1 Bft) 100,00 %
10.11.2015 17:25 14,1 C 67 % 1022,9 hPa 0,0 l/m 1,0 km/h (0 Bft) S-SO 168 0 min 0,000 mm 0,0 UV-I 0 W/m 8,1 C 14,1 C 1,6 km/h (1 Bft) 100,00 %
10.11.2015 17:26 13,9 C 67 % 1022,9 hPa 0,0 l/m 0,7 km/h (0 Bft) S-SO 168 0 min 0,000 mm 0,0 UV-I 0 W/m 7,9 C 13,9 C 1,6 km/h (1 Bft) 100,00 %
10.11.2015 17:27 13,9 C 67 % 1022,9 hPa 0,0 l/m 0,2 km/h (0 Bft) S-SO 168 0 min 0,000 mm 0,0 UV-I 0 W/m 7,9 C 13,9 C 1,6 km/h (1 Bft) 100,00 %
10.11.2015 17:28 13,8 C 67 % 1022,9 hPa 0,0 l/m 0,5 km/h (0 Bft) S-SO 168 0 min 0,000 mm 0,0 UV-I 0 W/m 7,8 C 13,8 C 1,6 km/h (1 Bft) 100,00 %
10.11.2015 17:29 13,8 C 67 % 1022,9 hPa 0,0 l/m 0,0 km/h (0 Bft) S-SO 168 0 min 0,000 mm 0,0 UV-I 0 W/m 7,8 C 13,8 C 0,0 km/h (0 Bft) 100,00 %
10.11.2015 17:30 13,8 C 68 % 1022,9 hPa 0,0 l/m 0,1 km/h (0 Bft) S-SO 168 0 min 0,000 mm 0,0 UV-I 0 W/m 8,0 C 13,8 C 1,6 km/h (1 Bft) 100,00 %
10.11.2015 17:31 13,8 C 68 % 1022,9 hPa 0,0 l/m 0,0 km/h (0 Bft) S-SO 168 0 min 0,000 mm 0,0 UV-I 0 W/m 8,0 C 13,8 C 0,0 km/h (0 Bft) 100,00 %
10.11.2015 17:32 13,7 C 68 % 1022,9 hPa 0,0 l/m 0,3 km/h (0 Bft) S-SO 168 0 min 0,000 mm 0,0 UV-I 0 W/m 7,9 C 13,7 C 1,6 km/h (1 Bft) 100,00 %
10.11.2015 17:33 13,6 C 68 % 1022,9 hPa 0,0 l/m 0,3 km/h (0 Bft) S-SO 168 0 min 0,000 mm 0,0 UV-I 0 W/m 7,8 C 13,6 C 1,6 km/h (1 Bft) 100,00 %
10.11.2015 17:34 13,6 C 68 % 1022,9 hPa 0,0 l/m 0,2 km/h (0 Bft) S-SO 168 0 min 0,000 mm 0,0 UV-I 0 W/m 7,8 C 13,6 C 1,6 km/h (1 Bft) 100,00 %
10.11.2015 17:35 13,6 C 68 % 1022,9 hPa 0,0 l/m 0,3 km/h (0 Bft) S-SO 168 0 min 0,000 mm 0,0 UV-I 0 W/m 7,8 C 13,6 C 1,6 km/h (1 Bft) 100,00 %
10.11.2015 17:36 13,6 C 68 % 1022,9 hPa 0,0 l/m 0,0 km/h (0 Bft) S-SO 168 0 min 0,000 mm 0,0 UV-I 0 W/m 7,8 C 13,6 C 0,0 km/h (0 Bft) 95,65 %
10.11.2015 17:37 13,6 C 68 % 1022,9 hPa 0,0 l/m 0,0 km/h (0 Bft) S-SO 168 0 min 0,000 mm 0,0 UV-I 0 W/m 7,8 C 13,6 C 0,0 km/h (0 Bft) 100,00 %
10.11.2015 17:38 13,6 C 68 % 1022,9 hPa 0,0 l/m 0,0 km/h (0 Bft) S-SO 168 0 min 0,000 mm 0,0 UV-I 0 W/m 7,8 C 13,6 C 0,0 km/h (0 Bft) 100,00 %
10.11.2015 17:39 13,7 C 67 % 1022,9 hPa 0,0 l/m 0,0 km/h (0 Bft) S-SO 168 0 min 0,000 mm 0,0 UV-I 0 W/m 7,7 C 13,7 C 0,0 km/h (0 Bft) 100,00 %
10.11.2015 17:40 13,7 C 67 % 1022,9 hPa 0,0 l/m 0,0 km/h (0 Bft) S-SO 168 0 min 0,000 mm 0,0 UV-I 0 W/m 7,7 C 13,7 C 0,0 km/h (0 Bft) 100,00 %
10.11.2015 17:41 13,8 C 67 % 1022,9 hPa 0,0 l/m 0,0 km/h (0 Bft) S-SO 168 0 min 0,000 mm 0,0 UV-I 0 W/m 7,8 C 13,8 C 0,0 km/h (0 Bft) 100,00 %
10.11.2015 17:42 13,7 C 68 % 1022,9 hPa 0,0 l/m 0,1 km/h (0 Bft) S-SO 168 0 min 0,000 mm 0,0 UV-I 0 W/m 7,9 C 13,7 C 1,6 km/h (1 Bft) 100,00 %
10.11.2015 17:43 13,7 C 69 % 1022,9 hPa 0,0 l/m 0,0 km/h (0 Bft) S-SO 168 0 min 0,000 mm 0,0 UV-I 0 W/m 8,1 C 13,7 C 0,0 km/h (0 Bft) 100,00 %
10.11.2015 17:44 13,6 C 69 % 1022,9 hPa 0,0 l/m 0,0 km/h (0 Bft) S-SO 168 0 min 0,000 mm 0,0 UV-I 0 W/m 8,0 C 13,6 C 0,0 km/h (0 Bft) 100,00 %
10.11.2015 17:45 13,4 C 69 % 1022,9 hPa 0,0 l/m 0,0 km/h (0 Bft) S-SO 168 0 min 0,000 mm 0,0 UV-I 0 W/m 7,8 C 13,4 C 0,0 km/h (0 Bft) 100,00 %
10.11.2015 17:46 13,3 C 70 % 1022,9 hPa 0,0 l/m 0,3 km/h (0 Bft) S-SO 168 0 min 0,000 mm 0,0 UV-I 0 W/m 7,9 C 13,3 C 1,6 km/h (1 Bft) 100,00 %
10.11.2015 17:47 13,3 C 70 % 1022,9 hPa 0,0 l/m 0,8 km/h (0 Bft) S-SO 168 0 min 0,000 mm 0,0 UV-I 0 W/m 7,9 C 13,3 C 1,6 km/h (1 Bft) 100,00 %
10.11.2015 17:48 13,2 C 72 % 1022,9 hPa 0,0 l/m 1,0 km/h (0 Bft) S-SO 168 0 min 0,000 mm 0,0 UV-I 0 W/m 8,3 C 13,2 C 1,6 km/h (1 Bft) 100,00 %
10.11.2015 17:49 13,1 C 72 % 1022,9 hPa 0,0 l/m 1,6 km/h (1 Bft) S 179 0 min 0,000 mm 0,0 UV-I 0 W/m 8,2 C 13,1 C 3,2 km/h (1 Bft) 100,00 %
10.11.2015 17:50 12,9 C 72 % 1022,9 hPa 0,0 l/m 0,9 km/h (0 Bft) S 179 0 min 0,000 mm 0,0 UV-I 0 W/m 8,0 C 12,9 C 1,6 km/h (1 Bft) 100,00 %
10.11.2015 17:51 12,8 C 72 % 1022,9 hPa 0,0 l/m 0,7 km/h (0 Bft) S 179 0 min 0,000 mm 0,0 UV-I 0 W/m 7,9 C 12,8 C 1,6 km/h (1 Bft) 95,83 %
10.11.2015 17:52 12,8 C 73 % 1022,9 hPa 0,0 l/m 0,0 km/h (0 Bft) S 179 0 min 0,000 mm 0,0 UV-I 0 W/m 8,1 C 12,8 C 0,0 km/h (0 Bft) 100,00 %
10.11.2015 17:53 12,7 C 73 % 1022,9 hPa 0,0 l/m 0,1 km/h (0 Bft) S 179 0 min 0,000 mm 0,0 UV-I 0 W/m 8,0 C 12,7 C 1,6 km/h (1 Bft) 100,00 %
10.11.2015 17:54 12,7 C 72 % 1022,9 hPa 0,0 l/m 0,0 km/h (0 Bft) S 179 0 min 0,000 mm 0,0 UV-I 0 W/m 7,8 C 12,7 C 0,0 km/h (0 Bft) 100,00 %
10.11.2015 17:55 12,7 C 72 % 1022,9 hPa 0,0 l/m 0,0 km/h (0 Bft) S 179 0 min 0,000 mm 0,0 UV-I 0 W/m 7,8 C 12,7 C 0,0 km/h (0 Bft) 99,05 %
10.11.2015 17:56 12,6 C 73 % 1022,9 hPa 0,0 l/m 0,0 km/h (0 Bft) S 179 0 min 0,000 mm 0,0 UV-I 0 W/m 7,9 C 12,6 C 0,0 km/h (0 Bft) 97,78 %
10.11.2015 17:57 12,7 C 72 % 1022,9 hPa 0,0 l/m 0,0 km/h (0 Bft) S 179 0 min 0,000 mm 0,0 UV-I 0 W/m 7,8 C 12,7 C 0,0 km/h (0 Bft) 100,00 %
10.11.2015 18:00 12,7 C 72 % 1022,9 hPa 0,0 l/m 0,0 km/h (0 Bft) S 179 0 min 0,000 mm 0,0 UV-I 0 W/m 7,8 C 12,7 C 0,0 km/h (0 Bft) 98,73 %
10.11.2015 18:01 12,7 C 72 % 1022,9 hPa 0,0 l/m 0,0 km/h (0 Bft) S 179 0 min 0,000 mm 0,0 UV-I 0 W/m 7,8 C 12,7 C 0,0 km/h (0 Bft) 95,83 %
10.11.2015 18:02 12,8 C 72 % 1023,0 hPa 0,0 l/m 0,0 km/h (0 Bft) S 179 0 min 0,000 mm 0,0 UV-I 0 W/m 7,9 C 12,8 C 0,0 km/h (0 Bft) 100,00 %
10.11.2015 18:03 12,8 C 72 % 1022,9 hPa 0,0 l/m 0,0 km/h (0 Bft) S 179 0 min 0,000 mm 0,0 UV-I 0 W/m 7,9 C 12,8 C 0,0 km/h (0 Bft) 92,31 %
10.11.2015 18:04 12,8 C 72 % 1023,0 hPa 0,0 l/m 0,0 km/h (0 Bft) S 179 0 min 0,000 mm 0,0 UV-I 0 W/m 7,9 C 12,8 C 0,0 km/h (0 Bft) 100,00 %
10.11.2015 18:05 12,8 C 72 % 1023,0 hPa 0,0 l/m 0,0 km/h (0 Bft) S 179 0 min 0,000 mm 0,0 UV-I 0 W/m 7,9 C 12,8 C 0,0 km/h (0 Bft) 100,00 %
10.11.2015 18:06 12,7 C 72 % 1023,1 hPa 0,0 l/m 0,0 km/h (0 Bft) S 179 0 min 0,000 mm 0,0 UV-I 0 W/m 7,8 C 12,7 C 0,0 km/h (0 Bft) 100,00 %
10.11.2015 18:07 12,7 C 72 % 1023,0 hPa 0,0 l/m 0,0 km/h (0 Bft) S 179 0 min 0,000 mm 0,0 UV-I 0 W/m 7,8 C 12,7 C 0,0 km/h (0 Bft) 96,15 %
10.11.2015 18:08 12,7 C 72 % 1023,0 hPa 0,0 l/m 0,0 km/h (0 Bft) S 179 0 min 0,000 mm 0,0 UV-I 0 W/m 7,8 C 12,7 C 0,0 km/h (0 Bft) 100,00 %
10.11.2015 18:09 12,7 C 72 % 1023,0 hPa 0,0 l/m 0,0 km/h (0 Bft) S 179 0 min 0,000 mm 0,0 UV-I 0 W/m 7,8 C 12,7 C 0,0 km/h (0 Bft) 100,00 %
10.11.2015 18:10 12,7 C 72 % 1023,0 hPa 0,0 l/m 0,0 km/h (0 Bft) S 179 0 min 0,000 mm 0,0 UV-I 0 W/m 7,8 C 12,7 C 0,0 km/h (0 Bft) 100,00 %
10.11.2015 18:11 12,7 C 71 % 1023,0 hPa 0,0 l/m 0,0 km/h (0 Bft) S 179 0 min 0,000 mm 0,0 UV-I 0 W/m 7,6 C 12,7 C 0,0 km/h (0 Bft) 100,00 %
10.11.2015 18:12 12,8 C 71 % 1023,1 hPa 0,0 l/m 0,0 km/h (0 Bft) S 179 0 min 0,000 mm 0,0 UV-I 0 W/m 7,7 C 12,8 C 0,0 km/h (0 Bft) 100,00 %
10.11.2015 18:13 12,8 C 71 % 1023,1 hPa 0,0 l/m 0,0 km/h (0 Bft) S 179 0 min 0,000 mm 0,0 UV-I 0 W/m 7,7 C 12,8 C 0,0 km/h (0 Bft) 100,00 %
10.11.2015 18:14 12,8 C 71 % 1023,1 hPa 0,0 l/m 0,0 km/h (0 Bft) S 179 0 min 0,000 mm 0,0 UV-I 0 W/m 7,7 C 12,8 C 0,0 km/h (0 Bft) 100,00 %
10.11.2015 18:15 12,9 C 71 % 1023,0 hPa 0,0 l/m 0,0 km/h (0 Bft) S 179 0 min 0,000 mm 0,0 UV-I 0 W/m 7,8 C 12,9 C 0,0 km/h (0 Bft) 100,00 %
10.11.2015 18:16 12,9 C 71 % 1023,1 hPa 0,0 l/m 0,0 km/h (0 Bft) S 179 0 min 0,000 mm 0,0 UV-I 0 W/m 7,8 C 12,9 C 0,0 km/h (0 Bft) 100,00 %
10.11.2015 18:17 12,8 C 71 % 1023,1 hPa 0,0 l/m 0,0 km/h (0 Bft) S 179 0 min 0,000 mm 0,0 UV-I 0 W/m 7,7 C 12,8 C 0,0 km/h (0 Bft) 95,83 %
10.11.2015 18:18 12,8 C 70 % 1023,1 hPa 0,0 l/m 0,0 km/h (0 Bft) S 179 0 min 0,000 mm 0,0 UV-I 0 W/m 7,5 C 12,8 C 0,0 km/h (0 Bft) 100,00 %
10.11.2015 18:19 12,9 C 71 % 1023,2 hPa 0,0 l/m 0,0 km/h (0 Bft) S 179 0 min 0,000 mm 0,0 UV-I 0 W/m 7,8 C 12,9 C 0,0 km/h (0 Bft) 100,00 %
10.11.2015 18:20 12,8 C 71 % 1023,2 hPa 0,0 l/m 0,0 km/h (0 Bft) S 179 0 min 0,000 mm 0,0 UV-I 0 W/m 7,7 C 12,8 C 0,0 km/h (0 Bft) 100,00 %
10.11.2015 18:21 12,8 C 71 % 1023,2 hPa 0,0 l/m 0,0 km/h (0 Bft) S 179 0 min 0,000 mm 0,0 UV-I 0 W/m 7,7 C 12,8 C 0,0 km/h (0 Bft) 100,00 %
10.11.2015 18:22 12,8 C 71 % 1023,2 hPa 0,0 l/m 0,0 km/h (0 Bft) S 179 0 min 0,000 mm 0,0 UV-I 0 W/m 7,7 C 12,8 C 0,0 km/h (0 Bft) 100,00 %
10.11.2015 18:23 12,8 C 71 % 1023,2 hPa 0,0 l/m 0,0 km/h (0 Bft) S 179 0 min 0,000 mm 0,0 UV-I 0 W/m 7,7 C 12,8 C 0,0 km/h (0 Bft) 100,00 %
10.11.2015 18:24 12,8 C 71 % 1023,2 hPa 0,0 l/m 0,2 km/h (0 Bft) S 179 0 min 0,000 mm 0,0 UV-I 0 W/m 7,7 C 12,8 C 1,6 km/h (1 Bft) 100,00 %
10.11.2015 18:25 12,9 C 71 % 1023,2 hPa 0,0 l/m 0,5 km/h (0 Bft) S 179 0 min 0,000 mm 0,0 UV-I 0 W/m 7,8 C 12,9 C 1,6 km/h (1 Bft) 100,00 %
10.11.2015 18:26 12,8 C 71 % 1023,3 hPa 0,0 l/m 0,2 km/h (0 Bft) S 179 0 min 0,000 mm 0,0 UV-I 0 W/m 7,7 C 12,8 C 1,6 km/h (1 Bft) 100,00 %
10.11.2015 18:27 12,8 C 71 % 1023,3 hPa 0,0 l/m 0,0 km/h (0 Bft) S 179 0 min 0,000 mm 0,0 UV-I 0 W/m 7,7 C 12,8 C 0,0 km/h (0 Bft) 100,00 %
10.11.2015 18:28 12,7 C 72 % 1023,3 hPa 0,0 l/m 0,0 km/h (0 Bft) S 179 0 min 0,000 mm 0,0 UV-I 0 W/m 7,8 C 12,7 C 0,0 km/h (0 Bft) 100,00 %
10.11.2015 18:29 12,7 C 71 % 1023,3 hPa 0,0 l/m 0,1 km/h (0 Bft) S 179 0 min 0,000 mm 0,0 UV-I 0 W/m 7,6 C 12,7 C 1,6 km/h (1 Bft) 100,00 %
10.11.2015 18:30 12,7 C 71 % 1023,3 hPa 0,0 l/m 0,0 km/h (0 Bft) S 179 0 min 0,000 mm 0,0 UV-I 0 W/m 7,6 C 12,7 C 0,0 km/h (0 Bft) 100,00 %
10.11.2015 18:31 12,8 C 71 % 1023,3 hPa 0,0 l/m 0,0 km/h (0 Bft) S 179 0 min 0,000 mm 0,0 UV-I 0 W/m 7,7 C 12,8 C 0,0 km/h (0 Bft) 95,83 %
10.11.2015 18:32 12,8 C 71 % 1023,3 hPa 0,0 l/m 0,0 km/h (0 Bft) S 179 0 min 0,000 mm 0,0 UV-I 0 W/m 7,7 C 12,8 C 0,0 km/h (0 Bft) 100,00 %
10.11.2015 18:33 12,8 C 71 % 1023,3 hPa 0,0 l/m 0,0 km/h (0 Bft) S 179 0 min 0,000 mm 0,0 UV-I 0 W/m 7,7 C 12,8 C 0,0 km/h (0 Bft) 100,00 %
10.11.2015 18:34 12,8 C 71 % 1023,3 hPa 0,0 l/m 0,0 km/h (0 Bft) S 179 0 min 0,000 mm 0,0 UV-I 0 W/m 7,7 C 12,8 C 0,0 km/h (0 Bft) 95,83 %
10.11.2015 18:35 12,8 C 71 % 1023,3 hPa 0,0 l/m 0,2 km/h (0 Bft) S 179 0 min 0,000 mm 0,0 UV-I 0 W/m 7,7 C 12,8 C 1,6 km/h (1 Bft) 96,15 %
10.11.2015 18:36 12,8 C 71 % 1023,4 hPa 0,0 l/m 0,1 km/h (0 Bft) S 179 0 min 0,000 mm 0,0 UV-I 0 W/m 7,7 C 12,8 C 1,6 km/h (1 Bft) 100,00 %
10.11.2015 18:37 12,8 C 71 % 1023,4 hPa 0,0 l/m 0,0 km/h (0 Bft) S 179 0 min 0,000 mm 0,0 UV-I 0 W/m 7,7 C 12,8 C 0,0 km/h (0 Bft) 100,00 %
10.11.2015 18:38 12,8 C 72 % 1023,3 hPa 0,0 l/m 0,0 km/h (0 Bft) S 179 0 min 0,000 mm 0,0 UV-I 0 W/m 7,9 C 12,8 C 0,0 km/h (0 Bft) 95,83 %
10.11.2015 18:39 12,7 C 71 % 1023,4 hPa 0,0 l/m 0,0 km/h (0 Bft) S 179 0 min 0,000 mm 0,0 UV-I 0 W/m 7,6 C 12,7 C 0,0 km/h (0 Bft) 100,00 %
10.11.2015 18:40 12,7 C 71 % 1023,4 hPa 0,0 l/m 0,0 km/h (0 Bft) S 179 0 min 0,000 mm 0,0 UV-I 0 W/m 7,6 C 12,7 C 0,0 km/h (0 Bft) 100,00 %
10.11.2015 18:41 12,8 C 71 % 1023,4 hPa 0,0 l/m 0,0 km/h (0 Bft) S 179 0 min 0,000 mm 0,0 UV-I 0 W/m 7,7 C 12,8 C 0,0 km/h (0 Bft) 100,00 %
10.11.2015 18:42 12,8 C 71 % 1023,4 hPa 0,0 l/m 0,0 km/h (0 Bft) S 179 0 min 0,000 mm 0,0 UV-I 0 W/m 7,7 C 12,8 C 0,0 km/h (0 Bft) 95,83 %
10.11.2015 18:43 12,8 C 71 % 1023,4 hPa 0,0 l/m 0,0 km/h (0 Bft) S 179 0 min 0,000 mm 0,0 UV-I 0 W/m 7,7 C 12,8 C 0,0 km/h (0 Bft) 100,00 %
10.11.2015 18:44 12,7 C 72 % 1023,4 hPa 0,0 l/m 0,0 km/h (0 Bft) S 179 0 min 0,000 mm 0,0 UV-I 0 W/m 7,8 C 12,7 C 0,0 km/h (0 Bft) 95,83 %
10.11.2015 18:45 12,7 C 72 % 1023,4 hPa 0,0 l/m 0,0 km/h (0 Bft) S 179 0 min 0,000 mm 0,0 UV-I 0 W/m 7,8 C 12,7 C 0,0 km/h (0 Bft) 100,00 %
10.11.2015 18:46 12,7 C 72 % 1023,4 hPa 0,0 l/m 0,0 km/h (0 Bft) S 179 0 min 0,000 mm 0,0 UV-I 0 W/m 7,8 C 12,7 C 0,0 km/h (0 Bft) 100,00 %
10.11.2015 18:47 12,7 C 72 % 1023,5 hPa 0,0 l/m 0,0 km/h (0 Bft) S 179 0 min 0,000 mm 0,0 UV-I 0 W/m 7,8 C 12,7 C 0,0 km/h (0 Bft) 100,00 %
10.11.2015 18:48 12,7 C 72 % 1023,4 hPa 0,0 l/m 0,2 km/h (0 Bft) S 179 0 min 0,000 mm 0,0 UV-I 0 W/m 7,8 C 12,7 C 1,6 km/h (1 Bft) 100,00 %
10.11.2015 18:49 12,7 C 72 % 1023,5 hPa 0,0 l/m 0,8 km/h (0 Bft) S 179 0 min 0,000 mm 0,0 UV-I 0 W/m 7,8 C 12,7 C 1,6 km/h (1 Bft) 96,15 %
10.11.2015 18:50 12,7 C 72 % 1023,4 hPa 0,0 l/m 1,2 km/h (1 Bft) S 179 0 min 0,000 mm 0,0 UV-I 0 W/m 7,8 C 12,7 C 3,2 km/h (1 Bft) 100,00 %
10.11.2015 18:51 12,7 C 72 % 1023,4 hPa 0,0 l/m 1,4 km/h (1 Bft) S 179 0 min 0,000 mm 0,0 UV-I 0 W/m 7,8 C 12,7 C 1,6 km/h (1 Bft) 100,00 %
10.11.2015 18:52 12,7 C 72 % 1023,4 hPa 0,0 l/m 1,5 km/h (1 Bft) S 179 0 min 0,000 mm 0,0 UV-I 0 W/m 7,8 C 12,7 C 1,6 km/h (1 Bft) 100,00 %
10.11.2015 18:53 12,8 C 72 % 1023,5 hPa 0,0 l/m 1,4 km/h (1 Bft) S 179 0 min 0,000 mm 0,0 UV-I 0 W/m 7,9 C 12,8 C 3,2 km/h (1 Bft) 100,00 %
10.11.2015 18:54 12,8 C 72 % 1023,4 hPa 0,0 l/m 1,9 km/h (1 Bft) S 179 0 min 0,000 mm 0,0 UV-I 0 W/m 7,9 C 12,8 C 3,2 km/h (1 Bft) 100,00 %
10.11.2015 18:55 12,8 C 71 % 1023,4 hPa 0,0 l/m 1,9 km/h (1 Bft) S 179 0 min 0,000 mm 0,0 UV-I 0 W/m 7,7 C 12,8 C 3,2 km/h (1 Bft) 100,00 %
10.11.2015 18:56 12,8 C 72 % 1023,4 hPa 0,0 l/m 1,1 km/h (1 Bft) S 179 0 min 0,000 mm 0,0 UV-I 0 W/m 7,9 C 12,8 C 1,6 km/h (1 Bft) 100,00 %
10.11.2015 18:57 12,8 C 72 % 1023,4 hPa 0,0 l/m 1,1 km/h (1 Bft) S 179 0 min 0,000 mm 0,0 UV-I 0 W/m 7,9 C 12,8 C 1,6 km/h (1 Bft) 100,00 %
10.11.2015 18:58 12,8 C 73 % 1023,4 hPa 0,0 l/m 0,3 km/h (0 Bft) S 179 0 min 0,000 mm 0,0 UV-I 0 W/m 8,1 C 12,8 C 1,6 km/h (1 Bft) 100,00 %
10.11.2015 18:59 12,7 C 72 % 1023,4 hPa 0,0 l/m 1,1 km/h (1 Bft) S 179 0 min 0,000 mm 0,0 UV-I 0 W/m 7,8 C 12,7 C 3,2 km/h (1 Bft) 100,00 %
10.11.2015 19:00 12,8 C 72 % 1023,4 hPa 0,0 l/m 1,2 km/h (1 Bft) S 179 0 min 0,000 mm 0,0 UV-I 0 W/m 7,9 C 12,8 C 3,2 km/h (1 Bft) 100,00 %
10.11.2015 19:01 12,8 C 72 % 1023,4 hPa 0,0 l/m 0,3 km/h (0 Bft) S 179 0 min 0,000 mm 0,0 UV-I 0 W/m 7,9 C 12,8 C 1,6 km/h (1 Bft) 95,83 %
10.11.2015 19:02 12,8 C 71 % 1023,4 hPa 0,0 l/m 1,4 km/h (1 Bft) SW 224 0 min 0,000 mm 0,0 UV-I 0 W/m 7,7 C 12,8 C 3,2 km/h (1 Bft) 100,00 %
10.11.2015 19:03 12,9 C 72 % 1023,4 hPa 0,0 l/m 2,2 km/h (1 Bft) SW 232 0 min 0,000 mm 0,0 UV-I 0 W/m 8,0 C 12,9 C 4,8 km/h (1 Bft) 100,00 %
10.11.2015 19:04 12,9 C 71 % 1023,4 hPa 0,0 l/m 2,1 km/h (1 Bft) W-SW 246 0 min 0,000 mm 0,0 UV-I 0 W/m 7,8 C 12,9 C 3,2 km/h (1 Bft) 100,00 %
10.11.2015 19:05 12,9 C 71 % 1023,4 hPa 0,0 l/m 2,1 km/h (1 Bft) S-SW 211 0 min 0,000 mm 0,0 UV-I 0 W/m 7,8 C 12,9 C 4,8 km/h (1 Bft) 100,00 %
10.11.2015 19:06 13,0 C 70 % 1023,4 hPa 0,0 l/m 1,9 km/h (1 Bft) S-SW 212 0 min 0,000 mm 0,0 UV-I 0 W/m 7,7 C 13,0 C 4,8 km/h (1 Bft) 100,00 %
10.11.2015 19:10 13,3 C 68 % 1023,5 hPa 0,0 l/m 3,1 km/h (1 Bft) SW 223 0 min 0,000 mm 0,0 UV-I 0 W/m 7,5 C 13,3 C 4,8 km/h (1 Bft) 98,94 %
10.11.2015 19:11 13,3 C 67 % 1023,5 hPa 0,0 l/m 3,8 km/h (1 Bft) SW 222 0 min 0,000 mm 0,0 UV-I 0 W/m 7,3 C 13,3 C 6,4 km/h (2 Bft) 100,00 %
10.11.2015 19:12 13,4 C 67 % 1023,5 hPa 0,0 l/m 2,4 km/h (1 Bft) W-SW 241 0 min 0,000 mm 0,0 UV-I 0 W/m 7,4 C 13,4 C 4,8 km/h (1 Bft) 100,00 %
10.11.2015 19:15 13,7 C 66 % 1023,5 hPa 0,0 l/m 4,2 km/h (1 Bft) SW 217 0 min 0,000 mm 0,0 UV-I 0 W/m 7,5 C 13,7 C 6,4 km/h (2 Bft) 97,26 %
10.11.2015 19:19 13,8 C 64 % 1023,6 hPa 0,0 l/m 7,4 km/h (2 Bft) SW 216 0 min 0,000 mm 0,0 UV-I 0 W/m 7,1 C 13,2 C 8,0 km/h (2 Bft) 100,00 %
10.11.2015 19:20 13,9 C 64 % 1023,6 hPa 0,0 l/m 5,8 km/h (2 Bft) S-SW 213 0 min 0,000 mm 0,0 UV-I 0 W/m 7,2 C 13,9 C 8,0 km/h (2 Bft) 100,00 %
10.11.2015 19:23 13,9 C 65 % 1023,5 hPa 0,0 l/m 2,2 km/h (1 Bft) SW 219 0 min 0,000 mm 0,0 UV-I 0 W/m 7,4 C 13,9 C 3,2 km/h (1 Bft) 98,46 %
10.11.2015 19:24 13,9 C 66 % 1023,6 hPa 0,0 l/m 3,0 km/h (1 Bft) SW 219 0 min 0,000 mm 0,0 UV-I 0 W/m 7,7 C 13,9 C 4,8 km/h (1 Bft) 100,00 %
10.11.2015 19:25 13,9 C 65 % 1023,6 hPa 0,0 l/m 3,8 km/h (1 Bft) SW 227 0 min 0,000 mm 0,0 UV-I 0 W/m 7,4 C 13,9 C 6,4 km/h (2 Bft) 100,00 %
10.11.2015 19:26 13,9 C 65 % 1023,6 hPa 0,0 l/m 3,7 km/h (1 Bft) SW 234 0 min 0,000 mm 0,0 UV-I 0 W/m 7,4 C 13,9 C 6,4 km/h (2 Bft) 100,00 %
10.11.2015 19:27 13,9 C 65 % 1023,5 hPa 0,0 l/m 3,1 km/h (1 Bft) SW 220 0 min 0,000 mm 0,0 UV-I 0 W/m 7,4 C 13,9 C 4,8 km/h (1 Bft) 100,00 %
10.11.2015 19:28 13,9 C 65 % 1023,6 hPa 0,0 l/m 2,7 km/h (1 Bft) SW 221 0 min 0,000 mm 0,0 UV-I 0 W/m 7,4 C 13,9 C 4,8 km/h (1 Bft) 100,00 %
10.11.2015 19:29 13,9 C 65 % 1023,6 hPa 0,0 l/m 3,8 km/h (1 Bft) S-SW 204 0 min 0,000 mm 0,0 UV-I 0 W/m 7,4 C 13,9 C 4,8 km/h (1 Bft) 95,65 %
10.11.2015 19:30 13,9 C 65 % 1023,5 hPa 0,0 l/m 2,5 km/h (1 Bft) S-SW 209 0 min 0,000 mm 0,0 UV-I 0 W/m 7,4 C 13,9 C 3,2 km/h (1 Bft) 100,00 %
10.11.2015 19:31 13,9 C 66 % 1023,5 hPa 0,0 l/m 3,2 km/h (1 Bft) SW 228 0 min 0,000 mm 0,0 UV-I 0 W/m 7,7 C 13,9 C 6,4 km/h (2 Bft) 100,00 %
10.11.2015 19:32 13,9 C 64 % 1023,6 hPa 0,0 l/m 5,6 km/h (1 Bft) SW 220 0 min 0,000 mm 0,0 UV-I 0 W/m 7,2 C 13,9 C 9,7 km/h (2 Bft) 100,00 %
10.11.2015 19:33 14,0 C 64 % 1023,5 hPa 0,0 l/m 5,9 km/h (2 Bft) SW 217 0 min 0,000 mm 0,0 UV-I 0 W/m 7,3 C 14,0 C 8,0 km/h (2 Bft) 100,00 %
10.11.2015 19:34 14,1 C 63 % 1023,6 hPa 0,0 l/m 5,8 km/h (2 Bft) SW 226 0 min 0,000 mm 0,0 UV-I 0 W/m 7,2 C 14,1 C 9,7 km/h (2 Bft) 100,00 %
10.11.2015 19:35 14,1 C 63 % 1023,6 hPa 0,0 l/m 4,8 km/h (1 Bft) SW 225 0 min 0,000 mm 0,0 UV-I 0 W/m 7,2 C 14,1 C 9,7 km/h (2 Bft) 100,00 %
10.11.2015 19:37 14,2 C 63 % 1023,6 hPa 0,0 l/m 5,1 km/h (1 Bft) SW 223 0 min 0,000 mm 0,0 UV-I 0 W/m 7,3 C 14,2 C 6,4 km/h (2 Bft) 100,00 %
10.11.2015 19:38 14,2 C 64 % 1023,6 hPa 0,0 l/m 4,4 km/h (1 Bft) S-SW 213 0 min 0,000 mm 0,0 UV-I 0 W/m 7,5 C 14,2 C 6,4 km/h (2 Bft) 100,00 %
10.11.2015 19:39 14,2 C 64 % 1023,6 hPa 0,0 l/m 3,1 km/h (1 Bft) S-SW 212 0 min 0,000 mm 0,0 UV-I 0 W/m 7,5 C 14,2 C 4,8 km/h (1 Bft) 100,00 %
10.11.2015 19:40 14,2 C 65 % 1023,6 hPa 0,0 l/m 3,2 km/h (1 Bft) SW 224 0 min 0,000 mm 0,0 UV-I 0 W/m 7,7 C 14,2 C 6,4 km/h (2 Bft) 96,43 %
10.11.2015 19:41 14,2 C 65 % 1023,6 hPa 0,0 l/m 3,5 km/h (1 Bft) SW 215 0 min 0,000 mm 0,0 UV-I 0 W/m 7,7 C 14,2 C 4,8 km/h (1 Bft) 100,00 %
10.11.2015 19:42 14,2 C 64 % 1023,6 hPa 0,0 l/m 3,5 km/h (1 Bft) SW 227 0 min 0,000 mm 0,0 UV-I 0 W/m 7,5 C 14,2 C 4,8 km/h (1 Bft) 100,00 %
10.11.2015 19:43 14,2 C 65 % 1023,6 hPa 0,0 l/m 3,5 km/h (1 Bft) SW 217 0 min 0,000 mm 0,0 UV-I 0 W/m 7,7 C 14,2 C 4,8 km/h (1 Bft) 96,55 %
10.11.2015 19:44 14,1 C 65 % 1023,6 hPa 0,0 l/m 3,4 km/h (1 Bft) SW 226 0 min 0,000 mm 0,0 UV-I 0 W/m 7,6 C 14,1 C 4,8 km/h (1 Bft) 100,00 %
10.11.2015 19:45 14,2 C 64 % 1023,6 hPa 0,0 l/m 3,2 km/h (1 Bft) SW 219 0 min 0,000 mm 0,0 UV-I 0 W/m 7,5 C 14,2 C 4,8 km/h (1 Bft) 95,65 %
10.11.2015 19:46 14,2 C 65 % 1023,6 hPa 0,0 l/m 4,3 km/h (1 Bft) S-SW 207 0 min 0,000 mm 0,0 UV-I 0 W/m 7,7 C 14,2 C 4,8 km/h (1 Bft) 100,00 %
10.11.2015 19:47 14,2 C 65 % 1023,6 hPa 0,0 l/m 2,9 km/h (1 Bft) SW 219 0 min 0,000 mm 0,0 UV-I 0 W/m 7,7 C 14,2 C 3,2 km/h (1 Bft) 100,00 %
10.11.2015 19:48 14,2 C 65 % 1023,6 hPa 0,0 l/m 3,4 km/h (1 Bft) SW 225 0 min 0,000 mm 0,0 UV-I 0 W/m 7,7 C 14,2 C 6,4 km/h (2 Bft) 100,00 %
10.11.2015 19:49 14,2 C 64 % 1023,6 hPa 0,0 l/m 3,6 km/h (1 Bft) SW 222 0 min 0,000 mm 0,0 UV-I 0 W/m 7,5 C 14,2 C 6,4 km/h (2 Bft) 100,00 %
10.11.2015 19:50 14,2 C 64 % 1023,6 hPa 0,0 l/m 4,2 km/h (1 Bft) SW 231 0 min 0,000 mm 0,0 UV-I 0 W/m 7,5 C 14,2 C 6,4 km/h (2 Bft) 100,00 %
10.11.2015 19:51 14,3 C 64 % 1023,6 hPa 0,0 l/m 3,5 km/h (1 Bft) SW 226 0 min 0,000 mm 0,0 UV-I 0 W/m 7,6 C 14,3 C 4,8 km/h (1 Bft) 100,00 %
10.11.2015 19:52 14,3 C 64 % 1023,6 hPa 0,0 l/m 6,3 km/h (2 Bft) SW 223 0 min 0,000 mm 0,0 UV-I 0 W/m 7,6 C 14,3 C 8,0 km/h (2 Bft) 100,00 %
10.11.2015 19:53 14,3 C 63 % 1023,6 hPa 0,0 l/m 8,7 km/h (2 Bft) SW 219 0 min 0,000 mm 0,0 UV-I 0 W/m 7,4 C 13,0 C 11,3 km/h (2 Bft) 100,00 %
10.11.2015 19:54 14,4 C 63 % 1023,6 hPa 0,0 l/m 8,0 km/h (2 Bft) SW 216 0 min 0,000 mm 0,0 UV-I 0 W/m 7,4 C 13,5 C 9,7 km/h (2 Bft) 100,00 %
10.11.2015 19:55 14,4 C 63 % 1023,6 hPa 0,0 l/m 8,0 km/h (2 Bft) SW 218 0 min 0,000 mm 0,0 UV-I 0 W/m 7,4 C 13,5 C 9,7 km/h (2 Bft) 95,83 %
10.11.2015 19:56 14,5 C 62 % 1023,6 hPa 0,0 l/m 8,5 km/h (2 Bft) SW 234 0 min 0,000 mm 0,0 UV-I 0 W/m 7,3 C 13,3 C 11,3 km/h (2 Bft) 100,00 %
10.11.2015 19:57 14,6 C 62 % 1023,6 hPa 0,0 l/m 6,1 km/h (2 Bft) SW 231 0 min 0,000 mm 0,0 UV-I 0 W/m 7,4 C 14,6 C 8,0 km/h (2 Bft) 100,00 %
10.11.2015 19:58 14,6 C 62 % 1023,6 hPa 0,0 l/m 6,0 km/h (2 Bft) S-SW 205 0 min 0,000 mm 0,0 UV-I 0 W/m 7,4 C 14,6 C 8,0 km/h (2 Bft) 100,00 %
10.11.2015 19:59 14,6 C 62 % 1023,7 hPa 0,0 l/m 5,6 km/h (1 Bft) SW 215 0 min 0,000 mm 0,0 UV-I 0 W/m 7,4 C 14,6 C 8,0 km/h (2 Bft) 100,00 %
10.11.2015 20:00 14,6 C 62 % 1023,7 hPa 0,0 l/m 3,4 km/h (1 Bft) SW 215 0 min 0,000 mm 0,0 UV-I 0 W/m 7,4 C 14,6 C 4,8 km/h (1 Bft) 100,00 %
10.11.2015 20:01 14,6 C 63 % 1023,7 hPa 0,0 l/m 2,5 km/h (1 Bft) SW 225 0 min 0,025 mm 0,0 UV-I 0 W/m 7,6 C 14,6 C 4,8 km/h (1 Bft) 100,00 %
10.11.2015 20:02 14,5 C 63 % 1023,7 hPa 0,0 l/m 2,3 km/h (1 Bft) S-SW 213 0 min 0,000 mm 0,0 UV-I 0 W/m 7,5 C 14,5 C 3,2 km/h (1 Bft) 100,00 %
10.11.2015 20:03 14,5 C 62 % 1023,6 hPa 0,0 l/m 5,8 km/h (2 Bft) SW 229 0 min 0,000 mm 0,0 UV-I 0 W/m 7,3 C 14,5 C 8,0 km/h (2 Bft) 100,00 %
10.11.2015 20:04 14,5 C 62 % 1023,7 hPa 0,0 l/m 7,2 km/h (2 Bft) S-SW 213 0 min 0,000 mm 0,0 UV-I 0 W/m 7,3 C 14,0 C 9,7 km/h (2 Bft) 100,00 %
10.11.2015 20:05 14,5 C 62 % 1023,7 hPa 0,0 l/m 6,7 km/h (2 Bft) S-SW 198 0 min 0,000 mm 0,0 UV-I 0 W/m 7,3 C 14,3 C 8,0 km/h (2 Bft) 100,00 %
10.11.2015 20:06 14,5 C 62 % 1023,7 hPa 0,0 l/m 6,4 km/h (2 Bft) W-SW 237 0 min 0,000 mm 0,0 UV-I 0 W/m 7,3 C 14,5 C 8,0 km/h (2 Bft) 100,00 %
10.11.2015 20:09 14,6 C 62 % 1023,6 hPa 0,0 l/m 5,1 km/h (1 Bft) SW 221 0 min 0,000 mm 0,0 UV-I 0 W/m 7,4 C 14,6 C 8,0 km/h (2 Bft) 100,00 %
10.11.2015 20:10 14,6 C 61 % 1023,7 hPa 0,0 l/m 6,4 km/h (2 Bft) S-SW 210 0 min 0,000 mm 0,0 UV-I 0 W/m 7,2 C 14,6 C 8,0 km/h (2 Bft) 100,00 %
10.11.2015 20:11 14,6 C 61 % 1023,6 hPa 0,0 l/m 6,6 km/h (2 Bft) SW 215 0 min 0,000 mm 0,0 UV-I 0 W/m 7,2 C 14,5 C 9,7 km/h (2 Bft) 100,00 %
10.11.2015 20:12 14,7 C 61 % 1023,6 hPa 0,0 l/m 6,0 km/h (2 Bft) SW 217 0 min 0,000 mm 0,0 UV-I 0 W/m 7,3 C 14,7 C 9,7 km/h (2 Bft) 100,00 %
10.11.2015 20:13 14,7 C 61 % 1023,7 hPa 0,0 l/m 5,0 km/h (1 Bft) SW 221 0 min 0,000 mm 0,0 UV-I 0 W/m 7,3 C 14,7 C 8,0 km/h (2 Bft) 100,00 %
10.11.2015 20:14 14,7 C 60 % 1023,7 hPa 0,0 l/m 6,6 km/h (2 Bft) SW 215 0 min 0,000 mm 0,0 UV-I 0 W/m 7,0 C 14,6 C 9,7 km/h (2 Bft) 100,00 %
10.11.2015 20:15 14,7 C 60 % 1023,7 hPa 0,0 l/m 6,4 km/h (2 Bft) SW 225 0 min 0,000 mm 0,0 UV-I 0 W/m 7,0 C 14,7 C 9,7 km/h (2 Bft) 100,00 %
10.11.2015 20:16 14,7 C 60 % 1023,7 hPa 0,0 l/m 5,5 km/h (1 Bft) SW 223 0 min 0,000 mm 0,0 UV-I 0 W/m 7,0 C 14,7 C 9,7 km/h (2 Bft) 100,00 %
10.11.2015 20:17 14,7 C 60 % 1023,7 hPa 0,0 l/m 6,4 km/h (2 Bft) W-SW 238 0 min 0,000 mm 0,0 UV-I 0 W/m 7,0 C 14,7 C 8,0 km/h (2 Bft) 100,00 %
10.11.2015 20:18 14,8 C 60 % 1023,7 hPa 0,0 l/m 5,5 km/h (1 Bft) SW 221 0 min 0,000 mm 0,0 UV-I 0 W/m 7,1 C 14,8 C 8,0 km/h (2 Bft) 100,00 %
10.11.2015 20:19 14,7 C 60 % 1023,7 hPa 0,0 l/m 4,0 km/h (1 Bft) SW 229 0 min 0,000 mm 0,0 UV-I 0 W/m 7,0 C 14,7 C 6,4 km/h (2 Bft) 100,00 %
10.11.2015 20:20 14,7 C 62 % 1023,7 hPa 0,0 l/m 2,5 km/h (1 Bft) SW 229 0 min 0,000 mm 0,0 UV-I 0 W/m 7,5 C 14,7 C 4,8 km/h (1 Bft) 95,65 %
10.11.2015 20:21 14,7 C 62 % 1023,7 hPa 0,0 l/m 2,1 km/h (1 Bft) SW 229 0 min 0,000 mm 0,0 UV-I 0 W/m 7,5 C 14,7 C 3,2 km/h (1 Bft) 100,00 %
10.11.2015 20:22 14,6 C 62 % 1023,8 hPa 0,0 l/m 2,4 km/h (1 Bft) SW 234 0 min 0,000 mm 0,0 UV-I 0 W/m 7,4 C 14,6 C 3,2 km/h (1 Bft) 92,86 %
10.11.2015 20:23 14,5 C 62 % 1023,7 hPa 0,0 l/m 2,5 km/h (1 Bft) S-SW 211 0 min 0,000 mm 0,0 UV-I 0 W/m 7,3 C 14,5 C 4,8 km/h (1 Bft) 100,00 %
10.11.2015 20:24 14,4 C 62 % 1023,7 hPa 0,0 l/m 5,0 km/h (1 Bft) SW 234 0 min 0,000 mm 0,0 UV-I 0 W/m 7,2 C 14,4 C 6,4 km/h (2 Bft) 100,00 %
10.11.2015 20:25 14,4 C 62 % 1023,7 hPa 0,0 l/m 4,8 km/h (1 Bft) S-SW 209 0 min 0,000 mm 0,0 UV-I 0 W/m 7,2 C 14,4 C 8,0 km/h (2 Bft) 100,00 %
10.11.2015 20:26 14,4 C 61 % 1023,7 hPa 0,0 l/m 3,9 km/h (1 Bft) W-SW 240 0 min 0,000 mm 0,0 UV-I 0 W/m 7,0 C 14,4 C 6,4 km/h (2 Bft) 96,15 %
10.11.2015 20:27 14,4 C 62 % 1023,7 hPa 0,0 l/m 3,2 km/h (1 Bft) W 267 0 min 0,000 mm 0,0 UV-I 0 W/m 7,2 C 14,4 C 4,8 km/h (1 Bft) 100,00 %
10.11.2015 20:28 14,4 C 62 % 1023,7 hPa 0,0 l/m 4,0 km/h (1 Bft) S-SW 208 0 min 0,000 mm 0,0 UV-I 0 W/m 7,2 C 14,4 C 6,4 km/h (2 Bft) 100,00 %
10.11.2015 20:29 14,4 C 62 % 1023,7 hPa 0,0 l/m 2,1 km/h (1 Bft) SW 235 0 min 0,000 mm 0,0 UV-I 0 W/m 7,2 C 14,4 C 4,8 km/h (1 Bft) 100,00 %
10.11.2015 20:30 14,3 C 62 % 1023,6 hPa 0,0 l/m 2,0 km/h (1 Bft) W-SW 242 0 min 0,000 mm 0,0 UV-I 0 W/m 7,1 C 14,3 C 3,2 km/h (1 Bft) 99,08 %
10.11.2015 20:31 14,3 C 62 % 1023,7 hPa 0,0 l/m 2,5 km/h (1 Bft) W 277 0 min 0,000 mm 0,0 UV-I 0 W/m 7,1 C 14,3 C 4,8 km/h (1 Bft) 100,00 %
10.11.2015 20:32 14,3 C 62 % 1023,6 hPa 0,0 l/m 2,8 km/h (1 Bft) W-SW 244 0 min 0,000 mm 0,0 UV-I 0 W/m 7,1 C 14,3 C 4,8 km/h (1 Bft) 100,00 %
10.11.2015 20:35 14,2 C 63 % 1023,6 hPa 0,0 l/m 3,2 km/h (1 Bft) SW 225 0 min 0,000 mm 0,0 UV-I 0 W/m 7,3 C 14,2 C 4,8 km/h (1 Bft) 100,00 %
10.11.2015 20:36 14,2 C 62 % 1023,6 hPa 0,0 l/m 3,5 km/h (1 Bft) S-SW 206 0 min 0,000 mm 0,0 UV-I 0 W/m 7,0 C 14,2 C 6,4 km/h (2 Bft) 99,00 %
10.11.2015 20:37 14,2 C 62 % 1023,6 hPa 0,0 l/m 3,5 km/h (1 Bft) S-SW 211 0 min 0,000 mm 0,0 UV-I 0 W/m 7,0 C 14,2 C 6,4 km/h (2 Bft) 100,00 %
10.11.2015 20:38 14,2 C 62 % 1023,6 hPa 0,0 l/m 2,6 km/h (1 Bft) S-SW 210 0 min 0,000 mm 0,0 UV-I 0 W/m 7,0 C 14,2 C 3,2 km/h (1 Bft) 100,00 %
10.11.2015 20:39 14,2 C 62 % 1023,6 hPa 0,0 l/m 2,3 km/h (1 Bft) W 266 0 min 0,000 mm 0,0 UV-I 0 W/m 7,0 C 14,2 C 3,2 km/h (1 Bft) 100,00 %
10.11.2015 20:40 14,2 C 62 % 1023,6 hPa 0,0 l/m 2,3 km/h (1 Bft) W-SW 238 0 min 0,000 mm 0,0 UV-I 0 W/m 7,0 C 14,2 C 3,2 km/h (1 Bft) 100,00 %
10.11.2015 20:41 14,2 C 61 % 1023,6 hPa 0,0 l/m 2,0 km/h (1 Bft) S-SW 205 0 min 0,000 mm 0,0 UV-I 0 W/m 6,8 C 14,2 C 3,2 km/h (1 Bft) 100,00 %
10.11.2015 20:42 14,2 C 61 % 1023,6 hPa 0,0 l/m 3,4 km/h (1 Bft) W-SW 242 0 min 0,000 mm 0,0 UV-I 0 W/m 6,8 C 14,2 C 6,4 km/h (2 Bft) 100,00 %
10.11.2015 20:43 14,2 C 61 % 1023,6 hPa 0,0 l/m 1,2 km/h (1 Bft) W-SW 242 0 min 0,000 mm 0,0 UV-I 0 W/m 6,8 C 14,2 C 3,2 km/h (1 Bft) 100,00 %
10.11.2015 20:44 14,2 C 62 % 1023,7 hPa 0,0 l/m 3,1 km/h (1 Bft) SW 218 0 min 0,000 mm 0,0 UV-I 0 W/m 7,0 C 14,2 C 4,8 km/h (1 Bft) 100,00 %
10.11.2015 20:45 14,2 C 61 % 1023,6 hPa 0,0 l/m 4,2 km/h (1 Bft) SW 229 0 min 0,000 mm 0,0 UV-I 0 W/m 6,8 C 14,2 C 6,4 km/h (2 Bft) 100,00 %
10.11.2015 20:46 14,2 C 61 % 1023,6 hPa 0,0 l/m 6,1 km/h (2 Bft) SW 219 0 min 0,000 mm 0,0 UV-I 0 W/m 6,8 C 14,2 C 8,0 km/h (2 Bft) 100,00 %
10.11.2015 20:47 14,2 C 60 % 1023,7 hPa 0,0 l/m 6,6 km/h (2 Bft) SW 234 0 min 0,000 mm 0,0 UV-I 0 W/m 6,5 C 14,1 C 9,7 km/h (2 Bft) 100,00 %
10.11.2015 20:48 14,2 C 61 % 1023,6 hPa 0,0 l/m 6,4 km/h (2 Bft) SW 216 0 min 0,000 mm 0,0 UV-I 0 W/m 6,8 C 14,2 C 8,0 km/h (2 Bft) 100,00 %
10.11.2015 20:49 14,3 C 60 % 1023,6 hPa 0,0 l/m 5,4 km/h (1 Bft) SW 218 0 min 0,000 mm 0,0 UV-I 0 W/m 6,6 C 14,3 C 8,0 km/h (2 Bft) 100,00 %
10.11.2015 20:50 14,3 C 60 % 1023,6 hPa 0,0 l/m 4,8 km/h (1 Bft) SW 236 0 min 0,000 mm 0,0 UV-I 0 W/m 6,6 C 14,3 C 9,7 km/h (2 Bft) 100,00 %
10.11.2015 20:55 14,3 C 60 % 1023,7 hPa 0,0 l/m 4,8 km/h (1 Bft) SW 225 0 min 0,000 mm 0,0 UV-I 0 W/m 6,6 C 14,3 C 9,7 km/h (2 Bft) 100,00 %
10.11.2015 20:57 14,3 C 60 % 1023,7 hPa 0,0 l/m 7,4 km/h (2 Bft) S-SW 211 0 min 0,000 mm 0,0 UV-I 0 W/m 6,6 C 13,7 C 12,9 km/h (3 Bft) 99,37 %
10.11.2015 20:58 14,3 C 60 % 1023,7 hPa 0,0 l/m 5,7 km/h (1 Bft) SW 233 0 min 0,000 mm 0,0 UV-I 0 W/m 6,6 C 14,3 C 9,7 km/h (2 Bft) 100,00 %
10.11.2015 20:59 14,3 C 60 % 1023,7 hPa 0,0 l/m 6,4 km/h (2 Bft) SW 221 0 min 0,000 mm 0,0 UV-I 0 W/m 6,6 C 14,3 C 9,7 km/h (2 Bft) 96,15 %
10.11.2015 21:00 14,3 C 60 % 1023,7 hPa 0,0 l/m 6,2 km/h (2 Bft) SW 229 0 min 0,000 mm 0,0 UV-I 0 W/m 6,6 C 14,3 C 8,0 km/h (2 Bft) 100,00 %
10.11.2015 21:02 14,3 C 59 % 1023,7 hPa 0,0 l/m 7,1 km/h (2 Bft) S-SW 207 0 min 0,025 mm 0,0 UV-I 0 W/m 6,4 C 13,9 C 9,7 km/h (2 Bft) 100,00 %
10.11.2015 21:03 14,3 C 59 % 1023,7 hPa 0,0 l/m 8,0 km/h (2 Bft) S-SW 202 0 min 0,001 mm 0,0 UV-I 0 W/m 6,4 C 13,4 C 11,3 km/h (2 Bft) 100,00 %
10.11.2015 21:04 14,3 C 59 % 1023,7 hPa 0,0 l/m 9,7 km/h (2 Bft) SW 229 0 min 0,000 mm 0,0 UV-I 0 W/m 6,4 C 12,5 C 12,9 km/h (3 Bft) 100,00 %
10.11.2015 21:05 14,4 C 59 % 1023,7 hPa 0,0 l/m 8,0 km/h (2 Bft) SW 225 0 min 0,000 mm 0,0 UV-I 0 W/m 6,5 C 13,5 C 12,9 km/h (3 Bft) 100,00 %
10.11.2015 21:08 14,4 C 59 % 1023,8 hPa 0,0 l/m 2,4 km/h (1 Bft) W 274 0 min 0,000 mm 0,0 UV-I 0 W/m 6,5 C 14,4 C 3,2 km/h (1 Bft) 100,00 %
10.11.2015 21:09 14,3 C 59 % 1023,8 hPa 0,0 l/m 4,1 km/h (1 Bft) SW 234 0 min 0,000 mm 0,0 UV-I 0 W/m 6,4 C 14,3 C 6,4 km/h (2 Bft) 100,00 %
10.11.2015 21:10 14,3 C 59 % 1023,8 hPa 0,0 l/m 3,6 km/h (1 Bft) W-SW 253 0 min 0,000 mm 0,0 UV-I 0 W/m 6,4 C 14,3 C 4,8 km/h (1 Bft) 100,00 %
10.11.2015 21:11 14,3 C 59 % 1023,8 hPa 0,0 l/m 4,0 km/h (1 Bft) SW 230 0 min 0,000 mm 0,0 UV-I 0 W/m 6,4 C 14,3 C 6,4 km/h (2 Bft) 100,00 %
10.11.2015 21:12 14,3 C 59 % 1023,8 hPa 0,0 l/m 4,1 km/h (1 Bft) W 259 0 min 0,000 mm 0,0 UV-I 0 W/m 6,4 C 14,3 C 6,4 km/h (2 Bft) 100,00 %
10.11.2015 21:13 14,2 C 59 % 1023,8 hPa 0,0 l/m 3,6 km/h (1 Bft) W 275 0 min 0,000 mm 0,0 UV-I 0 W/m 6,3 C 14,2 C 6,4 km/h (2 Bft) 99,11 %
10.11.2015 21:14 14,2 C 59 % 1023,8 hPa 0,0 l/m 4,3 km/h (1 Bft) W 275 0 min 0,000 mm 0,0 UV-I 0 W/m 6,3 C 14,2 C 6,4 km/h (2 Bft) 100,00 %
10.11.2015 21:15 14,2 C 60 % 1023,8 hPa 0,0 l/m 4,2 km/h (1 Bft) W-NW 285 0 min 0,000 mm 0,0 UV-I 0 W/m 6,5 C 14,2 C 4,8 km/h (1 Bft) 100,00 %
10.11.2015 21:16 14,1 C 59 % 1023,8 hPa 0,0 l/m 3,7 km/h (1 Bft) W-SW 249 0 min 0,000 mm 0,0 UV-I 0 W/m 6,2 C 14,1 C 4,8 km/h (1 Bft) 100,00 %
10.11.2015 21:17 14,1 C 60 % 1023,8 hPa 0,0 l/m 3,3 km/h (1 Bft) SW 232 0 min 0,000 mm 0,0 UV-I 0 W/m 6,5 C 14,1 C 4,8 km/h (1 Bft) 100,00 %
10.11.2015 21:18 14,1 C 60 % 1023,8 hPa 0,0 l/m 3,0 km/h (1 Bft) W 263 0 min 0,000 mm 0,0 UV-I 0 W/m 6,5 C 14,1 C 4,8 km/h (1 Bft) 100,00 %
10.11.2015 21:19 14,0 C 60 % 1023,8 hPa 0,0 l/m 2,7 km/h (1 Bft) W 265 0 min 0,000 mm 0,0 UV-I 0 W/m 6,4 C 14,0 C 4,8 km/h (1 Bft) 100,00 %
10.11.2015 21:20 14,0 C 60 % 1023,9 hPa 0,0 l/m 3,1 km/h (1 Bft) W-NW 292 0 min 0,000 mm 0,0 UV-I 0 W/m 6,4 C 14,0 C 4,8 km/h (1 Bft) 100,00 %
10.11.2015 21:21 13,9 C 60 % 1023,9 hPa 0,0 l/m 4,3 km/h (1 Bft) SW 225 0 min 0,000 mm 0,0 UV-I 0 W/m 6,3 C 13,9 C 6,4 km/h (2 Bft) 100,00 %
10.11.2015 21:22 13,9 C 60 % 1023,9 hPa 0,0 l/m 4,3 km/h (1 Bft) W 274 0 min 0,000 mm 0,0 UV-I 0 W/m 6,3 C 13,9 C 9,7 km/h (2 Bft) 100,00 %
10.11.2015 21:23 14,0 C 59 % 1023,9 hPa 0,0 l/m 5,2 km/h (1 Bft) W-NW 288 0 min 0,000 mm 0,0 UV-I 0 W/m 6,1 C 14,0 C 6,4 km/h (2 Bft) 91,67 %
10.11.2015 21:24 14,1 C 59 % 1023,9 hPa 0,0 l/m 3,7 km/h (1 Bft) W 263 0 min 0,000 mm 0,0 UV-I 0 W/m 6,2 C 14,1 C 4,8 km/h (1 Bft) 95,65 %
10.11.2015 21:25 14,1 C 59 % 1023,9 hPa 0,0 l/m 3,9 km/h (1 Bft) W 279 0 min 0,000 mm 0,0 UV-I 0 W/m 6,2 C 14,1 C 6,4 km/h (2 Bft) 100,00 %
10.11.2015 21:26 14,1 C 60 % 1023,9 hPa 0,0 l/m 3,9 km/h (1 Bft) SW 236 0 min 0,000 mm 0,0 UV-I 0 W/m 6,5 C 14,1 C 6,4 km/h (2 Bft) 100,00 %
10.11.2015 21:27 14,1 C 59 % 1024,0 hPa 0,0 l/m 5,7 km/h (1 Bft) W 264 0 min 0,000 mm 0,0 UV-I 0 W/m 6,2 C 14,1 C 8,0 km/h (2 Bft) 100,00 %
10.11.2015 21:28 14,2 C 59 % 1023,9 hPa 0,0 l/m 3,9 km/h (1 Bft) W-SW 242 0 min 0,000 mm 0,0 UV-I 0 W/m 6,3 C 14,2 C 6,4 km/h (2 Bft) 100,00 %
10.11.2015 21:29 14,2 C 58 % 1024,0 hPa 0,0 l/m 3,3 km/h (1 Bft) W-SW 248 0 min 0,000 mm 0,0 UV-I 0 W/m 6,1 C 14,2 C 8,0 km/h (2 Bft) 95,83 %
10.11.2015 21:30 14,3 C 59 % 1023,9 hPa 0,0 l/m 4,0 km/h (1 Bft) W-SW 245 0 min 0,000 mm 0,0 UV-I 0 W/m 6,4 C 14,3 C 6,4 km/h (2 Bft) 95,65 %
10.11.2015 21:31 14,3 C 58 % 1023,9 hPa 0,0 l/m 3,0 km/h (1 Bft) SW 228 0 min 0,000 mm 0,0 UV-I 0 W/m 6,2 C 14,3 C 4,8 km/h (1 Bft) 100,00 %
10.11.2015 21:32 14,3 C 59 % 1023,9 hPa 0,0 l/m 3,2 km/h (1 Bft) W-SW 251 0 min 0,000 mm 0,0 UV-I 0 W/m 6,4 C 14,3 C 4,8 km/h (1 Bft) 100,00 %
10.11.2015 21:33 14,3 C 58 % 1023,9 hPa 0,0 l/m 2,7 km/h (1 Bft) W-SW 256 0 min 0,000 mm 0,0 UV-I 0 W/m 6,2 C 14,3 C 3,2 km/h (1 Bft) 100,00 %
10.11.2015 21:34 14,3 C 58 % 1024,0 hPa 0,0 l/m 3,4 km/h (1 Bft) W-SW 255 0 min 0,000 mm 0,0 UV-I 0 W/m 6,2 C 14,3 C 6,4 km/h (2 Bft) 100,00 %
10.11.2015 21:35 14,3 C 58 % 1024,0 hPa 0,0 l/m 4,4 km/h (1 Bft) W-SW 237 0 min 0,000 mm 0,0 UV-I 0 W/m 6,2 C 14,3 C 8,0 km/h (2 Bft) 100,00 %
10.11.2015 21:36 14,4 C 58 % 1024,0 hPa 0,0 l/m 4,0 km/h (1 Bft) W-SW 242 0 min 0,000 mm 0,0 UV-I 0 W/m 6,2 C 14,4 C 4,8 km/h (1 Bft) 96,55 %
10.11.2015 21:37 14,4 C 58 % 1024,0 hPa 0,0 l/m 3,1 km/h (1 Bft) SW 227 0 min 0,000 mm 0,0 UV-I 0 W/m 6,2 C 14,4 C 4,8 km/h (1 Bft) 100,00 %
10.11.2015 21:38 14,4 C 58 % 1023,9 hPa 0,0 l/m 3,1 km/h (1 Bft) W-SW 252 0 min 0,000 mm 0,0 UV-I 0 W/m 6,2 C 14,4 C 4,8 km/h (1 Bft) 100,00 %
10.11.2015 21:39 14,4 C 58 % 1023,9 hPa 0,0 l/m 3,4 km/h (1 Bft) SW 232 0 min 0,000 mm 0,0 UV-I 0 W/m 6,2 C 14,4 C 6,4 km/h (2 Bft) 100,00 %
10.11.2015 21:40 14,4 C 58 % 1023,9 hPa 0,0 l/m 2,3 km/h (1 Bft) W 275 0 min 0,000 mm 0,0 UV-I 0 W/m 6,2 C 14,4 C 3,2 km/h (1 Bft) 100,00 %
10.11.2015 21:41 14,3 C 58 % 1023,9 hPa 0,0 l/m 2,8 km/h (1 Bft) W 266 0 min 0,000 mm 0,0 UV-I 0 W/m 6,2 C 14,3 C 6,4 km/h (2 Bft) 100,00 %
10.11.2015 21:42 14,3 C 59 % 1023,9 hPa 0,0 l/m 5,3 km/h (1 Bft) SW 232 0 min 0,000 mm 0,0 UV-I 0 W/m 6,4 C 14,3 C 6,4 km/h (2 Bft) 100,00 %
10.11.2015 21:43 14,3 C 58 % 1023,9 hPa 0,0 l/m 5,8 km/h (2 Bft) W 270 0 min 0,000 mm 0,0 UV-I 0 W/m 6,2 C 14,3 C 9,7 km/h (2 Bft) 100,00 %
10.11.2015 21:44 14,3 C 58 % 1024,0 hPa 0,0 l/m 4,4 km/h (1 Bft) W 263 0 min 0,000 mm 0,0 UV-I 0 W/m 6,2 C 14,3 C 6,4 km/h (2 Bft) 100,00 %
10.11.2015 21:45 14,3 C 58 % 1023,9 hPa 0,0 l/m 4,2 km/h (1 Bft) SW 232 0 min 0,000 mm 0,0 UV-I 0 W/m 6,2 C 14,3 C 6,4 km/h (2 Bft) 100,00 %
10.11.2015 21:46 14,4 C 58 % 1023,9 hPa 0,0 l/m 5,7 km/h (1 Bft) W-NW 291 0 min 0,000 mm 0,0 UV-I 0 W/m 6,2 C 14,4 C 12,9 km/h (3 Bft) 100,00 %
10.11.2015 21:47 14,4 C 58 % 1024,0 hPa 0,0 l/m 5,3 km/h (1 Bft) W-SW 257 0 min 0,000 mm 0,0 UV-I 0 W/m 6,2 C 14,4 C 8,0 km/h (2 Bft) 100,00 %
10.11.2015 21:48 14,4 C 58 % 1024,0 hPa 0,0 l/m 3,6 km/h (1 Bft) W 272 0 min 0,000 mm 0,0 UV-I 0 W/m 6,2 C 14,4 C 6,4 km/h (2 Bft) 100,00 %
10.11.2015 21:49 14,4 C 58 % 1024,0 hPa 0,0 l/m 4,5 km/h (1 Bft) W 274 0 min 0,000 mm 0,0 UV-I 0 W/m 6,2 C 14,4 C 6,4 km/h (2 Bft) 100,00 %
10.11.2015 21:50 14,5 C 58 % 1024,0 hPa 0,0 l/m 5,5 km/h (1 Bft) W-NW 290 0 min 0,000 mm 0,0 UV-I 0 W/m 6,3 C 14,5 C 6,4 km/h (2 Bft) 100,00 %
10.11.2015 21:51 14,5 C 58 % 1024,0 hPa 0,0 l/m 5,9 km/h (2 Bft) W 267 0 min 0,000 mm 0,0 UV-I 0 W/m 6,3 C 14,5 C 9,7 km/h (2 Bft) 100,00 %
10.11.2015 21:52 14,6 C 58 % 1024,0 hPa 0,0 l/m 6,1 km/h (2 Bft) W 273 0 min 0,000 mm 0,0 UV-I 0 W/m 6,4 C 14,6 C 11,3 km/h (2 Bft) 100,00 %
10.11.2015 21:53 14,6 C 57 % 1024,1 hPa 0,0 l/m 5,6 km/h (1 Bft) W 275 0 min 0,000 mm 0,0 UV-I 0 W/m 6,2 C 14,6 C 9,7 km/h (2 Bft) 100,00 %
10.11.2015 21:54 14,7 C 57 % 1024,0 hPa 0,0 l/m 4,5 km/h (1 Bft) W 277 0 min 0,000 mm 0,0 UV-I 0 W/m 6,3 C 14,7 C 9,7 km/h (2 Bft) 100,00 %
10.11.2015 21:55 14,7 C 57 % 1024,0 hPa 0,0 l/m 3,4 km/h (1 Bft) W 260 0 min 0,000 mm 0,0 UV-I 0 W/m 6,3 C 14,7 C 4,8 km/h (1 Bft) 100,00 %
10.11.2015 21:56 14,8 C 56 % 1024,0 hPa 0,0 l/m 4,9 km/h (1 Bft) W-SW 252 0 min 0,000 mm 0,0 UV-I 0 W/m 6,1 C 14,8 C 9,7 km/h (2 Bft) 100,00 %
10.11.2015 21:57 14,8 C 56 % 1024,0 hPa 0,0 l/m 4,8 km/h (1 Bft) W-NW 284 0 min 0,000 mm 0,0 UV-I 0 W/m 6,1 C 14,8 C 6,4 km/h (2 Bft) 100,00 %
10.11.2015 21:58 14,8 C 56 % 1024,0 hPa 0,0 l/m 6,3 km/h (2 Bft) SW 216 0 min 0,000 mm 0,0 UV-I 0 W/m 6,1 C 14,8 C 12,9 km/h (3 Bft) 100,00 %
10.11.2015 21:59 14,8 C 56 % 1024,0 hPa 0,0 l/m 6,1 km/h (2 Bft) W 277 0 min 0,000 mm 0,0 UV-I 0 W/m 6,1 C 14,8 C 9,7 km/h (2 Bft) 100,00 %
10.11.2015 22:00 14,9 C 56 % 1024,1 hPa 0,0 l/m 7,8 km/h (2 Bft) W 269 0 min 0,000 mm 0,0 UV-I 0 W/m 6,2 C 14,1 C 9,7 km/h (2 Bft) 100,00 %
10.11.2015 22:01 14,9 C 56 % 1024,0 hPa 0,0 l/m 7,0 km/h (2 Bft) W-SW 254 0 min 0,025 mm 0,0 UV-I 0 W/m 6,2 C 14,6 C 11,3 km/h (2 Bft) 100,00 %
10.11.2015 22:02 15,0 C 56 % 1024,0 hPa 0,0 l/m 6,6 km/h (2 Bft) W-NW 284 0 min 0,000 mm 0,0 UV-I 0 W/m 6,3 C 14,9 C 11,3 km/h (2 Bft) 96,15 %
10.11.2015 22:03 15,1 C 55 % 1024,0 hPa 0,0 l/m 6,2 km/h (2 Bft) W 268 0 min 0,000 mm 0,0 UV-I 0 W/m 6,1 C 15,1 C 9,7 km/h (2 Bft) 100,00 %
10.11.2015 22:04 15,1 C 55 % 1024,0 hPa 0,0 l/m 6,6 km/h (2 Bft) W 273 0 min 0,000 mm 0,0 UV-I 0 W/m 6,1 C 15,0 C 11,3 km/h (2 Bft) 100,00 %
10.11.2015 22:05 15,1 C 55 % 1024,0 hPa 0,0 l/m 6,0 km/h (2 Bft) W-NW 293 0 min 0,000 mm 0,0 UV-I 0 W/m 6,1 C 15,1 C 11,3 km/h (2 Bft) 100,00 %
10.11.2015 22:06 15,1 C 55 % 1024,1 hPa 0,0 l/m 5,0 km/h (1 Bft) W-SW 257 0 min 0,000 mm 0,0 UV-I 0 W/m 6,1 C 15,1 C 9,7 km/h (2 Bft) 100,00 %
10.11.2015 22:07 15,1 C 55 % 1024,0 hPa 0,0 l/m 5,4 km/h (1 Bft) W-NW 295 0 min 0,000 mm 0,0 UV-I 0 W/m 6,1 C 15,1 C 9,7 km/h (2 Bft) 100,00 %
10.11.2015 22:08 15,2 C 55 % 1024,0 hPa 0,0 l/m 6,5 km/h (2 Bft) W-NW 292 0 min 0,000 mm 0,0 UV-I 0 W/m 6,2 C 15,2 C 9,7 km/h (2 Bft) 100,00 %
10.11.2015 22:09 15,2 C 55 % 1024,1 hPa 0,0 l/m 7,0 km/h (2 Bft) W 280 0 min 0,000 mm 0,0 UV-I 0 W/m 6,2 C 14,9 C 9,7 km/h (2 Bft) 100,00 %
10.11.2015 22:10 15,2 C 55 % 1024,1 hPa 0,0 l/m 4,3 km/h (1 Bft) W-SW 241 0 min 0,000 mm 0,0 UV-I 0 W/m 6,2 C 15,2 C 6,4 km/h (2 Bft) 100,00 %
10.11.2015 22:11 15,1 C 55 % 1024,1 hPa 0,0 l/m 4,0 km/h (1 Bft) W-NW 286 0 min 0,000 mm 0,0 UV-I 0 W/m 6,1 C 15,1 C 4,8 km/h (1 Bft) 100,00 %
10.11.2015 22:12 15,1 C 55 % 1024,1 hPa 0,0 l/m 6,6 km/h (2 Bft) W-NW 282 0 min 0,000 mm 0,0 UV-I 0 W/m 6,1 C 15,0 C 11,3 km/h (2 Bft) 100,00 %
10.11.2015 22:13 15,1 C 55 % 1024,2 hPa 0,0 l/m 4,4 km/h (1 Bft) W-NW 286 0 min 0,000 mm 0,0 UV-I 0 W/m 6,1 C 15,1 C 6,4 km/h (2 Bft) 100,00 %
10.11.2015 22:14 15,1 C 55 % 1024,1 hPa 0,0 l/m 4,7 km/h (1 Bft) SW 221 0 min 0,000 mm 0,0 UV-I 0 W/m 6,1 C 15,1 C 6,4 km/h (2 Bft) 100,00 %
10.11.2015 22:15 15,1 C 55 % 1024,1 hPa 0,0 l/m 6,9 km/h (2 Bft) W 269 0 min 0,000 mm 0,0 UV-I 0 W/m 6,1 C 14,8 C 14,5 km/h (3 Bft) 100,00 %
10.11.2015 22:16 15,1 C 55 % 1024,2 hPa 0,0 l/m 4,8 km/h (1 Bft) W-SW 257 0 min 0,000 mm 0,0 UV-I 0 W/m 6,1 C 15,1 C 6,4 km/h (2 Bft) 100,00 %
10.11.2015 22:17 15,1 C 55 % 1024,2 hPa 0,0 l/m 4,4 km/h (1 Bft) SW 234 0 min 0,000 mm 0,0 UV-I 0 W/m 6,1 C 15,1 C 9,7 km/h (2 Bft) 100,00 %
10.11.2015 22:18 15,1 C 55 % 1024,2 hPa 0,0 l/m 4,5 km/h (1 Bft) W 276 0 min 0,000 mm 0,0 UV-I 0 W/m 6,1 C 15,1 C 6,4 km/h (2 Bft) 100,00 %
10.11.2015 22:19 15,1 C 55 % 1024,2 hPa 0,0 l/m 4,6 km/h (1 Bft) W-NW 296 0 min 0,000 mm 0,0 UV-I 0 W/m 6,1 C 15,1 C 6,4 km/h (2 Bft) 100,00 %
10.11.2015 22:20 15,1 C 56 % 1024,2 hPa 0,0 l/m 4,7 km/h (1 Bft) W 269 0 min 0,000 mm 0,0 UV-I 0 W/m 6,4 C 15,1 C 6,4 km/h (2 Bft) 100,00 %
10.11.2015 22:21 15,0 C 56 % 1024,2 hPa 0,0 l/m 5,2 km/h (1 Bft) W-SW 249 0 min 0,000 mm 0,0 UV-I 0 W/m 6,3 C 15,0 C 8,0 km/h (2 Bft) 100,00 %
10.11.2015 22:22 15,0 C 56 % 1024,2 hPa 0,0 l/m 6,2 km/h (2 Bft) W-SW 254 0 min 0,000 mm 0,0 UV-I 0 W/m 6,3 C 15,0 C 11,3 km/h (2 Bft) 100,00 %
10.11.2015 22:23 15,0 C 55 % 1024,2 hPa 0,0 l/m 8,3 km/h (2 Bft) SW 218 0 min 0,000 mm 0,0 UV-I 0 W/m 6,0 C 13,9 C 12,9 km/h (3 Bft) 100,00 %
10.11.2015 22:24 15,0 C 56 % 1024,3 hPa 0,0 l/m 6,1 km/h (2 Bft) W 279 0 min 0,000 mm 0,0 UV-I 0 W/m 6,3 C 15,0 C 9,7 km/h (2 Bft) 100,00 %
10.11.2015 22:25 15,0 C 56 % 1024,2 hPa 0,0 l/m 4,3 km/h (1 Bft) W-NW 286 0 min 0,000 mm 0,0 UV-I 0 W/m 6,3 C 15,0 C 6,4 km/h (2 Bft) 100,00 %
10.11.2015 22:26 14,9 C 56 % 1024,3 hPa 0,0 l/m 5,3 km/h (1 Bft) W-NW 286 0 min 0,000 mm 0,0 UV-I 0 W/m 6,2 C 14,9 C 9,7 km/h (2 Bft) 96,30 %
10.11.2015 22:27 14,9 C 56 % 1024,3 hPa 0,0 l/m 5,6 km/h (1 Bft) W-SW 238 0 min 0,000 mm 0,0 UV-I 0 W/m 6,2 C 14,9 C 9,7 km/h (2 Bft) 92,86 %
10.11.2015 22:28 14,9 C 56 % 1024,3 hPa 0,0 l/m 4,2 km/h (1 Bft) W-NW 282 0 min 0,000 mm 0,0 UV-I 0 W/m 6,2 C 14,9 C 8,0 km/h (2 Bft) 100,00 %
10.11.2015 22:29 14,9 C 56 % 1024,3 hPa 0,0 l/m 4,9 km/h (1 Bft) W 263 0 min 0,000 mm 0,0 UV-I 0 W/m 6,2 C 14,9 C 9,7 km/h (2 Bft) 96,15 %
10.11.2015 22:30 14,9 C 56 % 1024,3 hPa 0,0 l/m 6,5 km/h (2 Bft) W 280 0 min 0,000 mm 0,0 UV-I 0 W/m 6,2 C 14,9 C 9,7 km/h (2 Bft) 100,00 %
10.11.2015 22:31 14,9 C 56 % 1024,3 hPa 0,0 l/m 5,0 km/h (1 Bft) W 259 0 min 0,000 mm 0,0 UV-I 0 W/m 6,2 C 14,9 C 6,4 km/h (2 Bft) 100,00 %
10.11.2015 22:32 14,8 C 56 % 1024,3 hPa 0,0 l/m 5,0 km/h (1 Bft) W-SW 255 0 min 0,000 mm 0,0 UV-I 0 W/m 6,1 C 14,8 C 9,7 km/h (2 Bft) 100,00 %
10.11.2015 22:33 14,8 C 56 % 1024,4 hPa 0,0 l/m 5,0 km/h (1 Bft) W-NW 286 0 min 0,000 mm 0,0 UV-I 0 W/m 6,1 C 14,8 C 8,0 km/h (2 Bft) 100,00 %
10.11.2015 22:34 14,8 C 56 % 1024,4 hPa 0,0 l/m 6,8 km/h (2 Bft) W 261 0 min 0,000 mm 0,0 UV-I 0 W/m 6,1 C 14,6 C 11,3 km/h (2 Bft) 95,83 %
10.11.2015 22:35 14,8 C 57 % 1024,4 hPa 0,0 l/m 4,7 km/h (1 Bft) W-NW 294 0 min 0,000 mm 0,0 UV-I 0 W/m 6,4 C 14,8 C 6,4 km/h (2 Bft) 100,00 %
10.11.2015 22:36 14,8 C 57 % 1024,4 hPa 0,0 l/m 7,6 km/h (2 Bft) W-NW 286 0 min 0,000 mm 0,0 UV-I 0 W/m 6,4 C 14,1 C 11,3 km/h (2 Bft) 100,00 %
10.11.2015 22:37 14,8 C 57 % 1024,4 hPa 0,0 l/m 4,1 km/h (1 Bft) W 265 0 min 0,000 mm 0,0 UV-I 0 W/m 6,4 C 14,8 C 6,4 km/h (2 Bft) 95,65 %
10.11.2015 22:38 14,8 C 57 % 1024,4 hPa 0,0 l/m 4,0 km/h (1 Bft) W 263 0 min 0,000 mm 0,0 UV-I 0 W/m 6,4 C 14,8 C 6,4 km/h (2 Bft) 100,00 %
10.11.2015 22:39 14,7 C 57 % 1024,4 hPa 0,0 l/m 4,3 km/h (1 Bft) W 274 0 min 0,000 mm 0,0 UV-I 0 W/m 6,3 C 14,7 C 6,4 km/h (2 Bft) 100,00 %
10.11.2015 22:40 14,7 C 57 % 1024,4 hPa 0,0 l/m 5,3 km/h (1 Bft) W-SW 250 0 min 0,000 mm 0,0 UV-I 0 W/m 6,3 C 14,7 C 8,0 km/h (2 Bft) 100,00 %
10.11.2015 22:41 14,7 C 57 % 1024,4 hPa 0,0 l/m 4,2 km/h (1 Bft) W-NW 296 0 min 0,000 mm 0,0 UV-I 0 W/m 6,3 C 14,7 C 9,7 km/h (2 Bft) 100,00 %
10.11.2015 22:42 14,7 C 58 % 1024,4 hPa 0,0 l/m 4,4 km/h (1 Bft) SW 219 0 min 0,000 mm 0,0 UV-I 0 W/m 6,5 C 14,7 C 6,4 km/h (2 Bft) 96,15 %
10.11.2015 22:43 14,7 C 57 % 1024,4 hPa 0,0 l/m 5,0 km/h (1 Bft) W 267 0 min 0,000 mm 0,0 UV-I 0 W/m 6,3 C 14,7 C 9,7 km/h (2 Bft) 100,00 %
10.11.2015 22:44 14,7 C 58 % 1024,4 hPa 0,0 l/m 5,7 km/h (1 Bft) W 267 0 min 0,000 mm 0,0 UV-I 0 W/m 6,5 C 14,7 C 8,0 km/h (2 Bft) 100,00 %
10.11.2015 22:45 14,7 C 58 % 1024,4 hPa 0,0 l/m 4,3 km/h (1 Bft) W 273 0 min 0,000 mm 0,0 UV-I 0 W/m 6,5 C 14,7 C 6,4 km/h (2 Bft) 100,00 %
10.11.2015 22:46 14,7 C 58 % 1024,4 hPa 0,0 l/m 3,8 km/h (1 Bft) W-SW 253 0 min 0,000 mm 0,0 UV-I 0 W/m 6,5 C 14,7 C 6,4 km/h (2 Bft) 100,00 %
10.11.2015 22:47 14,6 C 58 % 1024,4 hPa 0,0 l/m 4,4 km/h (1 Bft) W 259 0 min 0,000 mm 0,0 UV-I 0 W/m 6,4 C 14,6 C 6,4 km/h (2 Bft) 100,00 %
10.11.2015 22:48 14,6 C 59 % 1024,5 hPa 0,0 l/m 3,9 km/h (1 Bft) W-SW 246 0 min 0,000 mm 0,0 UV-I 0 W/m 6,7 C 14,6 C 4,8 km/h (1 Bft) 100,00 %
10.11.2015 22:49 14,6 C 58 % 1024,4 hPa 0,0 l/m 4,6 km/h (1 Bft) W-SW 253 0 min 0,000 mm 0,0 UV-I 0 W/m 6,4 C 14,6 C 6,4 km/h (2 Bft) 100,00 %
10.11.2015 22:50 14,6 C 58 % 1024,4 hPa 0,0 l/m 4,1 km/h (1 Bft) SW 215 0 min 0,000 mm 0,0 UV-I 0 W/m 6,4 C 14,6 C 8,0 km/h (2 Bft) 100,00 %
10.11.2015 22:51 14,6 C 59 % 1024,4 hPa 0,0 l/m 3,5 km/h (1 Bft) W 264 0 min 0,000 mm 0,0 UV-I 0 W/m 6,7 C 14,6 C 4,8 km/h (1 Bft) 100,00 %
10.11.2015 22:52 14,5 C 59 % 1024,4 hPa 0,0 l/m 4,0 km/h (1 Bft) W-SW 254 0 min 0,000 mm 0,0 UV-I 0 W/m 6,6 C 14,5 C 9,7 km/h (2 Bft) 100,00 %
10.11.2015 22:53 14,5 C 59 % 1024,4 hPa 0,0 l/m 3,4 km/h (1 Bft) W-SW 248 0 min 0,000 mm 0,0 UV-I 0 W/m 6,6 C 14,5 C 6,4 km/h (2 Bft) 95,83 %
10.11.2015 22:54 14,5 C 59 % 1024,4 hPa 0,0 l/m 3,3 km/h (1 Bft) W 281 0 min 0,000 mm 0,0 UV-I 0 W/m 6,6 C 14,5 C 4,8 km/h (1 Bft) 100,00 %
10.11.2015 22:55 14,5 C 59 % 1024,4 hPa 0,0 l/m 4,6 km/h (1 Bft) S-SW 205 0 min 0,000 mm 0,0 UV-I 0 W/m 6,6 C 14,5 C 6,4 km/h (2 Bft) 100,00 %
10.11.2015 22:56 14,4 C 60 % 1024,4 hPa 0,0 l/m 4,9 km/h (1 Bft) W-SW 253 0 min 0,000 mm 0,0 UV-I 0 W/m 6,7 C 14,4 C 9,7 km/h (2 Bft) 100,00 %
10.11.2015 22:57 14,4 C 60 % 1024,4 hPa 0,0 l/m 4,1 km/h (1 Bft) W-NW 283 0 min 0,000 mm 0,0 UV-I 0 W/m 6,7 C 14,4 C 6,4 km/h (2 Bft) 95,65 %
10.11.2015 22:58 14,4 C 60 % 1024,4 hPa 0,0 l/m 4,5 km/h (1 Bft) W-SW 255 0 min 0,000 mm 0,0 UV-I 0 W/m 6,7 C 14,4 C 6,4 km/h (2 Bft) 100,00 %
10.11.2015 22:59 14,4 C 61 % 1024,4 hPa 0,0 l/m 3,5 km/h (1 Bft) W-SW 238 0 min 0,000 mm 0,0 UV-I 0 W/m 7,0 C 14,4 C 6,4 km/h (2 Bft) 100,00 %
10.11.2015 23:00 14,4 C 61 % 1024,4 hPa 0,0 l/m 3,6 km/h (1 Bft) W-SW 252 0 min 0,000 mm 0,0 UV-I 0 W/m 7,0 C 14,4 C 4,8 km/h (1 Bft) 100,00 %
10.11.2015 23:01 14,3 C 61 % 1024,4 hPa 0,0 l/m 3,6 km/h (1 Bft) S-SW 213 0 min 0,026 mm 0,0 UV-I 0 W/m 6,9 C 14,3 C 4,8 km/h (1 Bft) 100,00 %
10.11.2015 23:02 14,3 C 61 % 1024,3 hPa 0,0 l/m 6,2 km/h (2 Bft) SW 218 0 min 0,000 mm 0,0 UV-I 0 W/m 6,9 C 14,3 C 9,7 km/h (2 Bft) 100,00 %
10.11.2015 23:03 14,3 C 61 % 1024,3 hPa 0,0 l/m 6,4 km/h (2 Bft) SW 217 0 min 0,000 mm 0,0 UV-I 0 W/m 6,9 C 14,3 C 8,0 km/h (2 Bft) 100,00 %
10.11.2015 23:04 14,3 C 61 % 1024,3 hPa 0,0 l/m 7,0 km/h (2 Bft) SW 221 0 min 0,000 mm 0,0 UV-I 0 W/m 6,9 C 13,9 C 9,7 km/h (2 Bft) 100,00 %
10.11.2015 23:05 14,3 C 61 % 1024,3 hPa 0,0 l/m 8,3 km/h (2 Bft) SW 215 0 min 0,000 mm 0,0 UV-I 0 W/m 6,9 C 13,2 C 11,3 km/h (2 Bft) 100,00 %
10.11.2015 23:06 14,3 C 61 % 1024,3 hPa 0,0 l/m 6,1 km/h (2 Bft) SW 215 0 min 0,000 mm 0,0 UV-I 0 W/m 6,9 C 14,3 C 8,0 km/h (2 Bft) 95,83 %
10.11.2015 23:07 14,3 C 61 % 1024,3 hPa 0,0 l/m 6,0 km/h (2 Bft) W-SW 244 0 min 0,000 mm 0,0 UV-I 0 W/m 6,9 C 14,3 C 11,3 km/h (2 Bft) 100,00 %
10.11.2015 23:08 14,3 C 61 % 1024,3 hPa 0,0 l/m 7,5 km/h (2 Bft) SW 229 0 min 0,000 mm 0,0 UV-I 0 W/m 6,9 C 13,7 C 11,3 km/h (2 Bft) 100,00 %
10.11.2015 23:09 14,3 C 61 % 1024,3 hPa 0,0 l/m 4,4 km/h (1 Bft) SW 224 0 min 0,000 mm 0,0 UV-I 0 W/m 6,9 C 14,3 C 6,4 km/h (2 Bft) 100,00 %
10.11.2015 23:10 14,2 C 62 % 1024,3 hPa 0,0 l/m 4,6 km/h (1 Bft) SW 227 0 min 0,000 mm 0,0 UV-I 0 W/m 7,0 C 14,2 C 8,0 km/h (2 Bft) 100,00 %
10.11.2015 23:11 14,2 C 62 % 1024,3 hPa 0,0 l/m 4,0 km/h (1 Bft) W 259 0 min 0,000 mm 0,0 UV-I 0 W/m 7,0 C 14,2 C 6,4 km/h (2 Bft) 100,00 %
10.11.2015 23:12 14,2 C 62 % 1024,3 hPa 0,0 l/m 3,2 km/h (1 Bft) W-SW 251 0 min 0,000 mm 0,0 UV-I 0 W/m 7,0 C 14,2 C 4,8 km/h (1 Bft) 100,00 %
10.11.2015 23:13 14,1 C 62 % 1024,2 hPa 0,0 l/m 3,9 km/h (1 Bft) W 271 0 min 0,000 mm 0,0 UV-I 0 W/m 6,9 C 14,1 C 6,4 km/h (2 Bft) 100,00 %
10.11.2015 23:14 14,1 C 62 % 1024,3 hPa 0,0 l/m 4,6 km/h (1 Bft) W-SW 244 0 min 0,000 mm 0,0 UV-I 0 W/m 6,9 C 14,1 C 6,4 km/h (2 Bft) 100,00 %
10.11.2015 23:15 14,1 C 62 % 1024,2 hPa 0,0 l/m 4,5 km/h (1 Bft) W 275 0 min 0,000 mm 0,0 UV-I 0 W/m 6,9 C 14,1 C 6,4 km/h (2 Bft) 100,00 %
10.11.2015 23:16 14,1 C 62 % 1024,2 hPa 0,0 l/m 3,9 km/h (1 Bft) W-NW 282 0 min 0,000 mm 0,0 UV-I 0 W/m 6,9 C 14,1 C 6,4 km/h (2 Bft) 95,83 %
10.11.2015 23:17 14,0 C 63 % 1024,2 hPa 0,0 l/m 3,6 km/h (1 Bft) W-SW 244 0 min 0,000 mm 0,0 UV-I 0 W/m 7,1 C 14,0 C 4,8 km/h (1 Bft) 100,00 %
10.11.2015 23:18 13,9 C 63 % 1024,2 hPa 0,0 l/m 2,5 km/h (1 Bft) W-SW 244 0 min 0,000 mm 0,0 UV-I 0 W/m 7,0 C 13,9 C 4,8 km/h (1 Bft) 100,00 %
10.11.2015 23:19 13,9 C 63 % 1024,3 hPa 0,0 l/m 4,1 km/h (1 Bft) W 264 0 min 0,000 mm 0,0 UV-I 0 W/m 7,0 C 13,9 C 4,8 km/h (1 Bft) 100,00 %
10.11.2015 23:20 13,9 C 63 % 1024,3 hPa 0,0 l/m 3,9 km/h (1 Bft) W 262 0 min 0,000 mm 0,0 UV-I 0 W/m 7,0 C 13,9 C 6,4 km/h (2 Bft) 100,00 %
10.11.2015 23:21 13,8 C 63 % 1024,3 hPa 0,0 l/m 2,5 km/h (1 Bft) W-SW 240 0 min 0,000 mm 0,0 UV-I 0 W/m 6,9 C 13,8 C 3,2 km/h (1 Bft) 100,00 %
10.11.2015 23:22 13,8 C 64 % 1024,3 hPa 0,0 l/m 3,3 km/h (1 Bft) W-SW 258 0 min 0,000 mm 0,0 UV-I 0 W/m 7,1 C 13,8 C 4,8 km/h (1 Bft) 96,55 %
10.11.2015 23:23 13,7 C 64 % 1024,3 hPa 0,0 l/m 2,3 km/h (1 Bft) W 259 0 min 0,000 mm 0,0 UV-I 0 W/m 7,0 C 13,7 C 3,2 km/h (1 Bft) 100,00 %
10.11.2015 23:24 13,7 C 64 % 1024,3 hPa 0,0 l/m 3,2 km/h (1 Bft) SW 234 0 min 0,000 mm 0,0 UV-I 0 W/m 7,0 C 13,7 C 6,4 km/h (2 Bft) 100,00 %
10.11.2015 23:25 13,7 C 64 % 1024,3 hPa 0,0 l/m 2,1 km/h (1 Bft) SW 234 0 min 0,000 mm 0,0 UV-I 0 W/m 7,0 C 13,7 C 4,8 km/h (1 Bft) 100,00 %
10.11.2015 23:26 13,6 C 64 % 1024,3 hPa 0,0 l/m 3,1 km/h (1 Bft) W-SW 250 0 min 0,000 mm 0,0 UV-I 0 W/m 6,9 C 13,6 C 4,8 km/h (1 Bft) 100,00 %
10.11.2015 23:27 13,6 C 65 % 1024,3 hPa 0,0 l/m 2,2 km/h (1 Bft) W-SW 250 0 min 0,000 mm 0,0 UV-I 0 W/m 7,1 C 13,6 C 3,2 km/h (1 Bft) 100,00 %
10.11.2015 23:28 13,5 C 65 % 1024,3 hPa 0,0 l/m 2,5 km/h (1 Bft) W-SW 244 0 min 0,000 mm 0,0 UV-I 0 W/m 7,1 C 13,5 C 4,8 km/h (1 Bft) 100,00 %
10.11.2015 23:29 13,5 C 65 % 1024,3 hPa 0,0 l/m 2,1 km/h (1 Bft) SW 231 0 min 0,000 mm 0,0 UV-I 0 W/m 7,1 C 13,5 C 4,8 km/h (1 Bft) 92,59 %
10.11.2015 23:30 13,5 C 65 % 1024,3 hPa 0,0 l/m 1,8 km/h (1 Bft) SW 232 0 min 0,000 mm 0,0 UV-I 0 W/m 7,1 C 13,5 C 3,2 km/h (1 Bft) 100,00 %
10.11.2015 23:31 13,4 C 65 % 1024,3 hPa 0,0 l/m 3,3 km/h (1 Bft) SW 234 0 min 0,000 mm 0,0 UV-I 0 W/m 7,0 C 13,4 C 6,4 km/h (2 Bft) 95,83 %
10.11.2015 23:32 13,4 C 65 % 1024,2 hPa 0,0 l/m 1,7 km/h (1 Bft) SW 234 0 min 0,000 mm 0,0 UV-I 0 W/m 7,0 C 13,4 C 3,2 km/h (1 Bft) 95,65 %
10.11.2015 23:33 13,3 C 65 % 1024,2 hPa 0,0 l/m 1,2 km/h (1 Bft) SW 234 0 min 0,000 mm 0,0 UV-I 0 W/m 6,9 C 13,3 C 1,6 km/h (1 Bft) 100,00 %
10.11.2015 23:34 13,3 C 66 % 1024,2 hPa 0,0 l/m 0,5 km/h (0 Bft) SW 234 0 min 0,000 mm 0,0 UV-I 0 W/m 7,1 C 13,3 C 1,6 km/h (1 Bft) 100,00 %
10.11.2015 23:35 13,3 C 66 % 1024,2 hPa 0,0 l/m 2,4 km/h (1 Bft) W-SW 240 0 min 0,000 mm 0,0 UV-I 0 W/m 7,1 C 13,3 C 3,2 km/h (1 Bft) 95,83 %
10.11.2015 23:36 13,2 C 66 % 1024,2 hPa 0,0 l/m 2,7 km/h (1 Bft) SW 229 0 min 0,000 mm 0,0 UV-I 0 W/m 7,0 C 13,2 C 4,8 km/h (1 Bft) 95,65 %
10.11.2015 23:37 13,2 C 66 % 1024,2 hPa 0,0 l/m 2,7 km/h (1 Bft) SW 220 0 min 0,000 mm 0,0 UV-I 0 W/m 7,0 C 13,2 C 4,8 km/h (1 Bft) 100,00 %
10.11.2015 23:38 13,2 C 66 % 1024,2 hPa 0,0 l/m 2,1 km/h (1 Bft) SW 220 0 min 0,000 mm 0,0 UV-I 0 W/m 7,0 C 13,2 C 3,2 km/h (1 Bft) 91,67 %
10.11.2015 23:39 13,1 C 66 % 1024,2 hPa 0,0 l/m 2,2 km/h (1 Bft) SW 220 0 min 0,000 mm 0,0 UV-I 0 W/m 6,9 C 13,1 C 3,2 km/h (1 Bft) 100,00 %
10.11.2015 23:40 13,1 C 66 % 1024,1 hPa 0,0 l/m 3,0 km/h (1 Bft) SW 219 0 min 0,000 mm 0,0 UV-I 0 W/m 6,9 C 13,1 C 4,8 km/h (1 Bft) 100,00 %
10.11.2015 23:41 13,1 C 66 % 1024,1 hPa 0,0 l/m 3,1 km/h (1 Bft) SW 225 0 min 0,000 mm 0,0 UV-I 0 W/m 6,9 C 13,1 C 4,8 km/h (1 Bft) 96,15 %
10.11.2015 23:42 13,1 C 66 % 1024,1 hPa 0,0 l/m 3,9 km/h (1 Bft) SW 227 0 min 0,000 mm 0,0 UV-I 0 W/m 6,9 C 13,1 C 6,4 km/h (2 Bft) 100,00 %
10.11.2015 23:43 13,1 C 66 % 1024,1 hPa 0,0 l/m 2,6 km/h (1 Bft) SW 224 0 min 0,000 mm 0,0 UV-I 0 W/m 6,9 C 13,1 C 4,8 km/h (1 Bft) 100,00 %
10.11.2015 23:44 13,1 C 66 % 1024,1 hPa 0,0 l/m 3,6 km/h (1 Bft) SW 215 0 min 0,000 mm 0,0 UV-I 0 W/m 6,9 C 13,1 C 6,4 km/h (2 Bft) 100,00 %
10.11.2015 23:45 13,1 C 66 % 1024,1 hPa 0,0 l/m 1,9 km/h (1 Bft) SW 215 0 min 0,000 mm 0,0 UV-I 0 W/m 6,9 C 13,1 C 3,2 km/h (1 Bft) 92,86 %
10.11.2015 23:46 13,1 C 66 % 1024,1 hPa 0,0 l/m 5,3 km/h (1 Bft) SW 219 0 min 0,000 mm 0,0 UV-I 0 W/m 6,9 C 13,1 C 8,0 km/h (2 Bft) 100,00 %
10.11.2015 23:47 13,1 C 66 % 1024,1 hPa 0,0 l/m 5,6 km/h (1 Bft) S-SW 213 0 min 0,000 mm 0,0 UV-I 0 W/m 6,9 C 13,1 C 8,0 km/h (2 Bft) 100,00 %
10.11.2015 23:48 13,2 C 66 % 1024,1 hPa 0,0 l/m 5,1 km/h (1 Bft) SW 217 0 min 0,000 mm 0,0 UV-I 0 W/m 7,0 C 13,2 C 6,4 km/h (2 Bft) 100,00 %
10.11.2015 23:49 13,2 C 66 % 1024,1 hPa 0,0 l/m 4,2 km/h (1 Bft) S-SW 209 0 min 0,000 mm 0,0 UV-I 0 W/m 7,0 C 13,2 C 6,4 km/h (2 Bft) 100,00 %
10.11.2015 23:50 13,2 C 66 % 1024,1 hPa 0,0 l/m 4,8 km/h (1 Bft) W-SW 250 0 min 0,000 mm 0,0 UV-I 0 W/m 7,0 C 13,2 C 6,4 km/h (2 Bft) 100,00 %
10.11.2015 23:51 13,2 C 66 % 1024,1 hPa 0,0 l/m 3,0 km/h (1 Bft) SW 214 0 min 0,000 mm 0,0 UV-I 0 W/m 7,0 C 13,2 C 4,8 km/h (1 Bft) 100,00 %
10.11.2015 23:52 13,2 C 66 % 1024,1 hPa 0,0 l/m 2,6 km/h (1 Bft) SW 220 0 min 0,000 mm 0,0 UV-I 0 W/m 7,0 C 13,2 C 4,8 km/h (1 Bft) 100,00 %
10.11.2015 23:53 13,1 C 66 % 1024,1 hPa 0,0 l/m 3,5 km/h (1 Bft) SW 226 0 min 0,000 mm 0,0 UV-I 0 W/m 6,9 C 13,1 C 4,8 km/h (1 Bft) 100,00 %
10.11.2015 23:54 13,1 C 66 % 1024,1 hPa 0,0 l/m 4,6 km/h (1 Bft) SW 217 0 min 0,000 mm 0,0 UV-I 0 W/m 6,9 C 13,1 C 8,0 km/h (2 Bft) 100,00 %
10.11.2015 23:55 13,1 C 66 % 1024,1 hPa 0,0 l/m 5,0 km/h (1 Bft) SW 225 0 min 0,000 mm 0,0 UV-I 0 W/m 6,9 C 13,1 C 6,4 km/h (2 Bft) 100,00 %
10.11.2015 23:56 13,1 C 66 % 1024,1 hPa 0,0 l/m 3,6 km/h (1 Bft) SW 234 0 min 0,000 mm 0,0 UV-I 0 W/m 6,9 C 13,1 C 4,8 km/h (1 Bft) 97,37 %
10.11.2015 23:57 13,0 C 66 % 1024,1 hPa 0,0 l/m 2,3 km/h (1 Bft) SW 231 0 min 0,000 mm 0,0 UV-I 0 W/m 6,8 C 13,0 C 3,2 km/h (1 Bft) 100,00 %
10.11.2015 23:58 12,9 C 66 % 1024,1 hPa 0,0 l/m 2,6 km/h (1 Bft) SW 229 0 min 0,000 mm 0,0 UV-I 0 W/m 6,7 C 12,9 C 3,2 km/h (1 Bft) 95,65 %
10.11.2015 23:59 12,9 C 66 % 1024,1 hPa 0,0 l/m 2,0 km/h (1 Bft) SW 236 0 min 0,000 mm 0,0 UV-I 0 W/m 6,7 C 12,9 C 3,2 km/h (1 Bft) 100,00 %
_ Min-Zeit 07:46 14:07 17:13 - 16:52 - - - - - - 05:23 03:14 16:52 17:02
Minimum _ 12,6 C 49 % 1022,8 hPa - 0,0 km/h (0 Bft) - - - - - - 4,9 C 9,9 C 0,0 km/h (0 Bft) 86,96 %
_ Max-Zeit 14:32 00:35 01:53 00:00 03:14 - - 07:14 15:01 10:15 14:21 00:35 14:32 09:56 00:00
Maximum _ 17,9 C 78 % 1025,4 hPa 0,0 l/m 19,1 km/h
W (3 Bft)
- - 1 min 0,153 mm 0,9 UV-I 377 W/m 10,9 C 17,9 C 37,0 km/h
W (5 Bft)
100,00 %
Durchschnitt _ 15,0 C 62 % 1024,2 hPa #0,0 l/m 6,6 km/h (2 Bft) W - #1:42 h #1,372 mm 0,6 UV-I 109 W/m 7,6 C 14,2 C 10,6 km/h (2 Bft) 99,16 %